     2              OBSERVATION DATA    GPS                 RINEX VERSION / TYPE
ASRINEXO V2.9.5 UX USGS 26-APR-99 13:36                     PGM / RUN BY / DATE
                                                            COMMENT
BIT 2 OF LLI (+4) FLAGS DATA COLLECTED UNDER "AS" CONDITION COMMENT
BIT 2 OF LLI (+4) FLAGS DATA COLLECTED UNDER "AS" CONDITION COMMENT
BIT 2 OF LLI (+4) FLAGS DATA COLLECTED UNDER "AS" CONDITION COMMENT
BIT 2 OF LLI (+4) FLAGS DATA COLLECTED UNDER "AS" CONDITION COMMENT
BIT 2 OF LLI (+4) FLAGS DATA COLLECTED UNDER "AS" CONDITION COMMENT
BIT 2 OF LLI (+4) FLAGS DATA COLLECTED UNDER "AS" CONDITION COMMENT
Original Marker Name: bm8z BM_80_2253_B_1907_USGS           COMMENT
Campaign Name: USGS Yucca Profile                           COMMENT
4-Character Station Name: BM8Z                              COMMENT
6-Character Antenna Code: DMRCHT                            COMMENT
Vertical Measurement Point: BCR                             COMMENT
Vertical Offset to Rinex Ref. Point: 0.0348                 COMMENT
Radial Measurement Point: ECF                               COMMENT
Radial Offset to Rinex Ref. Point: 0.1897                   COMMENT
Antenna Height from Field Measurement: 1.1860 m             COMMENT
Additional Antenna Identification Info.:                    COMMENT
Turborogue and Ashtech Choke Ring                           COMMENT
Original XYZ: -2323532.5530 -4563208.9102 3793902.1179      COMMENT
New XYZ position is based on association with SCEC monument COMMENT
E1G0F2J6+0011. Position of that monument is believed to be  COMMENT
valid to within 1 m horizontally; vertical accuracy         COMMENT
should be no worse than 3-times this value.                 COMMENT
                                                            COMMENT
Revised Rinex header created by UCSD GPS archive for        COMMENT
GSAC on 08-Aug-2000 (2000:221) 00:25:44 GMT                 COMMENT
For assistance contact dagnew@ucsd.edu                      COMMENT
or anderson@python.ucsd.edu                                 COMMENT
                                                            COMMENT
BM 80 1907                                                  MARKER NAME
GDH US GEOLOGICAL SURVEY                                    OBSERVER / AGENCY
O4579 ASHTECH Z-XII3 1E95                                   REC # / TYPE / VERS
CR16975 DORNE-MARGOL. TYPE T                                ANT # / TYPE
 -2322159.4549 -4561907.4276  3793241.7693                  APPROX POSITION XYZ
        1.1359        0.0000        0.0000                  ANTENNA: DELTA H/E/N
     1     1     0                                          WAVELENGTH FACT L1/2
     5    C1    L1    L2    P1    P2                        # / TYPES OF OBSERV
    30                                                      INTERVAL
  1999     4    20    15    53   30.000000                  TIME OF FIRST OBS
  1999     4    20    22    29   60.000000                  TIME OF LAST OBS
                                                            END OF HEADER
 99  4 20 15 53 30.0000000  0  5 15 27 02 26 13
  23713962.494    23713958.558                    23713963.1124
  20975326.889      423397.015 9    318581.49649  20975326.214    20975330.8594
  21305285.661      246906.857 9    186027.92649  21305285.378    21305290.0724
  22790028.444      167038.914 9    127074.42749  22790028.452    22790032.5834
  23637579.636      592253.461 9    448497.96149  23637580.074    23637586.2454
 99  4 20 15 54  0.0000000  0  5 15 27 02 26 13
  23725249.103    23725246.134                    23725394.1664
  20994592.205      524637.775 9    397470.37249  20994591.807    20994596.5274
  21316147.045      303982.627 9    230502.54649  21316146.559    21316151.2814
  22797409.120      205826.456 9    157298.46749  22797408.413    22797414.3054
  23666280.407      743075.973 9    566021.87049  23666280.675    23666286.5174
 99  4 20 15 54 30.0010000  0  5 15 27 02 26 13
  23736345.733    23736343.491                    23736352.1614
  21013647.571      624774.385 9    475498.87249  21013647.155    21013651.5974
  21326736.345      359629.861 9    273864.01949  21326735.708    21326740.6014
  22804591.785      243572.302 9    186710.80749  22804591.890    22804596.5614
  23694706.041      892452.816 9    682419.28949  23694705.767    23694713.0694
 99  4 20 15 55  0.0010000  0  6 19 15 27 02 26 13
  24728664.142      459479.045 9    336867.69449  24728664.082    24728673.3614
  23747265.189      111311.06359                  23747264.811    23747270.1544
  21032502.190      723856.135 9    552705.40449  21032501.822    21032506.6104
  21337065.171      413908.062 9    316158.71149  21337064.608    21337069.4064
  22811587.606      280335.240 9    215357.23549  22811587.756    22811592.8064
  23722862.447     1040415.929 9    797715.11349  23722863.024    23722868.2814
 99  4 20 15 55 30.0010000  0  6 19 15 27 02 26 13
  24756772.726      607179.292 9    451958.62149  24756771.484    24756780.1304
  23758017.854      397054.57719    155341.24249  23758016.657    23758022.1234
  21051165.976      821935.211 9    629130.63149  21051165.551    21051170.3104
  21347147.805      466892.762 9    357445.47549  21347147.377    21347152.5284
  22818409.087      316182.479 9    243290.13349  22818409.084    22818413.8794
  23750758.426     1187009.987 9    911944.12349  23750758.442    23750764.4454
 99  4 20 15 56  0.0010000  0  6 19 15 27 02 26 13
  24784637.351      753612.021 9    566061.87849  24784635.424    24784645.0124
  23768612.724      452731.449 9    198725.81049  23768611.383    23768617.7354
  21069649.352      919065.993 9    704816.92749  21069649.105    21069653.9864
  21356997.729      518654.187 9    397779.04449  21356997.298    21357002.2454
  22825067.382      351172.329 9    270554.93449  22825067.445    22825072.1894
  23778405.347     1332295.798 9   1025153.74249  23778405.213    23778411.9504
 99  4 20 15 56 30.0010000  0  6 19 15 27 02 26 13
  24812272.272      898835.774 9    679223.06949  24812271.342    24812280.5914
  23779062.014      507643.694 9    241514.56049  23779060.889    23779067.3414
  21087966.788     1015324.550 9    779823.57349  21087966.545    21087971.2734
  21366627.455      569258.355 9    437210.85849  21366626.902    21366631.8334
  22831572.260      385355.746 9    297191.35049  22831572.791    22831576.8054
  23805817.261     1476346.327 9   1137400.79549  23805817.396    23805824.3684
 99  4 20 15 57  0.0010000  0  6 19 15 27 02 26 13
  24839687.375     1042903.167 9    791483.20749  24839688.591    24839695.0834
  23789376.331      561846.762 9    283750.67549  23789375.368    23789381.4844
  21106128.174     1110763.083 9    854191.23749  21106128.062    21106132.3854
  21376046.672      618756.535 9    475780.86049  21376046.141    21376050.8834
  22837935.212      418793.345 9    323246.60849  22837935.256    22837940.1244
  23833006.895     1619228.448 9   1248737.40349  23833007.402    23833013.4824
 99  4 20 15 57 30.0010000  0  6 19 15 27 02 26 13
  24866894.675     1185878.427 9    902892.32649  24866893.438    24866903.4834
  23799565.560      615392.036 9    325474.26549  23799564.115    23799570.9864
  21124142.911     1205430.860 9    927958.30649  21124142.740    21124147.3444
  21385264.726      667197.482 9    513527.04649  21385264.250    21385268.9904
  22844168.317      451548.798 9    348770.32349  22844167.762    22844173.0284
  23859986.930     1761009.251 9   1359215.82949  23859987.494    23859993.1264
 99  4 20 15 58  0.0010000  0  6 19 15 27 02 26 13
  24893904.227     1327814.772 9   1013491.92949  24893902.580    24893913.3614
  23809638.783      668327.353 9    366722.57049  23809638.131    23809643.8784
  21142018.155     1299365.602 9   1001154.18249  21142017.926    21142022.7644
  21394286.399      714606.642 9    550469.24049  21394285.904    21394290.9554
  22850280.266      483667.634 9    373797.97349  22850280.320    22850285.9334
  23886767.737     1901742.746 9   1468878.17049  23886768.554    23886773.8204
 99  4 20 15 58 30.0010000  0  6 19 15 27 02 26 13
  24920723.860     1468752.380 9   1123313.27049  24920725.041    24920731.5924
  23819603.691      720693.035 9    407527.01849  23819603.322    23819609.2394
  21159759.388     1392596.333 9   1073801.48149  21159759.283    21159763.9394
  21403115.908      761006.143 9    586624.68949  21403115.392    21403120.4814
  22856276.694      515178.668 9    398352.01949  22856276.919    22856281.7994
  23913351.887     2041443.309 9   1577735.62649  23913352.740    23913359.0654
 99  4 20 15 59  0.0010000  0  6 19 15 27 02 26 13
  24947363.071     1608741.876 9   1232395.85149  24947363.729    24947372.1994
  23829468.328      772533.424 9    447922.11349  23829466.494    23829474.2634
  21177372.188     1485151.862 9   1145922.63849  21177371.910    21177376.8724
  21411762.071      806441.559 9    622028.90249  21411761.586    21411766.5004
  22862168.056      546137.544 9    422475.81249  22862167.990    22862173.1564
  23939742.088     2180124.024 9   1685798.40149  23939742.331    23939749.1854
 99  4 20 15 59 30.0010000  0  5 15 27 02 26 13
  23839231.345      823838.573 9    487900.10649  23839231.693    23839237.1984
  21194856.162     1577030.579 9   1217516.41549  21194855.957    21194860.9014
  21420224.007      850908.987 9    656678.84149  21420223.738    21420228.6654
  22867949.922      576521.387 9    446151.52649  22867950.477    22867955.1184
  23965932.198     2317753.079 9   1793041.71049  23965932.950    23965938.9124
 99  4 20 16  0  0.0010000  0  5 15 27 02 26 13
  23848904.064      874667.877 9    527507.38549  23848903.777    23848909.0184
  21212221.838     1668287.606 9   1288625.75549  21212221.615    21212226.6114
  21428512.231      894463.676 9    690617.55949  21428511.620    21428516.6614
  22873630.760      606374.632 9    469413.79249  22873630.615    22873635.9704
  23991931.245     2454377.861 9   1899502.44049  23991932.181    23991937.4914
 99  4 20 16  0 30.0010000  0  5 15 27 02 26 13
  23858500.169      925095.208 9    566801.43149  23858498.575    23858504.9084
  21229483.721     1758999.414 9   1359310.25349  21229483.454    21229488.4144
  21436642.279      937187.535 9    723908.87849  21436641.872    21436646.4164
  22879224.714      635770.525 9    492319.67249  22879224.173    22879230.0924
  24017751.586     2590063.517 9   2005231.40449  24017751.956    24017759.4484
 99  4 20 16  1  0.0010000  0  5 15 27 02 26 13
  23868029.728      975173.953 9    605823.79949  23868029.787    23868034.4924
  21246653.466     1849226.941 9   1429617.39049  21246653.228    21246658.2294
  21444625.008      979136.694 9    756596.52949  21444624.475    21444629.5544
  22884743.897      664773.863 9    514919.66049  22884744.791    22884748.7864
  24043407.248     2724884.280 9   2110286.40749  24043407.056    24043413.5584
 99  4 20 16  1 30.0010000  0  5 15 27 02 26 13
  23877500.134     1024940.284 9    644602.75049  23877499.271    23877505.1864
  21263740.128     1939017.701 9   1499584.18849  21263740.049    21263744.7164
  21452467.430     1020348.783 9    788709.84149  21452466.896    21452471.5704
  22890194.410      693416.387 9    537238.50149  22890194.658    22890199.4784
  24068907.942     2858890.618 9   2214706.80749  24068908.391    24068915.1484
 99  4 20 16  2  0.0010000  0  5 15 27 02 26 13
  23886917.245     1074427.299 9    683164.06149  23886916.622    23886922.2954
  21280749.815     2028403.938 9   1569235.77549  21280749.614    21280754.5074
  21460176.220     1060858.705 9    820276.01249  21460175.700    21460180.3624
  22895583.976      721738.537 9    559307.68949  22895583.937    22895588.6024
  24094261.018     2992121.691 9   2318523.09649  24094261.180    24094269.3754
 99  4 20 16  2 30.0010000  0  5 15 27 02 26 13
  23896286.139     1123661.806 9    721528.51749  23896286.035    23896291.5674
  21297691.245     2117431.650 9   1638607.99249  21297691.215    21297695.9014
  21467758.031     1100701.352 9    851322.22049  21467757.511    21467762.5304
  22900916.897      749763.209 9    581145.08149  22900916.795    22900922.1134
  24119470.858     3124599.950 9   2421752.76149  24119471.028    24119478.7564
 99  4 20 16  3  0.0010000  0  5 15 27 02 26 13
  23905611.707     1172667.789 9    759715.10849  23905610.930    23905617.2014
  21314571.359     2206137.201 9   1707729.17049  21314571.299    21314576.2114
  21475217.945     1139903.242 9    881869.14049  21475217.426    21475222.4734
  22906195.214      777501.053 9    602758.96649  22906195.511    22906200.1384
  24144542.434     3256351.180 9   2524415.91149  24144542.521    24144549.7164
 99  4 20 16  3 30.0010000  0  5 15 27 02 26 13
  23914897.357     1221464.275 9    797738.27449  23914896.582    23914903.4084
  21331392.811     2294533.794 9   1776609.60449  21331392.744    21331397.2454
  21482559.527     1178483.077 9    911931.34749  21482558.774    21482563.7644
  22911420.876      804961.784 9    624156.92249  22911421.403    22911426.0294
  24169476.003     3387377.578 9   2626514.26649  24169476.440    24169483.2884
 99  4 20 16  4  0.0010000  0  5 15 27 02 26 13
  23924146.425     1270068.022 9    835611.31649  23924145.838    23924152.2584
  21348156.504     2382627.378 9   1845253.92049  21348156.539    21348161.1744
  21489782.976     1216442.499 9    941510.10549  21489782.423    21489787.2434
  22916595.523      832154.522 9    645346.05649  22916596.001    22916600.2254
  24194274.872     3517695.792 9   2728060.77449  24194275.542    24194282.2214
 99  4 20 16  4 30.0010000  0  5 15 27 02 26 13
  23933362.498     1318498.596 9    873349.42949  23933361.249    23933367.9644
  21364863.470     2470422.931 9   1913666.01549  21364863.133    21364868.0334
  21496890.710     1253793.974 9    970615.14449  21496890.293    21496895.0764
  22921724.782      859108.709 9    666349.29549  22921725.000    22921729.2384
  24218942.753     3647325.675 9   2829070.93649  24218943.844    24218947.6284
 99  4 20 16  5  0.0010000  0  5 15 27 02 26 13
  23942548.243     1366769.559 9    910963.11749  23942546.650    23942553.3344
  21381512.915     2557916.228 9   1981842.58349  21381512.887    21381517.5684
  21503885.054     1290549.207 9    999255.57649  21503884.780    21503889.5104
  22926816.162      885863.671 9    687197.29949  22926815.896    22926821.0534
  24243482.358     3776281.940 9   2929556.18949  24243483.146    24243488.5234
 99  4 20 16  5 30.0010000  0  5 15 27 02 26 13
  23951706.747     1414897.711 9    948465.60049  23951706.718    23951711.5724
  21398105.945     2645113.001 9   2049788.08949  21398105.590    21398110.8354
  21510768.746     1326722.829 9   1027442.80449  21510768.165    21510773.1464
  22931874.082      912442.964 9    707908.42649  22931874.414    22931878.6734
  24267894.398     3904566.975 9   3029518.41449  24267895.216    24267900.7594
 99  4 20 16  6  0.0010000  0  5 15 27 02 26 13
  23960841.415     1462900.664 9    985870.47549  23960840.405    23960847.1044
  21414646.292     2732032.925 9   2117517.87149  21414646.249    21414651.0534
  21517547.143     1362343.674 9   1055199.29549  21517546.622    21517551.2904
  22936903.362      938872.037 9    728502.49049  22936903.132    22936908.5394
  24292182.098     4032199.525 9   3128972.19649  24292182.842    24292190.3284
 99  4 20 16  6 30.0010000  0  5 15 27 02 26 13
  23969955.332     1510794.677 9   1023190.53149  23969954.636    23969961.2774
  21431138.786     2818701.304 9   2185051.64949  21431138.761    21431143.2464
  21524226.960     1397446.322 9   1082551.99549  21524226.598    21524231.1284
  22941910.690      965185.724 9    749006.65749  22941910.656    22941915.6524
  24316347.409     4159188.048 9   3227924.14349  24316348.812    24316354.7164
 99  4 20 16  7  0.0010000  0  5 15 27 02 26 13
  23979052.148     1558599.372 9   1060440.89049  23979052.078    23979058.4314
  21447587.921     2905141.695 9   2252407.77149  21447587.774    21447592.6094
  21530811.517     1432048.111 9   1109514.42449  21530811.090    21530815.8484
  22946895.494      991380.770 9    769418.37849  22946896.024    22946900.2214
  24340392.352     4285544.526 9   3326383.59849  24340392.737    24340397.8314
 99  4 20 16  7 30.0010000  0  5 15 27 02 26 13
  23988134.891     1606329.107 9   1097632.89649  23988134.680    23988140.1194
  21463995.628     2991364.615 9   2319594.43349  21463995.415    21464000.5734
  21537303.652     1466164.224 9   1136098.39749  21537303.125    21537307.7514
  22951855.597     1017446.196 9    789729.09649  22951856.271    22951860.8164
  24364318.738     4411277.456 9   3424357.14549  24364319.533    24364326.9634
 99  4 20 16  8  0.0010000  0  5 15 27 02 26 13
  23997206.637     1654001.458 9   1134780.16049  23997206.040    23997212.3124
  21480365.134     3077386.867 9   2386624.72649  21480365.073    21480370.2524
  21543705.558     1499806.447 9   1162313.10049  21543705.193    21543709.7704
  22956796.545     1043410.529 9    809961.03049  22956796.550    22956801.4364
  24388132.089     4536416.505 9   3521867.95349  24388133.397    24388139.1474
 99  4 20 16  8 30.0010000  0  5 15 27 02 26 13
  24006270.231     1701631.694 9   1171894.61549  24006268.886    24006275.5294
  21496699.526     3163224.207 9   2453510.93549  21496699.535    21496704.1754
  21550018.366     1532980.126 9   1188162.71449  21550017.713    21550022.1384
  22961718.411     1069275.206 9    830115.31849  22961718.543    22961722.9734
  24411835.327     4660977.200 9   3618928.06749  24411836.457    24411842.2364
 99  4 20 16  9  0.0010000  0  5 15 27 02 26 13
  24015328.710     1749234.200 9   1208987.47149  24015327.625    24015333.6114
  21513001.828     3248893.368 9   2520266.09849  21513001.439    21513006.6554
  21556243.575     1565693.826 9   1213653.90149  21556243.023    21556247.9744
  22966620.651     1095036.060 9    850188.69449  22966621.169    22966625.6364
  24435430.439     4784969.093 9   3715544.95649  24435431.473    24435436.6404
 99  4 20 16  9 30.0010000  0  5 15 27 02 26 13
  24024384.816     1796824.022 9   1246070.42149  24024384.475    24024390.1794
  21529277.649     3334423.433 9   2586912.87149  21529277.381    21529282.4044
  21562386.371     1597974.429 9   1238807.60649  21562385.771    21562390.3354
  22971508.662     1120722.313 9    870203.94449  22971508.775    22971513.6724
  24458920.529     4908410.321 9   3811732.77049  24458922.071    24458928.2054
 99  4 20 16 10  0.0010000  0  5 15 27 02 26 13
  24033440.589     1844411.590 9   1283151.65249  24033439.466    24033446.2194
  21545532.483     3419843.059 9   2653473.58949  21545532.368    21545537.3394
  21568449.513     1629836.222 9   1263634.96649  21568449.043    21568453.7864
  22976386.629     1146355.904 9    890178.15449  22976386.579    22976391.8584
  24482309.051     5031317.753 9   3907504.65149  24482309.390    24482315.3164
 99  4 20 16 10 30.0010000  0  6 15 09 27 02 26 13
  24042498.118     1892009.211 9   1320240.67449  24042497.875    24042503.7624
  25030193.464     -882840.110 9   -678527.95849  25030194.077    25030198.0244
  21561769.451     3505168.633 9   2719961.02249  21561769.428    21561774.2704
  21574437.775     1661304.678 9   1288155.83549  21574437.398    21574441.8504
  22981254.199     1171935.078 9    910109.95649  22981254.039    22981259.4064
  24505594.524     5153683.615 9   4002854.51049  24505596.938    24505603.0804
 99  4 20 16 11  0.0010000  0  6 15 09 27 02 26 13
  24051559.713     1939627.799 9   1357346.02249  24051558.952    24051564.2454
  25014586.557     -964855.108 9   -742435.70349  25014585.743    25014593.0934
  21577991.063     3590413.428 9   2786385.50649  21577991.287    21577995.7154
  21580354.046     1692394.594 9   1312381.73649  21580353.652    21580358.2134
  22986116.186     1197485.231 9    930019.15249  22986116.313    22986120.8064
  24528776.461     5275504.151 9   4097779.44849  24528776.681    24528784.1954
 99  4 20 16 11 30.0010000  0  6 15 09 27 02 26 13
  24060627.281     1987277.920 9   1394476.03649  24060627.344    24060632.8214
  24998893.065    -1047325.138 9   -806697.98549  24998892.057    24998898.0144
  21594198.497     3675583.533 9   2852751.79749  21594198.218    21594203.1624
  21586200.585     1723118.508 9   1336322.44449  21586200.205    21586204.8764
  22990976.842     1223027.989 9    949922.57749  22990977.088    22990981.7594
  24551856.897     5396792.080 9   4192289.35349  24551857.253    24551864.5684
 99  4 20 16 12  0.0010000  0  6 15 09 27 02 26 13
  24069703.652     2034974.197 9   1431641.94449  24069703.021    24069709.7144
  24983113.656    -1130246.038 9   -871311.60949  24983114.550    24983118.7914
  21610392.156     3760681.583 9   2919061.93049  21610392.347    21610396.9614
  21591980.490     1753491.486 9   1359989.69449  21591979.903    21591984.9094
  22995838.919     1248577.800 9    969831.50249  22995838.432    22995843.9354
  24574835.926     5517546.367 9   4286383.46149  24574836.824    24574843.2024
 99  4 20 16 12 30.0010000  0  6 15 09 27 02 26 13
  24078790.249     2082724.525 9   1468849.96349  24078788.921    24078796.1534
  24967249.009    -1213616.151 9   -936275.32149  24967249.743    24967254.0984
  21626570.564     3845699.312 9   2985309.48449  21626570.407    21626575.2164
  21597693.066     1783511.388 9   1383381.82149  21597692.479    21597697.2844
  23000703.920     1274143.571 9    989752.86049  23000704.454    23000709.2934
  24597712.918     5637764.394 9   4380059.70549  24597713.477    24597720.1114
 99  4 20 16 13  0.0010000  0  6 15 09 27 02 26 13
  24087888.937     2130538.473 9   1506107.59649  24087887.203    24087894.5224
  24951300.235    -1297427.951 9  -1001583.16449  24951299.885    24951305.6624
  21642733.784     3930637.427 9   3051494.99749  21642733.717    21642738.4584
  21603339.475     1813183.282 9   1406502.76849  21603338.830    21603343.4634
  23005575.697     1299744.690 9   1009701.75649  23005576.681    23005580.7684
  24620493.023     5757473.737 9   4473339.54749  24620492.937    24620500.6254
 99  4 20 16 13 30.0010000  0  6 15 09 27 02 26 13
  24097001.738     2178426.975 9   1543423.32549  24097001.493    24097006.7434
  24935267.860    -1381678.738 9  -1067233.12049  24935267.943    24935273.2764
  21658883.074     4015502.382 9   3117623.50749  21658882.488    21658887.4504
  21608922.464     1842522.122 9   1429364.19749  21608921.835    21608926.6874
  23010454.867     1325384.728 9   1029680.99149  23010455.413    23010459.9124
  24643181.919     5876703.692 9   4566245.84349  24643182.220    24643190.5594
 99  4 20 16 14  0.0010000  0  6 15 09 27 02 26 13
  24106130.148     2226397.001 9   1580802.56149  24106129.634    24106135.7804
  24919151.510    -1466370.309 9  -1133226.57649  24919150.921    24919156.6334
  21675017.718     4100290.569 9   3183692.19349  21675017.588    21675022.4384
  21614443.915     1871537.331 9   1451973.44049  21614443.532    21614447.9974
  23015342.147     1351067.719 9   1049693.68849  23015342.060    23015346.8964
  24665781.398     5995464.882 9   4658786.85649  24665780.695    24665788.6814
 99  4 20 16 14 30.0010000  0  6 15 09 27 02 26 13
  24115275.538     2274456.439 9   1618251.44149  24115274.923    24115280.6414
  24902954.498    -1551485.826 9  -1199550.37149  24902954.993    24902959.2274
  21691140.127     4185014.332 9   3249710.68149  21691140.006    21691145.0624
  21619904.531     1900233.031 9   1474333.72149  21619903.952    21619908.5714
  23020239.681     1376804.558 9   1069748.34649  23020240.489    23020244.4794
  24688297.064     6113784.547 9   4750983.82549  24688298.766    24688305.1604
 99  4 20 16 15  0.0010000  0  6 15 09 27 02 26 13
  24124439.701     2322614.095 9   1655776.89349  24124438.529    24124444.6834
  24886679.488    -1637012.016 9  -1266194.17449  24886680.040    24886684.0134
  21707254.099     4269693.396 9   3315694.33949  21707254.151    21707258.8234
  21625308.888     1928632.917 9   1496463.49449  21625308.371    21625313.0674
  23025148.401     1402599.776 9   1089848.49449  23025148.571    23025153.6234
  24710731.575     6231678.606 9   4842849.15149  24710732.416    24710739.9564
 99  4 20 16 15 30.0010000  0  6 15 09 27 02 26 13
  24133623.841     2370876.578 9   1693384.00449  24133623.540    24133629.7354
  24870325.959    -1722950.255 9  -1333159.08349  24870326.391    24870331.3634
  21723361.802     4354339.649 9   3381652.43049  21723361.550    21723366.7034
  21630657.669     1956740.864 9   1518365.78149  21630657.058    21630662.0044
  23030068.114     1428452.578 9   1109993.50949  23030068.495    23030072.2044
  24733083.494     6349137.899 9   4934375.70749  24733084.522    24733091.8554
 99  4 20 16 16  0.0010000  0  6 15 09 27 02 26 13
  24142828.457     2419247.223 9   1731075.40749  24142829.087    24142833.6944
  24853896.110    -1809289.380 9  -1400436.27949  24853895.636    24853900.5314
  21739464.403     4438959.293 9   3447589.78849  21739464.542    21739469.1254
  21635950.675     1984555.813 9   1540039.75849  21635950.313    21635954.8574
  23034999.628     1454367.511 9   1130186.93349  23035000.021    23035004.2254
  24755349.902     6466147.830 9   5025552.07749  24755350.887    24755357.7184
 99  4 20 16 16 30.0010000  0  6 15 09 27 02 26 13
  24152054.643     2467731.162 9   1768855.08349  24152055.350    24152059.0814
  24837393.049    -1896013.046 9  -1468013.12349  24837392.481    24837397.8144
  21755565.325     4523569.721 9   3513519.95949  21755565.316    21755569.9644
  21641187.309     2012073.910 9   1561482.42449  21641186.638    21641191.2324
  23039944.020     1480350.235 9   1150433.18249  23039944.348    23039948.9714
  24777529.049     6582699.250 9   5116371.14949  24777531.092    24777536.3864
 99  4 20 16 17  0.0010000  0  6 15 09 27 02 26 13
  24161303.935     2516335.973 9   1806728.94449  24161303.558    24161309.5054
  24820819.251    -1983107.972 9  -1535879.22949  24820819.085    24820824.4924
  21771664.951     4608173.499 9   3579444.95049  21771665.040    21771669.5644
  21646367.424     2039295.661 9   1582694.17449  21646366.812    21646371.5314
  23044900.963     1506398.672 9   1170730.65049  23044900.817    23044905.5084
  24799618.480     6698779.707 9   5206823.25449  24799619.231    24799626.3164
 99  4 20 16 17 30.0010000  0  6 15 09 27 02 26 13
  24170576.847     2565064.635 9   1844699.34349  24170576.558    24170581.0784
  24804178.475    -2070555.386 9  -1604020.01749  24804179.014    24804184.0214
  21787761.273     4692760.144 9   3645356.58749  21787761.077    21787765.8864
  21651489.985     2066214.800 9   1603670.11849  21651489.426    21651494.0364
  23049870.675     1532514.415 9   1191080.56249  23049870.627    23049875.4554
  24821617.098     6814381.920 9   5296902.71549  24821618.691    24821624.0744
 99  4 20 16 18  0.0010000  0  6 15 09 27 02 26 13
  24179874.681     2613924.897 9   1882772.24849  24179873.242    24179879.8224
  24787474.802    -2158332.935 9  -1672418.03949  24787474.249    24787480.4734
  21803855.161     4777333.699 9   3711258.02349  21803855.015    21803859.6834
  21656557.762     2092845.729 9   1624421.48249  21656557.537    21656561.8294
  23054855.790     1558711.320 9   1211493.70549  23054855.696    23054861.2124
  24843526.247     6929513.786 9   5386615.67849  24843526.924    24843534.0084
 99  4 20 16 18 30.0010000  0  6 15 09 27 02 26 13
  24189198.219     2662920.512 9   1920950.64749  24189198.047    24189202.3474
  24770707.607    -2246443.765 9  -1741075.66749  24770708.206    24770713.9154
  21819947.147     4861897.222 9   3777151.65049  21819946.975    21819951.6074
  21661571.965     2119195.008 9   1644953.38049  21661571.356    21661575.8334
  23059856.869     1584991.863 9   1231972.01549  23059857.703    23059862.1404
  24865347.609     7044185.512 9   5475970.07849  24865348.517    24865355.6204
 99  4 20 16 19  0.0010000  0  6 15 09 27 02 26 13
  24198548.783     2712057.901 9   1959239.48949  24198548.723    24198553.7444
  24753877.502    -2334888.391 9  -1809993.47849  24753878.786    24753884.1854
  21836037.508     4946452.337 9   3843038.73449  21836037.436    21836041.6634
  21666536.972     2145286.235 9   1665284.20549  21666536.129    21666540.8954
  23064874.914     1611361.596 9   1252519.82949  23064874.729    23064879.5674
  24887085.018     7158414.398 9   5564979.41249  24887086.199    24887092.8344
 99  4 20 16 19 30.0010000  0  6 15 09 27 02 26 13
  24207926.809     2761339.485 9   1997640.75349  24207926.471    24207931.2984
  24736982.042    -2423675.151 9  -1879177.92749  24736981.854    24736987.7514
  21852126.717     5031001.589 9   3908921.23749  21852126.248    21852131.1284
  21671457.083     2171141.711 9   1685431.32449  21671456.653    21671461.2694
  23069911.903     1637831.106 9   1273145.38949  23069912.322    23069916.4984
  24908740.409     7272213.400 9   5653653.76149  24908740.927    24908748.2064
 99  4 20 16 20  0.0010000  0  6 15 09 27 02 26 13
  24217335.355     2810781.373 9   2036166.89449  24217334.558    24217340.6824
  24720021.837    -2512801.171 9  -1948626.71849  24720022.115    24720027.4124
  21868220.345     5115574.109 9   3974821.86049  21868219.856    21868224.7394
  21676337.508     2196788.154 9   1705415.56349  21676336.914    21676341.3784
  23074971.684     1664420.063 9   1293864.02949  23074971.949    23074976.3754
  24930317.194     7385599.343 9   5742006.25249  24930318.370    24930325.2174
 99  4 20 16 20 30.0010000  0  6 15 09 27 02 26 13
  24226776.738     2860395.499 9   2074827.27149  24226775.862    24226782.1474
  24703001.194    -2602245.198 9  -2018323.31349  24703001.308    24703007.3254
  21884321.838     5200187.984 9   4040754.72349  21884321.559    21884326.3184
  21681179.325     2222232.154 9   1725242.05649  21681178.652    21681183.3884
  23080055.804     1691137.281 9   1314682.62049  23080056.190    23080060.6384
  24951816.868     7498579.636 9   5830042.66949  24951817.716    24951824.2164
 99  4 20 16 21  0.0010000  0  7 15 09 27 02 26 04 13
  24236250.020     2910177.763 9   2113618.66749  24236249.484    24236254.0194
  24685922.767    -2691993.396 9  -2088256.93649  24685922.761    24685928.2654
  21900428.700     5284829.519 9   4106709.13049  21900428.179    21900433.2764
  21685982.460     2247473.021 9   1744910.26849  21685981.627    21685986.4954
  23085162.979     1717974.896 9   1335595.02549  23085163.694    23085168.2434
  24940298.245    -3188438.850 9  -2286593.66949  24940296.632    24940304.8134
  24973234.787     7611130.733 9   5917744.64049  24973236.808    24973243.6954
 99  4 20 16 21 30.0010000  0  7 15 09 27 02 26 04 13
  24245755.224     2960128.456 9   2152541.26949  24245754.074    24245761.4004
  24668788.394    -2782035.328 9  -2158419.45149  24668788.723    24668793.8514
  21916541.314     5369501.663 9   4172687.38849  21916541.244    21916545.9794
  21690746.117     2272506.394 9   1764416.78549  21690745.959    21690750.4204
  23090292.613     1744931.290 9   1356599.98849  23090292.393    23090297.1964
  24921750.811    -3285904.842 9  -2362540.92849  24921749.102    24921759.4584
  24994568.675     7723239.800 9   6005102.16949  24994569.380    24994575.1024
 99  4 20 16 22  0.0010000  0  7 15 09 27 02 26 04 13
  24255291.728     3010243.575 9   2191591.98749  24255290.862    24255296.9584
  24651602.138    -2872349.362 9  -2228793.98249  24651602.191    24651607.7334
  21932658.996     5454200.704 9   4238686.60849  21932659.076    21932663.6054
  21695467.947     2297318.882 9   1783751.18749  21695467.091    21695471.9374
  23095442.120     1771992.221 9   1377686.40749  23095441.778    23095446.5074
  24903120.890    -3383804.758 9  -2438826.33749  24903119.459    24903128.0414
  25015816.251     7834896.730 9   6092107.39649  25015816.151    25015825.1664
 99  4 20 16 22 30.0010000  0  7 15 09 27 02 26 04 13
  24264859.191     3060520.715 9   2230769.00849  24264858.888    24264863.7904
  24634364.870    -2962931.927 9  -2299377.75349  24634364.454    24634369.8424
  21948778.805     5538910.803 9   4304694.44249  21948778.317    21948783.4214
  21700147.457     2321909.856 9   1802912.98149  21700146.761    21700151.5174
  23100611.331     1799156.624 9   1398853.45849  23100611.459    23100616.5744
  24884407.734    -3482142.547 9  -2515452.93349  24884407.163    24884416.8544
  25036979.920     7946111.474 9   6178768.03149  25036981.259    25036985.4584
 99  4 20 16 23  0.0010000  0  7 15 09 27 02 26 04 13
  24274457.385     3110959.669 9   2270072.11549  24274457.043    24274462.5154
  24617074.303    -3053794.715 9  -2370179.87649  24617074.164    24617079.5504
  21964900.210     5623628.976 9   4370708.56749  21964899.836    21964904.8784
  21704788.086     2346296.850 9   1821915.82949  21704787.368    21704791.9204
  23105799.643     1826421.027 9   1420098.41649  23105800.477    23105804.2864
  24865609.906    -3580925.304 9  -2592426.27449  24865608.707    24865617.5514
  25058062.947     8056902.683 9   6265098.64149  25058062.514    25058069.5414
 99  4 20 16 23 30.0010000  0  7 15 09 27 02 26 04 13
  24284086.873     3161563.167 9   2309503.42449  24284087.126    24284091.6824
  24599731.458    -3144932.223 9  -2441196.10249  24599731.051    24599736.0724
  21981024.870     5708364.330 9   4436736.08349  21981024.413    21981029.4474
  21709391.307     2370486.967 9   1840765.26849  21709390.622    21709395.3894
  23111009.192     1853796.857 9   1441430.21049  23111009.881    23111014.2734
  24846727.138    -3680152.777 9  -2669746.12349  24846726.249    24846734.4164
  25079070.806     8167298.621 9   6351121.23549  25079072.569    25079079.4694
 99  4 20 16 24  0.0010000  0  7 15 09 27 02 26 04 13
  24293749.255     3212338.939 9   2349068.96149  24293749.197    24293753.8544
  24582337.175    -3236339.334 9  -2512422.41049  24582336.433    24582341.6564
  21997154.095     5793123.940 9   4502782.49149  21997153.757    21997158.7034
  21713958.156     2394485.806 9   1859465.65349  21713957.840    21713962.2484
  23116240.951     1881290.181 9   1462853.55549  23116240.899    23116245.7634
  24827761.896    -3779814.733 9  -2747404.58349  24827762.278    24827770.3884
  25100006.193     8277314.020 9   6436847.32049  25100007.496    25100013.5664
 99  4 20 16 24 30.0010000  0  7 15 09 27 02 26 04 13
  24303443.863     3263284.493 9   2388766.74349  24303442.237    24303448.3684
  24564889.078    -3328029.286 9  -2583869.12049  24564887.642    24564891.7004
  22013288.687     5877911.419 9   4568850.62149  22013288.228    22013293.2804
  21718486.531     2418282.517 9   1878008.53949  21718485.875    21718490.7374
  23121496.776     1908910.088 9   1484375.53849  23121496.801    23121501.4504
  24808712.595    -3879918.138 9  -2825407.02649  24808711.127    24808720.2494
  25120866.962     8386937.647 9   6522268.11549  25120865.077    25120876.0934
 99  4 20 16 25  0.0010000  0  7 15 09 27 02 26 04 13
  24313171.417     3314402.842 9   2428599.17849  24313170.173    24313176.8344
  24547390.716    -3419984.093 9  -2655522.21549  24547390.495    24547394.9804
  22029428.064     5962724.100 9   4634938.38149  22029427.884    22029432.6254
  21722975.033     2441869.543 9   1896388.03349  21722974.428    21722979.1914
  23126777.552     1936660.725 9   1505999.39149  23126777.975    23126782.6254
  24789581.779    -3980449.589 9  -2903743.03149  24789581.670    24789589.4784
  25141646.930     8496136.916 9   6607358.25749  25141647.799    25141656.4714
 99  4 20 16 25 30.0010000  0  7 15 09 27 02 26 04 13
  24322932.784     3365698.809 9   2468570.05349  24322932.494    24322937.8744
  24529844.037    -3512192.521 9  -2727372.91449  24529843.433    24529847.2614
  22045572.353     6047562.645 9   4701046.30449  22045572.458    22045577.2354
  21727419.577     2465225.436 9   1914587.42649  21727418.791    21727423.4494
  23132085.836     1964555.725 9   1527735.74149  23132086.160    23132090.9794
  24770374.333    -4081384.251 9  -2982393.21949  24770374.567    24770382.3904
  25162341.353     8604885.879 9   6692097.52149  25162340.374    25162350.4954
 99  4 20 16 26  0.0010000  0  7 15 09 27 02 26 04 13
  24332728.682     3417176.078 9   2508682.17949  24332728.573    24332733.8574
  24512249.052    -3604654.504 9  -2799421.19249  24512246.365    24512255.7774
  22061722.924     6132434.664 9   4767180.31049  22061722.757    22061727.9194
  21731819.742     2488348.596 9   1932605.46849  21731819.325    21731823.9724
  23137422.094     1992598.196 9   1549586.99849  23137422.196    23137427.0964
  24751095.436    -4182694.076 9  -3061335.74949  24751095.783    24751104.2974
  25182946.245     8713164.794 9   6776470.54849  25182946.999    25182954.7144
 99  4 20 16 26 30.0010000  0  7 15 09 27 02 26 04 13
  24342560.077     3468840.541 9   2548940.21449  24342559.097    24342564.5274
  24494608.239    -3697356.936 9  -2871656.79749  24494608.136    24494613.0844
  22077881.267     6217346.942 9   4833345.67949  22077881.361    22077885.8314
  21736177.943     2511250.154 9   1950450.82949  21736177.378    21736181.9194
  23142788.091     2020796.739 9   1571559.87649  23142788.661    23142793.0494
  24731748.289    -4284363.078 9  -3140558.16549  24731748.047    24731757.5914
  25203460.747     8820968.121 9   6860472.94549  25203461.647    25203469.1244
 99  4 20 16 27  0.0010000  0  7 15 09 27 02 26 04 13
  24352427.602     3520695.340 9   2589346.55449  24352426.616    24352434.5224
  24476924.017    -3790287.650 9  -2944070.30049  24476924.548    24476929.4214
  22094049.416     6302311.231 9   4899551.58149  22094049.318    22094054.0714
  21740498.535     2533955.279 9   1968143.13349  21740497.867    21740502.5854
  23148183.568     2049149.704 9   1593653.06449  23148183.606    23148188.5284
  24712334.223    -4386383.723 9  -3220054.56049  24712332.678    24712342.9874
  25223888.421     8928315.571 9   6944120.13149  25223888.905    25223897.5124
 99  4 20 16 27 30.0010000  0  7 15 09 27 02 26 04 13
  24362352.069     3572848.751 9   2629985.56449  24362351.635    24362356.9724
  24459215.638    -3883345.925 9  -3016583.20049  24459214.758    24459221.0754
  22110255.043     6387472.274 9   4965910.79449  22110254.959    22110259.9944
  21744805.415     2556588.465 9   1985779.37149  21744805.105    21744809.4284
  23153627.366     2077756.840 9   1615944.31349  23153628.137    23153632.7624
  24692873.572    -4488648.594 9  -3299741.27149  24692873.300    24692883.0144
  25244258.039     9035357.648 9   7027529.34049  25244258.783    25244267.7514
 99  4 20 16 28  0.0010000  0  7 15 09 27 02 26 04 13
  24372314.852     3625202.786 9   2670780.87049  24372313.738    24372319.8514
  24441464.864    -3976627.135 9  -3089269.80849  24441464.556    24441469.3544
  22126481.399     6472741.991 9   5032354.67949  22126481.436    22126485.9474
  21749084.337     2579074.652 9   2003301.07949  21749083.503    21749088.3384
  23159100.077     2106515.900 9   1638353.94249  23159099.979    23159105.0404
  24673345.454    -4591269.452 9  -3379705.37649  24673344.999    24673353.9264
  25264554.570     9142015.916 9   7110639.49549  25264556.172    25264563.1194
 99  4 20 16 28 30.0010000  0  7 15 09 27 02 26 04 13
  24382315.246     3677755.425 9   2711730.93949  24382314.755    24382320.5724
  24423672.627    -4070127.047 9  -3162126.86849  24423673.463    24423677.8344
  22142727.053     6558113.276 9   5098877.70749  22142726.739    22142731.9564
  21753337.545     2601425.642 9   2020717.42649  21753337.168    21753341.5124
  23164601.197     2135424.280 9   1660879.91749  23164601.350    23164606.4044
  24653747.553    -4694257.513 9  -3459955.61849  24653748.075    24653757.3124
  25284780.646     9248303.337 9   7193460.69549  25284782.659    25284789.0534
 99  4 20 16 29  0.0010000  0  7 15 09 27 02 26 04 13
  24392354.735     3730513.687 9   2752841.21449  24392353.605    24392359.0024
  24405840.047    -4163838.359 9  -3235148.63249  24405840.068    24405845.4254
  22158991.782     6643584.775 9   5165478.81349  22158991.949    22158996.6384
  21757566.792     2623649.701 9   2038034.87649  21757566.190    21757570.9164
  23170131.975     2164488.445 9   1683527.29049  23170132.341    23170137.3224
  24634081.620    -4797603.259 9  -3540484.60749  24634081.240    24634088.8144
  25304937.566     9354228.038 9   7275999.24449  25304937.796    25304945.1494
 99  4 20 16 29 30.0010000  0  6 15 09 27 02 26 04
  24402432.003     3783470.335 9   2794106.10649  24402431.788    24402437.6644
  24387966.326    -4257766.092 9  -3308339.03149  24387966.202    24387971.4134
  22175270.068     6729127.233 9   5232135.22649  22175269.870    22175275.0334
  21761767.408     2645724.320 9   2055235.87749  21761766.702    21761771.4474
  23175690.853     2193700.181 9   1706289.65849  23175691.243    23175695.9934
  24614348.608    -4901300.413 9  -3621287.40949  24614347.822    24614356.6444
 99  4 20 16 30  0.0010000  0  6 15 09 27 02 26 04
  24412548.666     3836633.086 9   2835531.59549  24412548.135    24412554.2604
  24370054.847    -4351891.859 9  -3381683.75449  24370054.832    24370059.0384
  22191556.190     6814710.805 9   5298823.65449  22191556.125    22191560.7304
  21765939.652     2667649.604 9   2072320.50349  21765939.514    21765943.8724
  23181280.340     2223072.851 9   1729177.41749  23181280.364    23181284.7644
  24594550.773    -5005337.907 9  -3702355.43949  24594551.986    24594559.0834
 99  4 20 16 30 30.0010000  0  6 15 09 27 02 26 04
  24422706.665     3890013.644 9   2877126.78349  24422705.793    24422711.9004
  24352109.281    -4446196.901 9  -3455168.18049  24352109.256    24352114.0784
  22207850.024     6900335.303 9   5365543.98049  22207849.726    22207855.3154
  21770083.000     2689423.154 9   2089286.90649  21770082.406    21770087.3754
  23186900.711     2252607.731 9   1752191.59249  23186900.933    23186905.3484
  24574692.938    -5109690.771 9  -3783669.21249  24574692.205    24574700.2544
 99  4 20 16 31  0.0010000  0  6 15 09 27 02 26 04
  24432903.956     3943600.194 9   2918882.51049  24432903.773    24432908.8884
  24334128.014    -4540689.348 9  -3528798.60649  24334127.584    24334131.6714
  22224149.939     6985991.814 9   5432289.24349  22224149.382    22224154.8254
  21774192.734     2711019.374 9   2106115.12249  21774192.350    21774196.6064
  23192549.944     2282294.205 9   1775323.87149  23192549.892    23192555.3224
  24554773.492    -5214367.185 9  -3865235.13049  24554773.844    24554781.0104
 99  4 20 16 31 30.0010000  0  6 15 09 27 02 26 04
  24443147.579     3997430.023 9   2960827.80149  24443146.722    24443152.6124
  24316119.873    -4635322.730 9  -3602538.85249  24316119.411    24316124.7744
  22240465.100     7071728.312 9   5499096.84049  22240465.166    22240469.8404
  21778277.100     2732482.729 9   2122839.80349  21778276.363    21778281.2254
  23198236.228     2312175.270 9   1798607.78149  23198236.415    23198241.0364
  24534800.332    -5319325.769 9  -3947020.89949  24534799.722    24534807.9804
 99  4 20 16 32  0.0010000  0  6 15 09 27 02 26 04
  24453430.455     4051466.272 9   3002933.94749  24453429.723    24453435.2414
  24298077.953    -4730133.305 9  -3676417.17749  24298077.151    24298082.9494
  22256790.963     7157521.006 9   5565948.21949  22256790.784    22256795.6124
  21782332.223     2753792.382 9   2139444.72349  21782331.416    21782336.1014
  23203952.273     2342212.931 9   1822013.72149  23203952.198    23203958.0754
  24514762.343    -5424625.393 9  -4029072.41149  24514761.714    24514770.2544
 99  4 20 16 32 30.0010000  0  6 15 09 27 02 26 04
  24463758.820     4105741.874 9   3045226.59249  24463757.783    24463763.8894
  24280008.109    -4825090.415 9  -3750409.68249  24280007.551    24280012.5164
  22273137.043     7243420.253 9   5632882.61249  22273136.578    22273142.0784
  21786366.650     2774993.888 9   2155965.37649  21786366.173    21786370.6434
  23209705.870     2372448.161 9   1845573.60349  23209706.055    23209710.4274
  24494665.899    -5530232.027 9  -4111363.15549  24494665.786    24494673.9584
 99  4 20 16 33  0.0010000  0  6 15 09 27 02 26 04
  24474127.168     4160227.927 9   3087683.22549  24474127.664    24474131.8694
  24261905.284    -4920220.911 9  -3824537.30049  24261905.662    24261910.0284
  22289498.519     7329400.490 9   5699880.11249  22289498.381    22289503.7854
  21790379.184     2796079.817 9   2172395.96449  21790378.685    21790383.6794
  23215494.059     2402865.268 9   1869275.20849  23215494.298    23215499.3074
  24474505.383    -5636175.953 9  -4193916.70649  24474504.803    24474513.1134
 99  4 20 16 33 30.0010000  0  6 15 09 27 02 26 04
  24484541.123     4214953.162 9   3130326.23149  24484540.565    24484544.8804
  24243775.465    -5015493.316 9  -3898775.52549  24243775.414    24243779.6334
  22305879.941     7415485.120 9   5766958.95649  22305880.240    22305884.6344
  21794377.656     2817091.518 9   2188768.70949  21794377.197    21794382.0054
  23221321.223     2433487.144 9   1893136.37649  23221321.574    23221326.2894
  24454287.444    -5742421.947 9  -4276705.64649  24454287.909    24454295.7224
 99  4 20 16 34  0.0010000  0  6 15 09 27 02 26 04
  24494995.682     4269891.859 9   3173135.58649  24494993.429    24495000.6494
  24225613.286    -5110936.192 9  -3973146.58449  24225612.787    24225618.0114
  22322274.572     7501638.417 9   5834091.32549  22322274.301    22322279.4594
  21798355.682     2837995.928 9   2205057.85449  21798354.903    21798359.7434
  23227182.240     2464287.134 9   1917136.32949  23227182.036    23227187.5384
  24434010.183    -5848979.394 9  -4359737.28249  24434010.666    24434018.4444
 99  4 20 16 34 30.0010000  0  6 15 09 27 02 26 04
  24505496.796     4325075.372 9   3216135.69549  24505499.386    24505499.2884
  24207426.277    -5206509.429 9  -4047619.23249  24207425.548    24207429.6374
  22338686.678     7587884.385 9   5901295.88949  22338686.349    22338691.7234
  21802316.973     2858812.884 9   2221278.84249  21802316.480    21802321.1824
  23233084.582     2495304.430 9   1941305.61149  23233084.500    23233089.7144
  24413686.480    -5955781.080 9  -4442959.23949  24413686.417    24413694.3004
 99  4 20 16 35  0.0010000  0  6 15 09 27 02 26 04
  24516039.017     4380475.740 9   3259304.83949  24516037.001    24516043.9904
  24189211.887    -5302226.486 9  -4122203.94049  24189211.897    24189216.2674
  22355109.661     7674187.154 9   5968544.70649  22355109.400    22355114.4794
  21806255.493     2879510.015 9   2237406.46449  21806254.854    21806259.4614
  23239021.306     2526501.404 9   1965614.89349  23239021.830    23239026.9914
  24393314.139    -6062838.338 9  -4526380.33649  24393313.630    24393321.8064
 99  4 20 16 35 30.0010000  0  6 15 09 27 02 26 04
  24526629.970     4436131.237 9                  24526629.927    24526632.6004
  24170978.017    -5398045.698 9  -4196868.22649  24170977.620    24170981.8284
  22371551.958     7760591.379 9   6035872.58749  22371551.787    22371557.2204
  21810176.402     2900114.161 9   2253461.63749  21810175.809    21810180.6604
  23244998.384     2557910.717 9   1990089.63949  23244998.612    23245003.0144
  24372902.676    -6170100.444 9  -4609961.05249  24372902.890    24372910.9204
 99  4 20 16 36  0.0010000  0  6 15 09 27 02 26 04
  24537265.610     4492021.462 9                  24537264.315    24537274.3954
  24152722.298    -5493980.084 9  -4271622.27549  24152721.549    24152726.8734
  22388010.383     7847080.397 9   6103266.53249  22388010.213    22388015.1244
  21814074.961     2920601.087 9   2269425.46449  21814074.281    21814078.9924
  23251010.501     2589504.679 9   2014708.26949  23251011.070    23251015.7044
  24352447.287    -6277593.885 9  -4693722.02449  24352446.462    24352456.0284
 99  4 20 16 36 30.0010000  0  6 15 09 27 02 26 04
  24547946.093     4548147.537 9                  24547947.300    24547954.5924
  24134448.057    -5590011.842 9  -4346452.16849  24134447.730    24134452.6804
  22404486.645     7933663.138 9   6170733.50649  22404486.597    22404491.2884
  21817953.374     2940981.920 9   2285306.62249  21817952.816    21817957.5454
  23257055.927     2621273.505 9   2039463.14549  23257056.085    23257061.7714
  24331944.921    -6385333.309 9  -4777674.66449  24331944.495    24331952.3664
 99  4 20 16 37  0.0010000  0  6 15 09 27 02 26 04
  24558670.368     4604503.874 9                  24558663.321    24558681.9104
  24116154.271    -5686146.771 9  -4421362.49149  24116154.034    24116158.8174
  22420981.376     8020343.391 9   6238276.46849  22420981.178    22420986.6474
  21821812.603     2961262.010 9   2301109.27649  21821812.014    21821817.0924
  23263131.262     2653199.178 9   2064340.24749  23263131.139    23263136.5364
  24311391.620    -6493340.872 9  -4861836.27149  24311391.654    24311400.0774
 99  4 20 16 37 30.0010000  0  6 15 09 27 02 26 04
  24569439.330                                    24569442.119    24569436.7984
  24097841.118    -5782383.565 9  -4496352.19749  24097839.863    24097846.2954
  22437498.265     8107140.118 9   6305910.17949  22437498.183    22437503.4784
  21825653.571     2981446.663 9   2316837.56149  21825653.165    21825657.8864
  23269237.263     2685286.267 9   2089343.12349  23269237.462    23269242.5444
  24290788.154    -6601612.783 9  -4946203.85149  24290788.747    24290795.3604
 99  4 20 16 38  0.0010000  0  6 15 09 27 02 26 04
  24580253.118                                    24580251.256    24580238.0504
  24079510.762    -5878709.896 9  -4571411.65449  24079509.982    24079514.4984
  22454037.204     8194052.274 9   6373633.82849  22454037.074    22454042.1314
  21829478.710     3001547.252 9   2332500.34949  21829477.947    21829482.5894
  23275374.794     2717538.801 9   2114474.92449  23275375.203    23275379.9294
  24270133.079    -6710155.794 9  -5030782.66349  24270133.496    24270139.9294
 99  4 20 16 38 30.0010000  0  6 15 09 27 02 26 04
  24591112.218                                    24591110.339    24591158.0114
  24061163.527    -5975125.493 9  -4646540.67849  24061163.643    24061168.1694
  22470599.394     8281087.049 9   6441453.03849  22470598.868    22470605.2954
  21833290.425     3021577.958 9   2348108.67849  21833289.658    21833294.1924
  23281547.751     2749977.457 9   2139751.75049  23281548.080    23281553.1014
  24249430.874    -6818946.668 9  -5115554.61949  24249431.058    24249437.9764
 99  4 20 16 39  0.0010000  0  6 15 09 27 02 26 04
  24602017.219                                    24602015.199    24602056.3784
  24042795.975    -6071647.457 9  -4721752.57549  24042795.509    24042800.7344
  22487184.084     8368239.776 9   6509364.13249  22487184.376    22487189.1384
  21837090.223     3041546.527 9   2363668.59049  21837089.587    21837094.2534
  23287758.335     2782614.368 9   2165183.05249  23287758.760    23287763.5344
  24228687.195    -6927955.501 9  -5200496.40649  24228686.919    24228694.6934
 99  4 20 16 39 30.0010000  0  6 15 09 27 02 26 04
  24612968.256                                    24612966.468    24612967.9284
  24024408.952    -6168271.566 9  -4797044.06049  24024409.028    24024413.0314
  22503789.556     8455501.869 9   6577360.46849  22503789.671    22503795.2444
  21840877.866     3061450.700 9   2379178.31649  21840877.555    21840881.9764
  23294008.332     2815458.396 9   2190775.75849  23294008.863    23294014.0984
  24207904.569    -7037168.496 9  -5285597.28249  24207904.077    24207911.1294
 99  4 20 16 40  0.0010000  0  6 15 09 27 02 26 04
  24623966.754                                    24623964.744    24623975.6654
  24006003.207    -6264993.901 9  -4872412.07949  24006003.480    24006007.4594
  22520412.729     8542856.423 9   6645428.86149  22520412.773    22520417.7114
  21844654.720     3081297.434 9   2394643.28949  21844654.011    21844658.8304
  23300300.226     2848522.158 9   2216539.69249  23300300.817    23300305.4484
  24187084.505    -7146577.645 9  -5370850.99149  24187084.540    24187091.8464
 99  4 20 16 40 30.0010000  0  6 15 09 27 02 26 04
  24635013.478                                    24635011.436    24635022.6404
  23987578.535    -6361816.003 9  -4947857.83649  23987578.055    23987582.9444
  22537053.049     8630301.356 9   6713567.65049  22537052.723    22537058.1164
  21848421.327     3101091.198 9   2410066.98349  21848420.813    21848425.4904
  23306635.159     2881811.904 9   2242479.70449  23306635.552    23306640.7424
  24166231.292    -7256160.916 9  -5456240.39349  24166230.317    24166238.9214
 99  4 20 16 41  0.0010000  0  5 09 27 02 26 04
  23969138.308    -6458719.550 9  -5023367.06149  23969138.781    23969143.5724
  22553709.996     8717833.585 9   6781774.44249  22553709.822    22553715.6994
  21852177.414     3120829.819 9   2425447.70449  21852176.673    21852181.7324
  23313012.111     2915322.988 9   2268592.18049  23313012.257    23313017.0164
  24145346.083    -7365911.742 9  -5541760.36349  24145345.395    24145354.0004
 99  4 20 16 41 30.0010000  0  5 09 27 02 26 04
  23950687.924    -6555676.940 9  -5098918.25149  23950688.054    23950692.3994
  22570385.659     8805464.579 9   6850058.21349  22570385.897    22570391.3254
  21855922.520     3140510.570 9   2440783.32949  21855921.950    21855926.7694
  23319430.907     2949053.738 9   2294875.84149  23319430.904    23319435.9994
  24124426.970    -7475840.230 9  -5627418.78049  24124426.657    24124434.7704
 99  4 20 16 42  0.0010000  0  5 09 27 02 26 04
  23932231.642    -6652665.616 9  -5174493.79849  23932231.331    23932236.6964
  22587083.824     8893213.284 9   6918433.71849  22587083.557    22587088.7324
  21859662.259     3160163.078 9   2456096.96449  21859661.531    21859666.3644
  23325892.550     2983009.748 9   2321335.00449  23325893.410    23325897.5804
  24103478.019    -7585926.890 9  -5713200.46149  24103477.580    24103486.3874
 99  4 20 16 42 30.0010000  0  5 09 27 02 26 04
  23913772.951    -6749666.543 9  -5250078.90449  23913773.469    23913777.7144
  22603807.695     8981097.466 9   6986914.78249  22603807.750    22603813.8094
  21863399.446     3179802.220 9   2471400.16949  21863398.954    21863403.8284
  23332394.720     3017178.541 9   2347959.98949  23332394.889    23332400.2904
  24082500.948    -7696162.209 9  -5799097.96949  24082500.952    24082508.6854
 99  4 20 16 43  0.0010000  0  5 09 27 02 26 04
  23895314.912    -6846664.294 9  -5325661.54749  23895315.158    23895320.3364
  22620558.446     9069122.924 9   7055505.93249  22620558.653    22620564.4444
  21867133.999     3199427.315 9   2486692.43049  21867133.498    21867138.4954
  23338937.032     3051557.997 9   2374749.12449  23338937.620    23338942.2524
  24061497.840    -7806534.613 9  -5885102.29849  24061497.072    24061505.7324
 99  4 20 16 43 30.0010000  0  5 09 27 02 26 04
  23876858.179    -6943655.428 9  -5401239.01449  23876857.955    23876862.6734
  22637337.127     9157295.079 9   7124211.41549  22637337.437    22637343.0074
  21870867.013     3219044.524 9   2501978.54449  21870866.364    21870871.2684
  23345520.628     3086155.134 9   2401707.87349  23345520.492    23345525.6004
  24040470.163    -7917035.851 9  -5971207.02349  24040469.929    24040477.3034
 99  4 20 16 44  0.0010000  0  5 09 27 02 26 04
  23858401.663    -7040645.361 9  -5476815.57149  23858402.282    23858406.7224
  22654139.426     9245591.332 9   7193013.58649  22654139.516    22654144.9584
  21874596.837     3238644.831 9   2517251.48549  21874596.382    21874601.2724
  23352144.864     3120965.504 9   2428832.77949  23352145.156    23352150.3004
  24019418.712    -8027660.753 9  -6057408.11549  24019418.503    24019426.4334
 99  4 20 16 44 30.0010000  0  5 09 27 02 26 04
  23839944.900    -7137636.354 9  -5552392.94749  23839944.780    23839950.0854
  22670965.169     9334010.376 9   7261911.43149  22670965.247    22670970.8644
  21878320.413     3258212.025 9   2532498.62349  21878320.224    21878324.9934
  23358813.613     3156009.702 9   2456139.88149  23358813.650    23358819.1324
  23998345.048    -8138402.116 9  -6143699.95849  23998345.551    23998353.1594
 99  4 20 16 45  0.0010000  0  5 09 27 02 26 04
  23821486.261    -7234636.962 9  -5627977.81249  23821486.378    23821491.1104
  22687813.675     9422549.601 9   7330902.89049  22687814.063    22687819.5854
  21882035.830     3277736.192 9   2547712.24149  21882035.402    21882039.9554
  23365530.620     3191307.189 9   2483644.35349  23365530.620    23365536.2414
  23977249.436    -8249260.089 9  -6230082.67949  23977249.456    23977256.3124
 99  4 20 16 45 30.0010000  0  5 09 27 02 26 04
  23803025.512    -7331648.867 9  -5703571.48749  23803025.518    23803030.0514
  22704688.888     9511228.591 9   7400003.27649  22704688.841    22704694.1034
  21885745.789     3297231.936 9   2562903.71249  21885745.454    21885749.9944
  23372295.141     3226854.608 9   2511343.58049  23372295.317    23372300.7314
  23956129.522    -8360245.779 9  -6316564.91549  23956128.927    23956137.8214
 99  4 20 16 46  0.0010000  0  5 09 27 02 26 04
  23784563.271    -7428669.048 9  -5779171.61649  23784563.130    23784567.6004
  22721592.903     9600059.241 9   7469221.85349  22721593.028    22721599.0354
  21889454.148     3316719.585 9   2578088.87449  21889453.677    21889458.1624
  23379108.769     3262660.066 9   2539243.88449  23379109.629    23379114.1654
  23934985.816    -8471356.103 9  -6403144.26649  23934986.184    23934993.1714
 99  4 20 16 46 30.0010000  0  5 09 27 02 26 04
  23766100.891    -7525689.287 9  -5854771.78649  23766101.161    23766106.1534
  22738529.859     9689062.917 9   7538575.27549  22738529.653    22738535.5234
  21893162.921     3336209.122 9   2593275.50949  21893162.559    21893167.2634
  23385971.615     3298725.044 9   2567346.39449  23385972.418    23385976.9484
  23913820.053    -8582582.971 9  -6489814.44549  23913819.697    23913827.3614
 99  4 20 16 47  0.0010000  0  5 09 27 02 26 04
  23747641.702    -7622692.819 9  -5930358.91849  23747641.170    23747646.5094
  22755500.759     9778245.364 9   7608067.99049  22755500.335    22755506.7494
  21896874.358     3355712.550 9   2608472.97049  21896873.870    21896878.5174
  23392880.704     3335031.666 9   2595637.20449  23392881.495    23392885.9264
  23892633.369    -8693919.617 9  -6576570.15449  23892632.884    23892641.0734
 99  4 20 16 47 30.0010000  0  5 09 27 02 26 04
  23729188.218    -7719665.721 9  -6005922.19149  23729187.116    23729193.1384
  22772504.411     9867599.409 9   7677694.41849  22772504.353    22772509.5944
  21900590.137     3375238.783 9   2623688.19949  21900589.617    21900594.4264
  23399834.812     3371575.010 9   2624112.48149  23399834.941    23399840.4644
  23871428.447    -8805351.504 9  -6663400.08949  23871427.754    23871435.2904
 99  4 20 16 48  0.0010000  0  5 09 27 02 26 04
  23710743.968    -7816590.132 9  -6081447.67849  23710743.284    23710748.7024
  22789537.121     9957106.258 9   7747439.91949  22789536.852    22789543.3824
  21904309.007     3394781.379 9   2638916.18449  21904308.273    21904313.0424
  23406836.609     3408369.794 9   2652783.66949  23406836.924    23406841.7774
  23850210.025    -8916855.160 9  -6750285.93849  23850210.183    23850216.9454
 99  4 20 16 48 30.0010000  0  5 09 27 02 26 04
  23692311.426    -7913452.986 9  -6156925.21549  23692311.504    23692316.2184
  22806597.265    10046757.796 9   7817298.14049  22806597.261    22806602.8524
  21908027.542     3414322.499 9   2654143.01949  21908026.929    21908031.6974
  23413884.202     3445404.760 9   2681642.02949  23413884.175    23413889.6874
  23828979.224    -9028423.393 9  -6837222.09649  23828979.001    23828986.3534
 99  4 20 16 49  0.0010000  0  5 09 27 02 26 04
  23673889.468    -8010261.110 9  -6232360.07749  23673889.138    23673894.6284
  22823684.625    10136552.117 9   7887267.60549  22823684.982    22823690.4014
  21911748.448     3433876.159 9   2669379.61949  21911748.102    21911752.5894
  23420979.140     3482688.470 9   2710694.20149  23420978.854    23420984.6364
  23807737.215    -9140050.711 9  -6924204.30049  23807736.607    23807744.2214
 99  4 20 16 49 30.0010000  0  5 09 27 02 26 04
  23655478.450    -8107011.897 9  -6307750.28149  23655477.983    23655482.6904
  22840798.993    10226488.226 9   7957347.55049  22840798.784    22840805.7154
  21915474.099     3453454.047 9   2684635.09349  21915473.773    21915478.3684
  23428123.233     3520230.689 9   2739947.80749  23428124.317    23428128.4454
  23786484.860    -9251733.101 9  -7011229.41749  23786485.669    23786492.2724
 99  4 20 16 50  0.0010000  0  5 09 27 02 26 04
  23637077.858    -8203707.520 9  -6383097.48049  23637077.832    23637081.8254
  22857942.998    10316579.473 9   8027548.40349  22857943.135    22857948.7684
  21919204.507     3473057.248 9   2699910.30349  21919204.061    21919208.6224
  23435313.318     3558014.942 9   2769390.03049  23435313.850    23435318.8074
  23765222.030    -9363469.753 9  -7098296.81749  23765221.420    23765228.7704
 99  4 20 16 50 30.0010000  0  5 09 27 02 26 04
  23618686.428    -8300355.562 9  -6458407.62649  23618686.074    23618690.7154
  22875118.757    10406837.967 9   8097879.54949  22875119.055    22875124.5824
  21922942.899     3492702.872 9   2715218.56849  21922941.753    21922946.7414
  23442549.360     3596040.194 9   2799020.04449  23442548.681    23442554.7224
  23743949.209    -9475258.650 9  -7185404.92749  23743949.166    23743955.8504
 99  4 20 16 51  0.0010000  0  5 09 27 02 26 04
  23600304.410    -8396953.726 9  -6533678.88049  23600304.359    23600308.5964
  22892324.219    10497252.966 9   8168332.66949  22892324.174    22892330.2704
  21926692.056     3512405.338 9   2730571.13149  21926691.527    21926696.4074
  23449831.789     3634309.033 9   2828839.84849  23449831.420    23449836.8444
  23722668.514    -9587088.951 9  -7272545.29549  23722668.518    23722675.8644
 99  4 20 16 51 30.0010000  0  5 09 27 02 26 04
  23581935.990    -8493480.266 9  -6608894.33449  23581935.176    23581940.8274
  22909558.691    10587820.390 9   8238904.56549  22909558.253    22909565.6014
  21930452.805     3532168.072 9   2745970.64349  21930452.813    21930456.8434
  23457158.893     3672813.728 9   2858843.43449  23457159.337    23457164.5354
  23701382.373    -9698947.737 9  -7359707.85249  23701381.695    23701390.0764
 99  4 20 16 52  0.0010000  0  5 09 27 02 26 04
  23563580.554    -8589938.925 9  -6684056.89849  23563580.772    23563585.4514
  22926821.369    10678536.530 9   8309592.35049  22926820.482    22926828.0724
  21934224.963     3551990.337 9   2761416.55049  21934224.412    21934229.0744
  23464529.362     3711545.604 9   2889024.06549  23464529.524    23464534.1514
  23680091.426    -9810831.736 9  -7446890.07149  23680091.394    23680098.1524
 99  4 20 16 52 30.0010000  0  5 09 27 02 26 04
  23545240.695    -8686315.954 9  -6759155.84949  23545240.369    23545246.0254
  22944109.742    10769387.083 9   8380384.87249  22944109.454    22944115.6934
  21938010.603     3571884.011 9   2776918.09649  21938009.892    21938014.5224
  23471946.895     3750524.201 9   2919396.93349  23471947.379    23471952.4404
  23658796.435    -9922736.953 9  -7534088.82649  23658796.176    23658803.1894
 99  4 20 16 53  0.0010000  0  5 09 27 02 26 04
  23526919.332    -8782594.975 9  -6834178.43649  23526920.142    23526923.6734
  22961422.821    10860367.124 9   8451278.29549  22961422.708    22961428.7054
  21941807.450     3591836.969 9   2792465.84349  21941807.093    21941811.7864
  23479411.028     3789748.339 9   2949961.14649  23479411.012    23479416.5094
  23637497.130   -10034664.387 9  -7621304.88349  23637497.151    23637504.1444
 99  4 20 16 53 30.0010000  0  5 09 27 02 26 04
  23508617.068    -8878774.427 9  -6909123.44749  23508616.314    23508622.0724
  22978765.073    10951500.391 9   8522291.11049  22978764.862    22978771.4674
  21945614.217     3611841.026 9   2808053.40249  21945613.738    21945618.4554
  23486921.560     3829216.439 9   2980715.43849  23486922.822    23486927.7974
  23616192.649   -10146619.796 9  -7708542.73949  23616192.880    23616199.3844
 99  4 20 16 54  0.0010000  0  5 09 27 02 26 04
  23490335.957    -8974842.123 9  -6983981.36549  23490335.599    23490340.6344
  22996138.199    11042796.435 9   8593430.76149  22996138.615    22996144.7564
  21949429.783     3631891.692 9   2823677.28049  21949429.316    21949433.8624
  23494480.574     3868938.365 9   3011667.53549  23494480.829    23494485.6334
  23594884.380   -10258595.659 9  -7795796.52749  23594884.262    23594890.6944
 99  4 20 16 54 30.0010000  0  5 09 27 02 26 04
  23472079.288    -9070780.730 9  -7058738.69649  23472079.497    23472083.4234
  23013542.381    11134255.536 9   8664697.47449  23013542.166    23013548.7284
  21953252.321     3651979.100 9   2839329.79649  21953251.640    21953256.8704
  23502090.320     3908927.104 9   3042827.53049  23502090.072    23502095.4134
  23573574.278   -10370580.116 9  -7883057.03149  23573573.934    23573581.2064
 99  4 20 16 55  0.0010000  0  5 09 27 02 26 04
  23453851.596    -9166567.743 9  -7133377.89949  23453851.097    23453856.6564
  23030983.951    11225911.022 9   8736117.21449  23030984.181    23030990.2064
  21957086.696     3672128.842 9   2855030.86949  21957086.375    21957090.8134
  23509753.935     3949199.868 9   3074208.85149  23509754.026    23509759.7244
  23552268.543   -10482541.841 9  -7970299.82349  23552268.644    23552275.1844
 99  4 20 16 55 30.0010000  0  5 09 27 02 26 04
  23435644.775    -9262244.741 9  -7207931.37749  23435644.971    23435649.5074
  23048456.449    11317728.917 9   8807663.48649  23048456.805    23048462.3104
  21960930.756     3692329.410 9   2870771.55549  21960930.284    21960934.7764
  23517465.111     3989721.904 9   3105784.40049  23517465.078    23517470.2284
  23530964.578   -10594494.766 9  -8057535.77549  23530964.972    23530970.5574
 99  4 20 16 56  0.0010000  0  5 09 27 02 26 04
  23417461.580    -9357797.720 9  -7282388.21149  23417461.209    23417465.8954
  23065959.574    11409708.086 9   8879335.45149  23065959.439    23065966.0524
  21964790.706     3712613.154 9   2886577.05249  21964790.412    21964794.6094
  23525227.961     4030515.490 9   3137571.55349  23525228.263    23525232.9044
  23509667.692   -10706410.230 9  -8144742.53849  23509667.806    23509674.5344
 99  4 20 16 56 30.0010000  0  5 09 27 02 26 04
  23399295.915    -9453259.443 9  -7356773.93949  23399295.375    23399300.4914
  23083490.179    11501831.251 9   8951119.59549  23083490.492    23083496.2664
  21968665.619     3732975.820 9   2902444.04149  21968665.080    21968669.8174
  23533039.680     4071566.400 9   3169559.21549  23533039.356    23533044.2194
  23488374.799   -10818304.903 9  -8231933.08849  23488374.537    23488381.4314
 99  4 20 16 57  0.0010000  0  5 09 27 02 26 04
  23381146.596    -9548634.697 9  -7431092.28649  23381146.089    23381151.4754
  23101051.498    11594116.350 9   9023029.92249  23101051.825    23101058.0104
  21972559.015     3753435.635 9   2918386.73449  21972558.244    21972562.9704
  23540899.171     4112868.559 9   3201742.65849  23540899.135    23540905.1634
  23467086.195   -10930177.492 9  -8319106.44449  23467086.604    23467091.5594
 99  4 20 16 57 30.0010000  0  5 09 27 02 26 04
  23363014.357    -9643920.093 9  -7505340.62149  23363013.682    23363019.5134
  23118643.627    11686562.416 9   9095065.66749  23118643.736    23118650.1094
  21976468.433     3773979.435 9   2934394.87049  21976467.988    21976472.5784
  23548804.962     4154413.340 9   3234115.16749  23548804.932    23548810.6624
  23445801.835   -11042027.092 9  -8406261.87849  23445801.699    23445808.3874
 99  4 20 16 58  0.0010000  0  5 09 27 02 26 04
  23344901.855    -9739101.702 9  -7579508.06549  23344901.691    23344906.5224
  23136268.051    11779178.273 9   9167233.72949  23136267.965    23136274.4674
  21980390.987     3794592.756 9   2950457.18249  21980390.262    21980395.1484
  23556756.955     4196200.481 9   3266676.51249  23556757.736    23556762.5444
  23424520.106   -11153862.943 9  -8493406.61349  23424519.972    23424527.7894
 99  4 20 16 58 30.0010000  0  5 09 27 02 26 04
  23326811.555    -9834166.859 9  -7653584.78649  23326811.674    23326817.0044
  23153925.687    11871968.768 9   9239537.88049  23153925.261    23153931.7314
  21984325.226     3815267.441 9   2966567.30049  21984324.799    21984329.5254
  23564752.461     4238216.834 9   3299416.46849  23564752.961    23564757.3444
  23403241.206   -11265684.054 9  -8580539.86749  23403241.423    23403247.0334
 99  4 20 16 59  0.0010000  0  5 09 27 02 26 04
  23308748.090    -9929091.482 9  -7727551.99449  23308748.099    23308752.2504
  23171616.948    11964936.422 9   9311980.05349  23171616.464    23171623.6814
  21988271.258     3836003.526 9   2982725.27349  21988270.667    21988275.2154
  23572791.474     4280461.721 9   3332334.48849  23572792.585    23572797.3014
  23381966.742   -11377481.034 9  -8667654.30649  23381966.981    23381972.6444
 99  4 20 16 59 30.0010000  0  5 09 27 02 26 04
  23290715.132   -10023855.909 9  -7801394.37049  23290714.474    23290719.1164
  23189338.129    12058060.977 9   9384544.48249  23189338.065    23189344.8824
  21992227.518     3856793.747 9   2998925.41849  21992227.028    21992231.3834
  23580874.854     4322939.617 9   3365434.09249  23580875.350    23580880.1604
  23360700.402   -11489236.292 9  -8754736.25349  23360700.723    23360706.7994
 99  4 20 17  0  0.0010000  0  5 09 27 02 26 04
  23272713.004   -10118457.729 9  -7875110.04649  23272713.196    23272717.6734
  23207085.170    12151322.191 9   9457215.41549  23207085.239    23207091.4594
  21996193.226     3877633.155 9   3015163.89949  21996192.952    21996197.5474
  23589002.951     4365652.639 9   3398716.89149  23589003.203    23589008.5354
  23339443.118   -11600944.250 9  -8841781.33649  23339443.519    23339449.4504
 99  4 20 17  0 30.0010000  0  5 09 27 02 26 04
  23254744.537   -10212882.898 9  -7948688.07549  23254744.505    23254749.3464
  23224857.710    12244717.107 9   9529990.52949  23224857.746    23224863.5274
  22000172.009     3898541.376 9   3031456.00149  22000171.618    22000176.2774
  23597177.624     4408610.680 9   3432190.64749  23597177.434    23597182.8054
  23318199.657   -11712579.430 9  -8928769.72149  23318200.046    23318205.8854
 99  4 20 17  1  0.0010000  0  5 09 27 02 26 04
  23236808.515   -10307137.126 9  -8022132.91049  23236808.282    23236812.9344
  23242653.032    12338231.326 9   9602858.60749  23242652.646    23242659.2064
  22004163.030     3919514.255 9   3047798.49249  22004162.695    22004167.1304
  23605399.513     4451816.793 9   3465857.67449  23605399.362    23605406.1394
  23296969.905   -11824142.444 9  -9015701.86949  23296970.543    23296976.3674
 99  4 20 17  1 30.0010000  0  5 09 27 02 26 04
  23218903.769   -10401227.658 9  -8095450.18949  23218903.328    23218907.5424
  23260471.155    12431866.081 9   9675820.61849  23260470.721    23260477.5114
  22008167.559     3940558.766 9   3064196.78649  22008167.503    22008171.8574
  23613667.510     4495265.290 9   3499713.59549  23613667.368    23613673.6204
  23275754.070   -11935632.401 9  -9102577.08849  23275753.871    23275760.4624
 99  4 20 17  2  0.0010000  0  5 09 27 02 26 04
  23201029.038   -10495160.036 9  -8168644.22349  23201029.462    23201033.5044
  23278315.078    12525636.319 9   9748888.19449  23278315.448    23278322.1674
  22012191.440     3961704.388 9   3080673.88449  22012190.747    22012195.9764
  23621979.594     4538945.708 9   3533750.22549  23621979.594    23621985.7514
  23254549.590   -12047062.184 9  -9189405.40949  23254549.460    23254556.4014
 99  4 20 17  2 30.0010000  0  5 09 27 02 26 04
  23183184.789   -10588932.506 9  -8241713.65149  23183184.345    23183189.0504
  23296188.206    12619559.409 9   9822074.88649  23296188.834    23296194.9854
  22016239.476     3982976.799 9   3097249.76949  22016238.755    22016243.9504
  23630335.641     4582856.893 9   3567966.68149  23630335.469    23630341.6784
  23233356.066   -12158434.560 9  -9276189.00549  23233357.102    23233362.4754
 99  4 20 17  3  0.0010000  0  5 09 27 02 26 04
  23165370.977   -10682544.157 9  -8314657.75349  23165370.708    23165375.0884
  23314092.425    12713645.906 9   9895388.89549  23314093.549    23314098.8464
  22020310.555     4004370.715 9   3113920.33949  22020309.937    22020315.0714
  23638734.999     4626995.383 9   3602360.26549  23638735.384    23638740.9954
  23212173.602   -12269748.972 9  -9362927.42249  23212173.617    23212179.4544
 99  4 20 17  3 30.0010000  0  5 09 27 02 26 04
  23147589.895   -10775983.998 9  -8387467.97949  23147589.237    23147593.3064
  23332029.208    12807903.449 9   9968836.18549  23332028.903    23332036.2604
  22024406.334     4025894.448 9   3130692.05549  22024405.881    22024410.4794
  23647176.948     4671357.893 9   3636928.38149  23647176.820    23647182.7584
  23191004.686   -12380992.170 9  -9449610.34149  23191005.121    23191011.1524
 99  4 20 17  4  0.0010000  0  5 09 27 02 26 04
  23129844.184   -10869237.799 9  -8460133.26049  23129843.952    23129849.2314
  23349997.189    12902325.553 9  10042411.70849  23349997.503    23350004.2264
  22028524.951     4047537.524 9   3147556.77149  22028524.670    22028529.5974
  23655662.372     4715948.759 9   3671674.42249  23655662.446    23655668.2754
  23169853.581   -12492141.501 9  -9536220.12349  23169853.354    23169859.3174
 99  4 20 17  4 30.0010000  0  5 09 27 02 26 04
  23112136.028   -10962295.317 9  -8532645.58349  23112136.021    23112140.1564
  23367998.395    12996921.977 9  10116123.05549  23367998.691    23368004.4314
  22032661.834     4069276.706 9   3164496.37949  22032661.476    22032666.1394
  23664194.634     4760785.680 9   3706612.24049  23664194.749    23664200.3334
  23148727.647   -12603158.544 9  -9622726.80749  23148727.969    23148733.2834
 99  4 20 17  5  0.0010000  0  5 09 27 02 26 04
  23094467.575   -11055143.629 9  -8604994.89949  23094467.573    23094471.7974
  23386031.827    13091687.406 9  10189966.10549  23386032.077    23386038.5244
  22036814.553     4091099.223 9   3181500.92149  22036814.081    22036818.7824
  23672774.333     4805872.507 9   3741744.75849  23672775.229    23672780.3944
  23127629.369   -12714030.268 9  -9709120.25249  23127628.786    23127635.6164
 99  4 20 17  5 30.0010000  0  5 09 27 02 26 04
  23076841.204   -11147770.182 9  -8677171.39349  23076840.706    23076845.0614
  23404096.243    13186616.250 9  10263936.49749  23404095.772    23404102.6174
  22040986.398     4113022.467 9   3198583.95349  22040985.933    22040990.6254
  23681402.824     4851215.195 9   3777076.66649  23681403.256    23681409.1724
  23106560.833   -12824745.335 9  -9795391.62849  23106560.751    23106567.2374
 99  4 20 17  6  0.0010000  0  5 09 27 02 26 04
  23059257.403   -11240172.906 9  -8749173.47749  23059257.368    23059262.0444
  23422192.271    13281710.749 9  10338035.95549  23422192.504    23422198.3394
  22045179.276     4135055.913 9   3215752.85149  22045179.280    22045183.9944
  23690082.764     4896828.479 9   3812619.40049  23690083.506    23690089.1634
  23085521.913   -12935305.013 9  -9881541.92049  23085521.586    23085527.8764
 99  4 20 17  6 30.0010000  0  5 09 27 02 26 04
  23041714.917   -11332359.630 9  -8821007.24849  23041714.083    23041719.4884
  23440317.918    13376960.866 9  10412256.66949  23440317.596    23440325.4654
  22049395.991     4157213.684 9   3233018.62149  22049395.501    22049399.9714
  23698814.589     4942714.487 9   3848374.67849  23698814.422    23698820.7014
  23064508.365   -13045731.889 9  -9967588.72949  23064508.203    23064514.0334
 99  4 20 17  7  0.0010000  0  5 09 27 02 26 04
  23024216.057   -11424315.728 9  -8892661.31149  23024214.868    23024220.5834
  23458472.416    13472362.886 9  10486595.73949  23458473.747    23458479.3174
  22053642.274     4179527.516 9   3250406.00249  22053641.522    22053646.1414
  23707600.037     4988881.742 9   3884349.07949  23707600.020    23707606.3284
  23043517.942   -13156037.260 9 -10053540.85049  23043518.204    23043523.3984
 99  4 20 17  7 30.0010000  0  5 09 27 02 26 04
  23006760.240   -11516046.354 9  -8964139.69949  23006760.501    23006764.5094
  23476657.369    13567924.041 9  10561058.83049  23476657.508    23476664.4914
  22057921.302     4202014.348 9   3267928.17549  22057920.999    22057925.8234
  23716440.176     5035336.673 9   3920547.66749  23716440.270    23716445.6264
  23022551.041   -13266218.683 9 -10139396.38649  23022551.110    23022557.7494
 99  4 20 17  8  0.0010000  0  5 09 27 02 26 04
  22989346.288   -11607557.841 9  -9035447.33749  22989345.857    22989350.6414
  23494872.391    13663643.812 9  10635645.50249  23494872.029    23494879.6954
  22062230.836     4224661.181 9   3285575.03949  22062230.366    22062235.3194
  23725333.518     5082071.194 9   3956964.11149  23725333.883    23725339.7194
  23001605.043   -13376290.431 9 -10225166.44749  23001605.180    23001610.9644
 99  4 20 17  8 30.0010000  0  5 09 27 02 26 04
  22971974.581   -11698846.649 9  -9106581.45549  22971974.173    22971979.8704
  23513116.028    13759514.666 9  10710349.90549  23513115.989    23513122.3834
  22066569.379     4247460.277 9   3303340.54449  22066568.902    22066573.4974
  23734274.072     5129053.720 9   3993573.80849  23734274.833    23734279.8534
  22980681.302   -13486245.116 9 -10310845.29549  22980680.476    22980687.3534
 99  4 20 17  9  0.0010000  0  5 09 27 02 26 04
  22954647.742   -11789899.269 9  -9177531.51149  22954647.728    22954652.3454
  23531391.274    13855551.159 9  10785183.38249  23531391.187    23531398.1114
  22070936.817     4270411.119 9   3321224.30649  22070936.189    22070940.5394
  23743258.615     5176267.559 9   4030363.74349  23743258.774    23743264.5154
  22959782.899   -13596067.080 9 -10396420.72149  22959783.053    22959788.8604
 99  4 20 17  9 30.0010000  0  5 09 27 02 26 04
  22937366.302   -11880714.158 9  -9248296.33749  22937366.791    22937370.6884
  23549698.352    13951754.509 9  10860146.86249  23549697.624    23549706.2044
  22075332.236     4293508.839 9   3339222.50249  22075331.596    22075336.1114
  23752284.738     5223699.546 9   4067323.66149  23752284.985    23752290.9674
  22938911.641   -13705745.413 9 -10481884.22949  22938911.592    22938917.7514
 99  4 20 17 10  0.0010000  0  5 09 27 02 26 04
  22920133.321   -11971274.439 9  -9318862.76449  22920132.712    22920137.5264
  23568036.393    14048121.068 9  10935237.52749  23568035.838    23568043.4744
  22079754.366     4316747.265 9   3357330.34749  22079753.655    22079758.5764
  23761350.553     5271340.887 9   4104446.72749  23761350.170    23761356.3504
  22918072.261   -13815256.753 9 -10567217.61749  22918072.149    22918078.2904
 99  4 20 17 10 30.0010000  0  5 09 27 02 26 04
  22902948.302   -12061581.704 9  -9389232.02649  22902948.309    22902952.8764
  23586406.286    14144655.021 9  11010458.62549  23586406.431    23586413.6584
  22084205.465     4340138.296 9   3375557.10049  22084204.823    22084209.7144
  23770456.305     5319191.867 9   4141733.12949  23770456.485    23770462.6944
  22897269.686   -13924574.862 9 -10652400.40949  22897269.820    22897275.1524
 99  4 20 17 11  0.0010000  0  5 09 27 02 26 04
  22885812.882   -12151629.137 9  -9459398.84049  22885812.981    22885817.1304
  23604811.117    14241372.773 9  11085822.94349  23604811.379    23604818.2524
  22088685.063     4363678.860 9   3393900.38249  22088684.412    22088689.5114
  23779606.548     5367276.819 9   4179201.85449  23779606.931    23779612.6414
  22876504.596   -14033695.682 9 -10737429.47749  22876503.886    22876510.1384
 99  4 20 17 11 30.0010000  0  5 09 27 02 26 04
  22868728.500   -12241408.478 9  -9529356.74649  22868728.199    22868732.7844
  23623250.098    14338269.488 9  11161326.70149  23623249.904    23623257.1684
  22093193.244     4387369.007 9   3412360.21749  22093192.571    22093197.5464
  23788803.468     5415606.965 9   4216861.64149  23788803.214    23788809.4374
  22855778.675   -14142610.697 9 -10822298.19849  22855778.154    22855784.8274
 99  4 20 17 12  0.0010000  0  5 09 27 02 26 04
  22851697.055   -12330908.966 9  -9599097.36149  22851697.169    22851701.0904
  23641724.026    14435350.261 9  11236973.89749  23641724.075    23641731.8214
  22097731.604     4411218.020 9   3430943.84849  22097731.189    22097735.7404
  23798049.641     5464195.609 9   4254722.86149  23798049.893    23798055.4494
  22835093.256   -14251312.200 9 -10907000.55449  22835093.104    22835098.1924
 99  4 20 17 12 30.0010000  0  5 09 27 02 26 04
  22834719.399   -12420127.000 9  -9668617.87049  22834719.623    22834723.5834
  23660232.952    14532614.963 9  11312764.41149  23660232.992    23660240.5644
  22102302.270     4435236.380 9   3449659.42849  22102301.675    22102306.6464
  23807343.958     5513037.284 9   4292781.23949  23807344.538    23807350.1594
  22814445.226   -14359817.464 9 -10991549.98849  22814445.198    22814450.6204
 99  4 20 17 13  0.0010000  0  5 09 27 02 26 04
  22817799.932   -12509039.412 9  -9737900.24149  22817799.816    22817804.0034
  23678776.835    14630062.471 9  11388697.36449  23678776.414    23678784.2184
  22106906.659     4459432.743 9   3468513.72249  22106906.217    22106910.5684
  23816687.679     5562137.853 9   4331041.34549  23816688.380    23816693.5324
  22793833.999   -14468129.549 9 -11075948.92349  22793834.407    22793839.5744
 99  4 20 17 13 30.0010000  0  5 09 27 02 26 04
  22800938.393   -12597647.501 9  -9806945.48149  22800938.049    22800942.7314
  23697351.089    14727669.784 9  11464754.84149  23697351.195    23697358.8124
  22111548.197     4483823.862 9   3487519.77049  22111547.364    22111552.3264
  23826080.971     5611499.505 9   4369504.90649  23826081.507    23826087.3134
  22773260.915   -14576241.374 9 -11160191.79749  22773260.610    22773267.0154
 99  4 20 17 14  0.0010000  0  5 09 27 02 26 04
  22784133.531   -12685957.226 9  -9875758.22149  22784132.973    22784137.5774
  23715953.903    14825427.045 9  11540929.16449  23715954.366    23715961.8674
  22116227.462     4508413.232 9   3506680.30349  22116226.465    22116231.3294
  23835524.645     5661126.158 9   4408174.95149  23835524.490    23835531.8664
  22752730.140   -14684131.459 9 -11244261.91649  22752730.762    22752735.7734
 99  4 20 17 14 30.0010000  0  5 09 27 02 26 04
  22767383.312   -12773979.936 9  -9944347.30549  22767382.909    22767387.5684
  23734583.696    14923325.904 9  11617213.81549  23734583.380    23734590.8644
  22120941.395     4533185.309 9   3525983.19749  22120940.701    22120945.7714
  23845017.245     5711009.663 9   4447045.14549  23845018.018    23845023.7284
  22732243.370   -14791789.812 9 -11328151.44449  22732243.006    22732249.2054
 99  4 20 17 15  0.0010000  0  5 09 27 02 26 04
  22750689.621   -12861706.025 9 -10012705.26949  22750689.655    22750694.0894
  23753241.258    15021371.259 9  11693612.62949  23753241.083    23753249.0464
  22125689.762     4558137.628 9   3545426.54249  22125689.054    22125694.0524
  23854561.494     5761165.064 9   4486127.20949  23854561.791    23854567.6734
  22711803.394   -14899202.368 9 -11411849.43949  22711803.336    22711808.4014
 99  4 20 17 15 30.0010000  0  5 09 27 02 26 04
  22734050.200   -12949146.985 9 -10080841.06049  22734050.095    22734054.0944
  23771927.262    15119566.935 9  11770128.58849  23771926.967    23771935.1334
  22130472.029     4583268.804 9   3565009.27149  22130471.254    22130475.8664
  23864157.485     5811592.220 9   4525421.03449  23864157.967    23864164.1644
  22691411.996   -15006359.598 9 -11495348.46349  22691411.723    22691417.2564
 99  4 20 17 16  0.0010000  0  5 09 27 02 26 04
  22717467.902   -13036287.623 9 -10148742.83349  22717467.914    22717471.7804
  23790646.276    15217935.667 9  11846779.38749  23790645.409    23790654.9834
  22135287.313     4608573.203 9   3584726.95549  22135286.490    22135291.7104
  23873802.324     5862275.318 9   4564914.30049  23873802.950    23873808.1964
  22671069.964   -15113257.228 9 -11578645.21249  22671069.365    22671075.7844
 99  4 20 17 16 30.0010000  0  5 09 27 02 26 04
  22700946.459   -13123108.341 9 -10216395.31349  22700946.142    22700950.7994
  23809400.607    15316490.062 9  11923574.86449  23809401.115    23809409.0114
  22140134.150     4634043.247 9   3604573.72549  22140133.505    22140138.6404
  23883492.396     5913196.315 9   4604592.93049  23883492.452    23883498.3084
  22650771.022   -15219928.469 9 -11661765.56849  22650770.868    22650776.2394
 99  4 20 17 17  0.0010000  0  5 09 27 02 26 04
  22684490.300   -13209586.124 9 -10283780.56849  22684490.114    22684494.3434
  23828192.540    15415242.298 9  12000524.49849  23828192.076    23828201.0674
  22145016.880     4659702.317 9   3624567.78249  22145016.014    22145021.1094
  23893229.795     5964365.779 9   4644465.16049  23893230.611    23893235.4324
  22630517.123   -15326362.883 9 -11744701.38649  22630516.979    22630522.6614
 99  4 20 17 17 30.0010000  0  5 09 27 02 26 04
  22668098.993   -13295722.703 9 -10350899.94449  22668098.632    22668103.6134
  23847019.221    15514176.787 9  12077616.15949  23847019.252    23847026.7924
  22149936.271     4685554.035 9   3644711.95949  22149935.908    22149939.9744
  23903012.807     6015775.184 9   4684524.36649  23903013.348    23903018.6784
  22610311.500   -15432543.423 9 -11827439.37549  22610311.027    22610317.0254
 99  4 20 17 18  0.0010000  0  5 09 27 02 26 04
  22651774.723   -13381507.590 9 -10417745.28049  22651774.723    22651778.9634
  23865879.376    15613286.641 9  12154844.46849  23865879.016    23865887.2464
  22154893.128     4711602.351 9   3665009.32849  22154892.437    22154897.3414
  23912839.894     6067416.395 9   4724764.21949  23912840.275    23912846.6334
  22590154.793   -15538467.474 9 -11909977.51049  22590155.351    22590160.0494
 99  4 20 17 18 30.0010000  0  5 09 27 02 26 04
  22635515.769   -13466948.890 9 -10484322.88549  22635515.119    22635519.5154
  23884771.167    15712562.677 9  12232202.27549  23884771.877    23884779.1684
  22159888.465     4737853.376 9   3685464.65049  22159887.789    22159893.1104
  23922711.925     6119293.705 9   4765188.03149  23922712.081    23922717.4864
  22570047.238   -15644133.113 9 -11992314.27749  22570046.832    22570053.0714
 99  4 20 17 19  0.0010000  0  5 09 27 02 26 04
  22619322.211   -13552046.379 9 -10550632.59349  22619322.009    22619326.3484
  23903692.807    15811995.632 9  12309682.34149  23903693.158    23903700.9474
  22164926.821     4764329.779 9   3706095.59849  22164926.521    22164930.9974
  23932631.340     6171420.274 9   4805806.04849  23932631.404    23932637.7944
  22549996.844   -15749498.505 9 -12074417.11249  22549996.682    22550002.2524
 99  4 20 17 19 30.0010000  0  5 09 27 02 26 04
  22603195.716   -13636791.789 9 -10616667.95449  22603195.124    22603200.2024
  23922644.331    15911586.185 9  12387285.21349  23922644.628    23922651.6664
  22170009.141     4791037.735 9   3726906.97049  22170008.992    22170013.3364
  23942598.369     6223797.098 9   4846619.08249  23942598.124    23942604.7064
  22530003.673   -15854562.965 9 -12156285.43149  22530003.463    22530009.3104
 99  4 20 17 20  0.0010000  0  5 09 27 02 26 04
  22587135.011   -13721190.935 9 -10682433.48349  22587134.072    22587139.4114
  23941627.904    16011345.470 9  12465019.57349  23941627.876    23941636.8434
  22175132.353     4817960.049 9   3747885.38249  22175131.816    22175137.0114
  23952612.019     6276419.470 9   4887623.46349  23952612.152    23952618.4194
  22510064.994   -15959340.566 9 -12237930.22849  22510064.806    22510070.1454
 99  4 20 17 20 30.0010000  0  5 09 27 02 26 04
  22571143.942   -13805224.399 9 -10747914.06949  22571144.072    22571147.8664
  23960643.886    16111274.784 9  12542886.39149  23960645.240    23960652.7904
  22180296.910     4845099.234 9   3769032.78549  22180296.041    22180301.1684
  23962674.825     6329300.056 9   4928829.03549  23962674.835    23962680.8634
  22490183.730   -16063817.136 9 -12319340.46149  22490184.189    22490189.1404
 99  4 20 17 21  0.0010000  0  5 09 27 02 26 04
  22555223.500   -13888886.952 9 -10813105.63049  22555223.474    22555227.7664
  23979692.006    16211372.476 9  12620884.44349  23979692.614    23979699.8324
  22185503.865     4872462.382 9   3790354.69449  22185503.316    22185507.9244
  23972788.213     6382445.683 9   4970241.13649  23972788.544    23972795.4524
  22470362.572   -16167978.198 9 -12400504.80349  22470362.752    22470367.9274
 99  4 20 17 21 30.0010000  0  5 09 27 02 26 04
  22539370.794   -13972193.478 9 -10878019.78049  22539370.329    22539374.9794
  23998776.277    16311660.520 9  12699030.81549  23998777.222    23998784.8844
  22190752.400     4900043.473 9   3811846.43349  22190751.722    22190756.5884
  23982953.105     6435862.283 9   5011864.37949  23982954.326    23982959.0214
  22450599.499   -16271833.837 9 -12481431.15949  22450599.953    22450604.5314
 99  4 20 17 22  0.0010000  0  5 09 27 02 26 04
  22523586.274   -14055141.621 9 -10942654.66249  22523585.866    22523590.5264
  24017896.930    16412139.179 9  12777325.71949  24017897.386    24017904.9224
  22196041.838     4927840.261 9   3833506.25249  22196041.500    22196046.1494
  23993166.840     6489535.251 9   5053687.38349  23993168.285    23993173.6494
  22430893.941   -16375386.705 9 -12562121.61749  22430894.325    22430898.8944
 99  4 20 17 22 30.0010000  0  5 09 27 02 26 04
  22507872.055   -14137720.236 9 -11007001.60749  22507871.585    22507875.8994
  24037050.825    16512792.084 9  12855756.39949  24037050.676    24037058.3804
  22201375.809     4955869.651 9   3855347.31249  22201375.138    22201380.3964
  24003428.083     6543458.323 9   5095705.27849  24003428.232    24003434.2234
  22411247.581   -16478629.062 9 -12642570.09049  22411247.606    22411252.5034
 99  4 20 17 23  0.0010000  0  5 09 27 02 26 04
  22492226.440   -14219938.511 9 -11071067.76149  22492225.986    22492230.2724
  24056238.137    16613621.108 9  12934324.30849  24056237.843    24056246.3424
  22206753.752     4984130.656 9   3877368.85949  22206753.385    22206758.1364
  24013734.364     6597617.827 9   5137907.39849  24013734.228    24013740.5274
  22391659.097   -16581566.637 9 -12722781.05649  22391659.347    22391663.6354
 99  4 20 17 23 30.0010000  0  5 09 27 02 26 04
  22476656.405   -14301759.496 9 -11134824.34749  22476656.355    22476660.5094
  24075462.126    16714642.463 9  13013042.08449  24075462.424    24075470.3354
  22212178.388     5012637.024 9   3899581.60049  22212177.859    22212182.3394
  24024085.824     6652015.071 9   5180294.78849  24024085.911    24024092.4944
  22372131.099   -16684186.963 9 -12802744.82849  22372130.806    22372135.6584
 99  4 20 17 24  0.0010000  0  5 09 27 02 26 04
  22461170.361   -14383139.290 9 -11198237.13749  22461170.365    22461174.9574
  24094718.714    16815835.532 9  13091893.65149  24094718.843    24094726.8724
  22217651.396     5041397.697 9   3921992.49849  22217650.451    22217655.6084
  24034482.901     6706651.973 9   5222868.90749  24034483.463    24034489.6184
  22352667.044   -16786470.823 9 -12882446.42249  22352666.541    22352672.1444
 99  4 20 17 24 30.0010000  0  5 09 27 02 26 04
  22445766.730   -14464085.905 9 -11261312.39849  22445766.189    22445770.7934
  24114005.295    16917187.074 9  13170868.72049  24114004.762    24114013.4494
  22223172.020     5070408.372 9   3944598.19549  22223171.159    22223175.7924
  24044926.293     6761532.157 9   5265632.60549  24044926.494    24044932.9764
  22333268.087   -16888412.577 9 -12961881.41049  22333267.541    22333272.6334
 99  4 20 17 25  0.0010000  0  5 09 27 02 26 04
  22430444.316   -14544605.444 9 -11324054.87549  22430443.977    22430448.0154
  24133324.429    17018709.173 9  13249976.67849  24133324.677    24133332.7614
  22228741.032     5099673.906 9   3967402.48949  22228740.643    22228745.3994
  24055416.262     6816656.987 9   5308586.96349  24055416.712    24055423.4364
  22313933.613   -16990015.725 9 -13041052.52749  22313933.445    22313938.3564
 99  4 20 17 25 30.0010000  0  5 09 27 02 26 04
  22415200.483   -14624712.050 9 -11386475.58149  22415200.580    22415204.7854
  24152672.015    17120381.116 9  13329201.40149  24152672.593    24152680.6334
  22234355.988     5129181.126 9   3990395.10749  22234355.216    22234360.3214
  24065952.641     6872025.827 9   5351731.43149  24065953.877    24065959.9764
  22294661.791   -17091289.065 9 -13119966.65649  22294661.617    22294666.2034
 99  4 20 17 26  0.0010000  0  5 09 27 02 26 04
  22400034.842   -14704408.204 9 -11448576.45149  22400034.439    22400038.6304
  24172048.773    17222205.703 9  13408545.06749  24172047.999    24172056.9464
  22240019.152     5158940.783 9   4013584.43149  22240018.895    22240023.2324
  24076540.032     6927662.508 9   5395084.61649  24076540.748    24076546.7284
  22275456.748   -17192211.727 9 -13198607.54249  22275456.552    22275461.4104
 99  4 20 17 26 30.0010000  0  5 09 27 02 26 04
  22384944.427   -14783709.091 9 -11510369.32749  22384944.655    22384948.4124
  24191459.190    17324207.088 9  13488026.47149  24191459.711    24191467.1534
  22245733.173     5188968.060 9   4036982.29249  22245732.580    22245737.5054
  24087177.807     6983563.549 9   5438643.78849  24087178.074    24087184.2524
  22256321.345   -17292767.966 9 -13276962.92949  22256321.010    22256325.8074
 99  4 20 17 27  0.0010000  0  5 09 27 02 26 04
  22369932.948   -14862595.414 9 -11571839.16749  22369932.548    22369936.7924
  24210905.436    17426397.234 9  13567654.97349  24210906.198    24210914.2374
  22251498.455     5219265.003 9   4060590.28349  22251498.128    22251502.8784
  24097867.776     7039739.071 9   5482416.84449  24097868.223    24097874.5704
  22237261.386   -17392928.447 9 -13355009.95449  22237261.015    22237266.0084
 99  4 20 17 27 30.0010000  0  5 09 27 02 26 04
  22355004.396   -14941045.496 9 -11632969.06949  22355004.143    22355008.3634
  24230387.811    17528777.280 9  13647431.47849  24230386.892    24230396.0754
  22257315.588     5249834.198 9   4084410.42449  22257314.971    22257319.8734
  24108611.227     7096196.508 9   5526409.57649  24108612.245    24108617.4354
  22218282.316   -17492663.606 9 -13432725.53549  22218281.993    22218286.9844
 99  4 20 17 28  0.0010000  0  5 09 27 02 26 04
  22340161.441   -15019045.607 9 -11693748.34549  22340160.998    22340165.2274
  24249908.357    17631357.942 9  13727364.29149  24249907.698    24249917.5064
  22263187.176     5280689.467 9   4108453.47249  22263186.377    22263191.2094
  24119406.883     7152927.128 9   5570615.18449  24119407.262    24119413.1424
  22199386.070   -17591963.764 9 -13510102.16849  22199386.015    22199390.4964
 99  4 20 17 28 30.0010000  0  5 09 27 02 26 04
  22325405.791   -15096587.137 9 -11754170.29849  22325405.813    22325409.4454
  24269467.172    17734139.582 9  13807453.69849  24269467.267    24269475.3104
  22269113.128     5311830.270 9   4132719.01049  22269112.224    22269116.9564
  24130251.446     7209914.894 9   5615021.16249  24130251.894    24130258.1844
  22180570.016   -17690842.247 9 -13587150.21749  22180569.991    22180574.0824
 99  4 20 17 29  0.0010000  0  5 09 27 02 26 04
  22310739.009   -15173661.659 9 -11814228.34649  22310738.797    22310742.8964
  24289062.306    17837111.387 9  13887691.27549  24289061.912    24289069.9624
  22275091.210     5343245.066 9   4157198.05049  22275090.656    22275095.3194
  24141146.096     7267165.662 9   5659632.09049  24141145.872    24141152.2414
  22161830.795   -17789317.055 9 -13663883.70549  22161830.504    22161835.7234
 99  4 20 17 29 30.0010000  0  6 09 27 02 24 26 04
  22296158.946   -15250280.196 9 -11873931.08049  22296158.750    22296162.5764
  24308693.845    17940275.166 9  13968078.43449  24308694.061    24308703.3014
  22281124.416     5374949.890 9   4181903.07849  22281123.919    22281128.8884
  24816448.763    -4066326.044 9  -2573653.77149  24816447.901    24816459.3284
  24152088.456     7324668.290 9   5704439.25949  24152087.997    24152094.7654
  22143163.624   -17887412.781 9 -13740321.81749  22143163.327    22143168.5954
 99  4 20 17 30  0.0010000  0  6 09 27 02 24 26 04
  22281664.853   -15326446.979 9 -11933281.79449  22281664.625    22281668.6374
  24328362.303    18043632.947 9  14048616.75749  24328362.275    24328370.2704
  22287213.734     5406949.070 9   4206837.48349  22287212.884    22287217.7604
  24793088.526    -4189083.763 9  -2669308.82549  24793087.383    24793098.0564
  24163077.022     7382413.265 9   5749435.26449  24163077.190    24163082.6714
  22124566.218   -17985142.439 9 -13816474.69249  22124565.672    22124571.0114
 99  4 20 17 30 30.0010000  0  6 09 27 02 24 26 04
  22267257.659   -15402157.060 9 -11992276.63349  22267257.169    22267261.1004
  24348069.547    18147195.387 9  14129314.55749  24348068.743    24348078.8074
  22293359.230     5439243.621 9   4232002.03949  22293358.659    22293363.3754
  24769734.679    -4311808.030 9  -2764937.79949  24769734.180    24769745.5584
  24174111.290     7440398.377 9   5794618.38449  24174111.441    24174118.2984
  22106041.577   -18082489.541 9 -13892329.49049  22106041.376    22106045.8284
 99  4 20 17 31  0.0010000  0  6 09 27 02 24 26 04
  22252936.044   -15477417.379 9 -12050921.01549  22252936.053    22252939.7694
  24367816.821    18250967.799 9  14210175.98849  24367816.042    24367825.2514
  22299562.637     5471842.431 9   4257403.68749  22299561.994    22299566.7654
  24746389.986    -4434484.584 9  -2860529.59849  24746389.041    24746400.3884
  24185190.665     7498620.485 9   5839986.18749  24185190.301    24185196.7974
  22087592.294   -18179440.683 9 -13967875.74949  22087591.848    22087597.1294
 99  4 20 17 31 30.0010000  0  6 09 27 02 24 26 04
  22238702.610   -15552214.809 9 -12109204.70349  22238702.447    22238706.6114
  24387604.160    18354950.086 9  14291200.92349  24387604.683    24387612.7504
  22305827.418     5504763.763 9   4283056.65149  22305826.847    22305831.8104
  24723056.161    -4557103.479 9  -2956076.46549  24723054.755    24723065.7204
  24196313.229     7557070.509 9   5885531.56249  24196313.741    24196319.6534
  22069221.008   -18275981.939 9 -14043102.60849  22069220.716    22069226.2274
 99  4 20 17 32  0.0010000  0  6 09 27 02 24 26 04
  22224561.158   -15626528.536 9 -12167111.48149  22224560.697    22224564.7264
  24407430.727    18459138.291 9  14372386.32949  24407430.797    24407439.3384
  22312153.908     5538009.626 9   4308962.48449  22312153.518    22312157.8344
  24699734.730    -4679657.086 9  -3051572.46849  24699734.020    24699743.6644
  24207481.344     7615758.598 9   5931262.44449  24207481.279    24207488.5584
  22050932.594   -18372087.575 9 -14117990.02049  22050932.207    22050937.2724
 99  4 20 17 32 30.0010000  0  6 09 27 02 24 26 04
  22210512.412   -15700355.040 9 -12224638.59949  22210511.943    22210516.3074
  24427292.946    18563513.920 9  14453717.77349  24427293.666    24427300.7824
  22318538.760     5571562.677 9   4335107.69149  22318537.958    22318542.8524
  24676428.327    -4802132.510 9  -3147007.55849  24676426.565    24676437.4774
  24218695.295     7674688.219 9   5977181.52649  24218695.406    24218702.0324
  22032727.751   -18467754.438 9 -14192535.54249  22032727.760    22032732.6774
 99  4 20 17 33  0.0010000  0  6 09 27 02 24 26 04
  22196556.324   -15773694.707 9 -12281786.37049  22196555.974    22196559.7864
  24447184.619    18668045.273 9  14535170.58449  24447184.476    24447194.0704
  22324977.974     5605401.149 9   4361475.31049  22324977.380    22324982.2354
  24653135.875    -4924533.709 9  -3242384.80349  24653135.330    24653143.9574
  24229955.208     7733859.565 9   6023288.96449  24229955.041    24229962.3014
  22014604.061   -18562994.727 9 -14266748.68449  22014604.347    22014609.1974
 99  4 20 17 33 30.0010000  0  6 09 27 02 24 26 04
  22182696.744   -15846527.227 9 -12338538.95949  22182696.599    22182700.6474
  24467105.596    18772730.280 9  14616743.07949  24467105.086    24467115.8794
  22331469.841     5639515.950 9   4388058.23749  22331469.595    22331474.2924
  24629858.707    -5046855.283 9  -3337700.02949  24629857.734    24629866.1494
  24241263.958     7793286.855 9   6069595.83049  24241264.772    24241270.8394
  21996564.909   -18657791.103 9 -14340615.92149  21996564.875    21996569.6574
 99  4 20 17 34  0.0010000  0  6 09 27 02 24 26 04
  22168931.866   -15918862.219 9 -12394903.86649  22168931.598    22168935.6914
  24487054.748    18877563.771 9  14698431.27249  24487055.045    24487065.4314
  22338009.854     5673883.422 9   4414838.05749  22338009.478    22338013.3454
  24606597.137    -5169094.181 9  -3432950.85249  24606597.887    24606605.4584
  24252620.922     7852968.178 9   6116100.63249  24252620.880    24252626.8284
  21978611.331   -18752137.832 9 -14414132.77649  21978611.384    21978615.8804
 99  4 20 17 34 30.0010000  0  6 09 27 02 24 26 04
  22155261.337   -15990701.123 9 -12450882.21349  22155261.332    22155265.0534
  24507031.029    18982538.015 9  14780229.16249  24507031.565    24507040.3814
  22344596.176     5708494.685 9   4441807.84349  22344595.918    22344600.4784
  24583350.976    -5291252.548 9  -3528138.89049  24583348.592    24583358.0174
  24264024.624     7912894.242 9   6162796.16849  24264023.936    24264030.9124
  21960743.456   -18846033.753 9 -14487298.35349  21960743.304    21960747.7944
 99  4 20 17 35  0.0010000  0  6 09 27 02 24 26 04
  22141687.242   -16062033.733 9 -12506466.05149  22141686.909    22141690.8984
  24527037.259    19087670.521 9  14862150.32949  24527038.035    24527046.2034
  22351234.512     5743378.963 9   4468990.36649  22351234.103    22351238.7404
  24560119.643    -5413332.306 9  -3623265.72249  24560119.113    24560128.2514
  24275474.549     7973064.141 9   6209681.68749  24275474.239    24275481.4134
  21942964.154   -18939464.515 9 -14560101.47549  21942964.142    21942968.5904
 99  4 20 17 35 30.0010000  0  7 05 09 27 02 24 26 04
  24975434.189    -2598030.172 9  -1772066.39349  24975433.897    24975440.8484
  22128207.551   -16132869.898 9 -12561663.04249  22128207.011    22128211.3374
  24547074.016    19192963.022 9  14944196.18949  24547074.994    24547083.5794
  22357928.395     5778555.286 9   4496400.46649  22357927.929    22357932.8264
  24536901.353    -5535344.359 9  -3718339.78649  24536900.547    24536910.7324
  24286969.996     8033473.212 9   6256753.58149  24286969.361    24286977.5494
  21925273.704   -19032428.233 9 -14632540.65649  21925273.449    21925277.9114
 99  4 20 17 36  0.0010000  0  7 05 09 27 02 24 26 04
  24957023.242    -2694780.883 9  -1847456.49549  24957023.702    24957028.4554
  22114826.038   -16203190.130 9 -12616458.00849  22114825.565    22114829.5224
  24567145.614    19298438.745 9  15026384.82649  24567146.159    24567155.4674
  22364684.749     5814059.690 9   4524066.19749  22364684.081    22364689.0084
  24513701.664    -5657259.782 9  -3813338.59749  24513701.078    24513710.2834
  24298515.324     8094142.874 9   6304028.53149  24298515.658    24298522.9034
  21907677.035   -19124899.451 9 -14704596.09049  21907677.191    21907681.0124
 99  4 20 17 36 30.0010000  0  7 05 09 27 02 24 26 04
  24938621.086    -2791485.107 9  -1922810.37849  24938620.942    24938626.0454
  22101542.767   -16272994.014 9 -12670850.62449  22101542.570    22101546.6214
  24587253.389    19404104.286 9  15108721.34149  24587253.479    24587263.3024
  22371506.659     5849908.951 9   4552000.66049  22371505.949    22371510.2764
  24490520.681    -5779076.968 9  -3908260.86049  24490521.305    24490528.7634
  24310110.279     8155073.725 9   6351506.99749  24310111.030    24310116.7844
  21890173.360   -19216881.287 9 -14776270.19149  21890173.568    21890177.7744
 99  4 20 17 37  0.0010000  0  7 05 09 27 02 24 26 04
  24920225.323    -2888155.888 9  -1998138.17449  24920224.598    24920231.1374
  22088351.407   -16342315.064 9 -12724867.00449  22088350.833    22088355.1614
  24607395.487    19509950.251 9  15191198.45349  24607394.945    24607405.4424
  22378391.851     5886091.033 9   4580194.46549  22378391.552    22378395.5034
  24467353.723    -5900819.412 9  -4003124.88849  24467352.384    24467362.2704
  24321749.859     8216239.801 9   6399168.78349  24321749.453    24321757.3754
  21872757.668   -19308401.424 9 -14847584.52249  21872757.365    21872762.1194
 99  4 20 17 37 30.0010000  0  7 05 09 27 02 24 26 04
  24901840.938    -2984766.053 9  -2073418.71549  24901839.675    24901847.5284
  22075254.133   -16411141.700 9 -12778498.12749  22075253.860    22075258.0844
  24627574.763    19615992.424 9  15273828.42249  24627575.444    24627585.4344
  22385342.261     5922615.510 9   4608655.06049  22385341.640    22385346.3804
  24444206.350    -6022458.283 9  -4097908.22949  24444206.038    24444213.6704
  24333435.364     8277647.372 9   6447018.73249  24333436.113    24333441.9914
  21855431.934   -19399448.503 9 -14918530.24649  21855431.969    21855436.4444
 99  4 20 17 38  0.0010000  0  7 05 09 27 02 24 26 04
  24883466.015    -3081327.294 9  -2148661.18849  24883466.205    24883471.9434
  22062247.686   -16479491.111 9 -12831757.38549  22062247.034    22062251.3524
  24647786.816    19722207.167 9  15356592.86949  24647786.163    24647797.0454
  22392350.178     5959442.582 9   4637351.44949  22392349.139    22392354.9454
  24421076.871    -6144003.671 9  -4192618.70749  24421076.121    24421085.5754
  24345158.732     8339253.555 9   6495023.45149  24345159.707    24345164.4834
  21838190.689   -19490051.633 9 -14989130.03849  21838191.025    21838195.2214
 99  4 20 17 38 30.0010000  0  7 05 09 27 02 24 26 04
  24865101.311    -3177834.212 9  -2223861.31649  24865099.630    24865106.1804
  22049334.414   -16547350.808 9 -12884635.04949  22049334.074    22049337.8424
  24668029.551    19828582.670 9  15439482.57549  24668030.638    24668039.5284
  22399416.839     5996577.906 9   4666288.03649  22399415.907    22399421.0614
  24397964.212    -6265460.987 9  -4287260.56049  24397962.722    24397971.9564
  24356918.636     8401051.547 9   6543177.62349  24356918.286    24356927.5804
  21821034.163   -19580209.732 9 -15059383.04849  21821033.573    21821038.6744
 99  4 20 17 39  0.0010000  0  7 05 09 27 02 24 26 04
  24846741.522    -3274315.132 9  -2299041.23249  24846741.749    24846747.0474
  22036515.311   -16614715.470 9 -12937126.96349  22036515.338    22036519.1094
  24688296.745    19935085.323 9  15522471.38149  24688297.777    24688306.6674
  22406538.693     6034002.931 9   4695450.35749  22406538.286    22406543.1094
  24374868.140    -6386830.591 9  -4381834.07149  24374868.000    24374876.8724
  24368713.715     8463034.268 9   6591475.73649  24368714.070    24368720.2514
  21803961.169   -19669928.545 9 -15129293.76649  21803961.442    21803965.6064
 99  4 20 17 39 30.0010000  0  6 05 09 02 24 26 04
  24828386.869    -3370769.609 9  -2374200.49349  24828386.536    24828392.2184
  22023793.504   -16681568.956 9 -12989220.56849  22023793.705    22023797.1614
  22413714.538     6071712.113 9   4724834.10249  22413714.119    22413718.6514
  24351791.356    -6508098.311 9  -4476328.20749  24351790.366    24351799.5834
  24380543.484     8525200.076 9   6639916.51849  24380541.902    24380551.2634
  21786974.356   -19759194.161 9 -15198851.35749  21786974.122    21786978.8234
 99  4 20 17 40  0.0010000  0  6 05 09 02 24 26 04
  24810038.699    -3467188.718 9  -2449332.16849  24810039.267    24810044.8084
  22011173.868   -16747885.810 9 -13040896.01549  22011173.732    22011177.4194
  22420946.969     6109718.123 9   4754449.14549  22420946.372    22420951.2764
  24328736.195    -6629252.834 9  -4570734.12149  24328735.667    24328744.5724
  24392414.723     8587583.434 9   6688526.77949  24392415.122    24392421.0734
  21770078.753   -19847980.891 9 -15268035.79249  21770078.628    21770083.0664
 99  4 20 17 40 30.0010000  0  6 05 09 02 24 26 04
  24791694.910    -3563585.077 9  -2524446.10949  24791692.269    24791699.9624
  21998654.870   -16813673.936 9 -13092159.46349  21998654.518    21998658.4104
  22428235.429     6148019.442 9   4784294.30449  22428235.346    22428239.4994
  24305700.734    -6750304.521 9  -4665059.91749  24305700.154    24305709.4074
  24404327.598     8650185.304 9   6737307.31949  24404327.735    24404334.2774
  21753272.878   -19936296.376 9 -15336853.00949  21753273.042    21753277.3954
 99  4 20 17 41  0.0010000  0  6 05 09 02 24 26 04
  24773351.660    -3659979.269 9  -2599558.36249  24773349.737    24773356.6074
  21986231.146   -16878961.018 9 -13143032.49349  21986230.789    21986234.5194
  22435574.120     6186584.452 9   4814344.93049  22435573.306    22435578.4554
  24282682.416    -6871266.692 9  -4759315.95749  24282682.209    24282690.0734
  24416276.428     8712975.689 9   6786234.78149  24416276.474    24416282.5204
  21736551.654   -20024166.742 9 -15405323.38149  21736551.728    21736556.3714
 99  4 20 17 41 30.0010000  0  6 05 09 02 24 26 04
  24755013.446    -3756346.646 9  -2674649.70949  24755013.591    24755017.1894
  21973904.224   -16943739.306 9 -13193509.06449  21973903.923    21973907.7264
  22442965.276     6225425.179 9   4844610.40649  22442965.558    22442969.9154
  24259681.307    -6992138.099 9  -4853501.25549  24259680.693    24259689.4734
  24428259.989     8775950.193 9   6835305.70149  24428260.347    24428267.2094
  21719917.399   -20111580.332 9 -15473437.83349  21719917.294    21719921.9334
 99  4 20 17 42  0.0010000  0  6 05 09 02 24 26 04
  24736680.507    -3852686.860 9  -2749719.91349  24736679.423    24736685.3784
  21961676.095   -17007998.477 9 -13243581.12149  21961676.048    21961679.4454
  22450410.048     6264547.212 9   4875095.07749  22450409.645    22450414.4064
  24236696.503    -7112923.358 9  -4947619.46649  24236694.376    24236704.4794
  24440279.491     8839112.771 9   6884523.15849  24440278.547    24440286.6914
  21703369.732   -20198538.511 9 -15541197.41849  21703369.650    21703373.9864
 99  4 20 17 42 30.0010000  0  6 05 09 02 24 26 04
  24718351.464    -3949005.905 9  -2824773.60549  24718352.061    24718357.1694
  21949544.684   -17071749.597 9 -13293257.29549  21949544.347    21949548.2684
  22457908.179     6303949.535 9   4905798.15149  22457907.724    22457912.0914
  24213726.678    -7233629.853 9  -5041676.28549  24213725.477    24213734.7324
  24452329.418     8902436.277 9   6933865.99949  24452330.294    24452338.7234
  21686908.974   -20285040.617 9 -15608601.63149  21686909.185    21686913.2604
 99  4 20 17 43  0.0010000  0  6 05 09 02 24 26 04
  24700026.224    -4045305.399 9  -2899812.01049  24700025.388    24700031.3514
  21937509.611   -17134994.455 9 -13342538.98149  21937509.418    21937512.8134
  22465458.548     6343626.476 9   4936715.21949  22465457.967    22465462.1334
  24190771.071    -7354261.184 9  -5135674.54649  24190770.008    24190778.6774
  24464409.576     8965917.193 9   6983331.52549  24464410.551    24464416.2144
  21670536.206   -20371079.984 9 -15675645.25949  21670536.260    21670540.5714
 99  4 20 17 43 30.0010000  0  6 05 09 02 24 26 04
  24681704.608    -4141585.785 9  -2974835.55049  24681703.422    24681710.1584
  21925571.755   -17197728.254 9 -13391422.44449  21925571.383    21925575.0044
  22473061.341     6383579.686 9   4967847.55549  22473060.584    22473065.0544
  24167829.380    -7474818.935 9  -5229615.48549  24167828.990    24167836.7594
  24476519.869     9029557.152 9   7032920.96149  24476520.937    24476527.5554
  21654253.789   -20456644.348 9 -15742318.75749  21654253.602    21654258.0494
 99  4 20 17 44  0.0010000  0  6 05 09 02 24 26 04
  24663386.251    -4237848.451 9  -3049845.30849  24663386.013    24663391.2614
  21913729.736   -17259958.029 9 -13439913.15549  21913729.341    21913733.1414
  22480717.448     6423813.248 9   4999198.36349  22480716.594    22480721.5574
  24144904.322    -7595289.491 9  -5323488.45849  24144903.621    24144912.1794
  24488661.441     9093360.762 9   7082637.94649  24488661.722    24488669.3034
  21638063.322   -20541725.406 9 -15808615.64449  21638063.340    21638067.5694
 99  4 20 17 44 30.0010000  0  6 05 09 02 24 26 04
  24645069.803    -4334102.573 9  -3124848.44249  24645069.174    24645075.2414
  21901980.683   -17321699.729 9 -13488023.55649  21901980.414    21901983.8704
  22488426.411     6464323.985 9   5030765.13549  22488425.547    22488430.6504
  24121998.498    -7715660.037 9  -5417283.54049  24121997.289    24122006.1734
  24500832.383     9157318.434 9   7132474.93649  24500831.317    24500839.9014
  21621964.327   -20626326.176 9 -15874538.28749  21621964.485    21621968.8854
 99  4 20 17 45  0.0010000  0  7 05 09 02 24 26 04 08
  24626753.930    -4430352.372 9  -3199848.16649  24626752.964    24626758.5084
  21890325.790   -17382946.505 9 -13535748.29749  21890325.263    21890329.1864
  22496186.918     6505105.786 9   5062543.12349  22496186.154    22496191.8574
  24099113.935    -7835918.781 9  -5510991.46949  24099112.272    24099121.5774
  24513030.224     9221417.343 9   7182422.00549  24513030.502    24513037.8614
  21605955.324   -20710453.912 9 -15940092.32549  21605955.298    21605959.6014
  24550595.323     -652906.895 9   -487185.51749  24550593.718    24550598.6584
 99  4 20 17 45 30.0010000  0  7 05 09 02 24 26 04 08
  24608440.679    -4526589.052 9  -3274837.70149  24608440.501    24608445.8714
  21878765.595   -17443695.585 9 -13583085.22449  21878765.296    21878768.9824
  22504001.717     6546172.486 9   5094543.12449  22504000.964    22504006.0964
  24076252.984    -7956053.009 9  -5604602.38949  24076252.467    24076260.3014
  24525252.653     9285646.084 9   7232470.24849  24525253.850    24525260.8474
  21590038.936   -20794095.054 9 -16005267.20449  21590039.047    21590043.6114
  24528158.464     -770813.276 9   -579060.55149  24528156.351    24528162.3974
 99  4 20 17 46  0.0010000  0  7 05 09 02 24 26 04 08
  24590131.623    -4622802.879 9  -3349809.38749  24590130.857    24590136.9764
  21867299.080   -17503952.404 9 -13630038.56849  21867298.684    21867302.3684
  22511872.967     6587536.093 9   5126774.46649  22511872.075    22511876.9574
  24053416.926    -8076056.679 9  -5698111.56949  24053415.417    24053425.1564
  24537499.764     9350003.667 9   7282618.86749  24537500.762    24537507.6024
  21574215.089   -20877249.931 9 -16070063.17049  21574215.042    21574219.2424
  24505759.348     -888520.194 9   -670780.18449  24505757.837    24505762.9084
 99  4 20 17 46 30.0010000  0  7 05 09 02 24 26 04 08
  24571828.546    -4718985.480 9  -3424756.76849  24571828.047    24571833.5424
  21855929.018   -17563702.275 9 -13676596.88749  21855928.755    21855932.4444
  22519801.886     6629202.390 9   5159241.66249  22519801.616    22519805.7964
  24030607.835    -8195918.325 9  -5791510.07549  24030607.746    24030615.9504
  24549770.127     9414483.929 9   7332863.08849  24549771.687    24549778.3604
  21558484.756   -20959913.232 9 -16134476.09749  21558484.931    21558489.0964
  24483399.922    -1006019.619 9   -762338.11549  24483399.165    24483402.9284
 99  4 20 17 47  0.0010000  0  7 05 09 02 24 26 04 08
  24553534.423    -4815121.626 9  -3499667.95249  24553534.112    24553539.7234
  21844658.537   -17622929.021 9 -13722747.57949  21844658.178    21844662.0244
  22527788.407     6671171.669 9   5191944.96349  22527787.547    22527792.6614
  24007827.031    -8315631.916 9  -5884793.23149  24007826.218    24007834.2394
  24562064.189     9479088.958 9   7383204.53349  24562065.456    24562071.5534
  21542849.694   -21042075.924 9 -16198498.93249  21542849.825    21542853.8074
  24461081.961    -1123301.296 9   -853726.36049  24461080.067    24461085.4564
 99  4 20 17 47 30.0010000  0  7 05 09 02 24 26 04 08
  24535251.149    -4911200.903 9  -3574534.83749  24535250.520    24535256.1004
  21833487.447   -17681633.373 9 -13768491.21549  21833487.011    21833491.0824
  22535832.528     6713443.985 9   5224884.38449  22535832.208    22535836.8544
  23985074.053    -8435199.546 9  -5977962.63849  23985073.139    23985082.2594
  24574385.611     9543837.552 9   7433657.84549  24574385.667    24574392.7064
  21527308.856   -21123743.629 9 -16262136.07049  21527308.884    21527312.8364
  24438806.729    -1240358.538 9   -944939.78049  24438806.207    24438809.9584
 99  4 20 17 48  0.0010000  0  7 05 09 02 24 26 04 08
  24516974.900    -5007242.688 9  -3649372.48549  24516974.572    24516980.5844
  21822413.688   -17739826.400 9 -13813836.40749  21822413.308    21822417.3094
  22543929.053     6755992.396 9   5258038.95349  22543927.863    22543933.4554
  23962347.288    -8554628.759 9  -6071024.20049  23962347.372    23962355.1074
  24586732.780     9608721.023 9   7484216.24849  24586732.799    24586740.7394
  21511857.520   -21204941.008 9 -16325406.71349  21511857.581    21511861.8064
  24416571.102    -1357206.779 9  -1035990.32149  24416569.940    24416575.4604
 99  4 20 17 48 30.0010000  0  7 05 09 02 24 26 04 08
  24498702.712    -5103262.812 9  -3724193.25349  24498701.892    24498708.6364
  21811438.790   -17797499.578 9 -13858776.52749  21811438.355    21811442.0494
  22552075.775     6798803.689 9   5291398.36449  22552075.353    22552079.7944
  23939647.310    -8673916.967 9  -6163975.87649  23939647.237    23939655.0804
  24599104.520     9673735.145 9   7534876.46949  24599105.054    24599111.7824
  21496494.941   -21285671.581 9 -16388313.61349  21496495.166    21496499.0234
  24394377.340    -1473835.376 9  -1126869.73149  24394376.455    24394381.4144
 99  4 20 17 49  0.0010000  0  7 05 09 02 24 26 04 08
  24480432.106    -5199275.094 9  -3799007.94149  24480430.591    24480437.3204
  21800560.903   -17854663.306 9 -13903319.67349  21800560.776    21800564.4524
  22560271.970     6841874.357 9   5324959.88649  22560271.169    22560276.1444
  23916970.519    -8793083.262 9  -6256832.55949  23916969.437    23916978.3104
  24611500.720     9738877.530 9   7585636.63449  24611500.872    24611507.0314
  21481220.527   -21365939.207 9 -16450859.77349  21481220.650    21481224.6114
  24372225.553    -1590243.744 9  -1217577.55549  24372224.040    24372230.0344
 99  4 20 17 49 30.0010000  0  7 05 09 02 24 26 04 08
  24462161.683    -5295286.877 9  -3873822.22849  24462161.988    24462168.3314
  21789777.935   -17911328.100 9 -13947474.04049  21789777.511    21789781.0694
  22568518.753     6885210.783 9   5358728.49549  22568518.220    22568522.8864
  23894314.495    -8912140.594 9  -6349604.33349  23894312.771    23894321.5184
  24623921.593     9804149.886 9   7636498.07749  24623921.124    24623929.1584
  21466036.860   -21445729.973 9 -16513034.36049  21466036.882    21466040.9494
  24350112.435    -1706447.862 9  -1308126.21149  24350110.359    24350115.2904
 99  4 20 17 50  0.0010000  0  7 05 09 02 24 26 04 08
  24443890.256    -5391304.213 9  -3948640.88749  24443888.228    24443897.0384
  21779090.244   -17967491.929 9 -13991238.04349  21779090.000    21779093.8374
  22576817.905     6928822.765 9   5392711.81149  22576817.225    22576822.5934
  23871678.733    -9031091.345 9  -6442293.06549  23871676.612    23871685.4434
  24636365.374     9869542.393 9   7687453.13449  24636365.929    24636373.7764
  21450948.490   -21525019.571 9 -16574818.42749  21450948.477    21450952.6874
  24328041.421    -1822430.941 9  -1398502.65549  24328039.789    24328045.0124
 99  4 20 17 50 30.0010000  0  7 05 09 02 24 26 04 08
  24425617.704    -5487326.510 9  -4023463.35049  24425617.347    24425621.7124
  21768498.629   -18023151.122 9 -14034608.81949  21768498.002    21768502.0414
  22585171.614     6972721.724 9   5426918.76649  22585170.762    22585176.7844
  23849061.201    -9149946.359 9  -6534907.19649  23849060.239    23849069.3764
  24648830.113     9935044.295 9   7738493.42749  24648830.070    24648838.1184
  21435956.846   -21603800.984 9 -16636206.49249  21435956.606    21435961.0604
  24306012.514    -1938193.200 9  -1488707.01249  24306012.298    24306017.6184
 99  4 20 17 51  0.0010000  0  7 05 09 02 24 26 04 08
  24407347.207    -5583338.003 9  -4098277.42149  24407344.787    24407352.3064
  21758004.911   -18078296.212 9 -14077579.00049  21758004.457    21758008.4614
  22593579.272     7016904.207 9   5461346.64049  22593578.591    22593583.5064
  23826460.567    -9268713.001 9  -6627452.47349  23826459.935    23826467.6584
  24661315.226    10000653.404 9   7789617.27949  24661316.516    24661323.5414
  21421063.843   -21682064.297 9 -16697190.85649  21421063.876    21421068.0964
  24284022.615    -2053750.586 9  -1578751.66949  24284022.281    24284027.7014
 99  4 20 17 51 30.0010000  0  7 05 09 02 24 26 04 08
  24389079.541    -5679335.006 9  -4173080.19649  24389080.531    24389083.6174
  21747608.511   -18132929.494 9 -14120150.36949  21747608.434    21747611.9934
  22602037.565     7061352.651 9   5495981.75949  22602036.066    22602042.1544
  23803875.469    -9387398.206 9  -6719934.30349  23803874.800    23803882.5394
  24673817.283    10066351.776 9   7840810.67549  24673816.452    24673825.5824
  21406268.606   -21759813.869 9 -16757774.90049  21406268.279    21406272.5234
  24262070.204    -2169110.947 9  -1668642.78649  24262069.499    24262074.4214
 99  4 20 17 52  0.0010000  0  7 05 09 02 24 26 04 08
  24370813.495    -5775323.349 9  -4247876.20049  24370813.007    24370819.1814
  21737308.175   -18187058.040 9 -14162328.43249  21737307.565    21737311.5844
  22610543.726     7106052.651 9   5530812.90549  22610543.127    22610548.7334
  23781304.928    -9506006.866 9  -6812356.48449  23781303.696    23781311.5294
  24686331.080    10132111.902 9   7892052.19149  24686330.389    24686339.6494
  21391565.976   -21837076.778 9 -16817979.72449  21391565.887    21391570.0814
  24240156.001    -2284270.417 9  -1758377.36249  24240155.599    24240159.8584
 99  4 20 17 52 30.0000000  0  7 05 09 02 24 26 04 08
  24352550.680    -5871295.251 9  -4322659.40449  24352550.460    24352556.3744
  21727105.469   -18240673.435 9 -14204106.63849  21727105.028    21727108.7234
  22619093.925     7150984.248 9   5565824.50949  22619093.777    22619098.4004
  23758752.319    -9624521.075 9  -6904705.07649  23758751.449    23758760.1244
  24698856.141    10197930.621 9   7943339.36849  24698855.808    24698864.8374
  21376954.736   -21913859.409 9 -16877810.30749  21376954.902    21376959.0774
  24218276.490    -2399247.271 9  -1847969.62549  24218275.487    24218281.1804
 99  4 20 17 53  0.0000000  0  7 05 09 02 24 26 04 08
  24334291.737    -5967246.455 9  -4397426.48449  24334289.472    24334295.8594
  21717001.033   -18293772.515 9 -14245482.52649  21717000.913    21717004.3124
  22627688.410     7196148.265 9   5601017.22949  22627688.437    22627692.5194
  23736221.269    -9742922.208 9  -6996965.56949  23736220.636    23736228.6254
  24711396.579    10263830.678 9   7994689.92049  24711395.767    24711405.2554
  21362437.203   -21990149.479 9 -16937257.07149  21362437.242    21362441.1744
  24196435.243    -2514023.977 9  -1937405.92249  24196433.628    24196440.2724
 99  4 20 17 53 30.0000000  0  7 05 09 02 24 26 04 08
  24316034.585    -6063187.657 9  -4472185.78049  24316034.150    24316039.7384
  21706991.487   -18346372.905 9 -14286469.82649  21706991.203    21706994.9424
  22636329.075     7241554.553 9   5636398.71349  22636328.426    22636333.6964
  23713714.457    -9861195.954 9  -7089126.80649  23713714.377    23713721.7194
  24723950.429    10329801.384 9   8046095.50749  24723951.225    24723959.9764
  21348011.931   -22065954.775 9 -16996326.08949  21348012.129    21348015.6864
  24174635.086    -2628584.015 9  -2026673.40949  24174633.949    24174639.7024
 99  4 20 17 54  0.0000000  0  7 05 09 02 24 26 04 08
  24297778.308    -6159124.321 9  -4546941.52649  24297777.719    24297783.2054
  21697078.600   -18398465.681 9 -14327061.57249  21697078.415    21697082.1234
  22645017.659     7287213.272 9   5671976.92349  22645016.921    22645022.2474
  23691236.175    -9979319.400 9  -7181170.92049  23691235.609    23691243.7804
  24736518.999    10395848.849 9   8097560.90749  24736519.964    24736528.0324
  21333678.657   -22141276.593 9 -17055018.37049  21333678.452    21333682.3864
  24152875.824    -2742928.357 9  -2115772.80649  24152875.073    24152881.5144
 99  4 20 17 54 30.0000000  0  7 05 09 02 24 26 04 08
  24279519.205    -6255076.362 9  -4621709.27749  24279518.019    24279524.1724
  21687262.101   -18450051.859 9 -14367258.57449  21687262.191    21687265.7834
  22653751.561     7333110.435 9   5707740.91249  22653750.685    22653756.0414
  23668785.106   -10097299.602 9  -7273103.43049  23668784.511    23668791.6084
  24749100.628    10461964.262 9   8149079.28649  24749102.253    24749107.9274
  21319436.477   -22216119.422 9 -17113337.42249  21319436.601    21319440.5034
  24131155.086    -2857071.268 9  -2204715.25749  24131154.569    24131160.4824
 99  4 20 17 55  0.0000000  0  7 05 09 02 24 26 04 08
  24261258.432    -6351036.474 9  -4696483.30349  24261258.350    24261263.7644
  21677540.162   -18501140.955 9 -14407068.23749  21677539.891    21677543.6174
  22662534.142     7379263.452 9   5743704.26549  22662533.135    22662538.2904
  23646360.040   -10215143.400 9  -7364929.65849  23646358.926    23646367.0944
  24761691.387    10528128.188 9   8200635.44249  24761692.097    24761699.2704
  21305283.609   -22290492.988 9 -17171290.80849  21305283.489    21305287.5304
  24109475.507    -2970998.315 9  -2293489.54149  24109475.467    24109481.1784
 99  4 20 17 55 30.0000000  0  7 05 09 02 24 26 04 08
  24242997.524    -6446997.967 9  -4771258.38849  24242997.032    24243002.0794
  21667913.187   -18551731.146 9 -14446489.14649  21667912.626    21667916.4054
  22671366.100     7425675.554 9   5779869.51049  22671365.320    22671370.4474
  23623957.575   -10332868.614 9  -7456663.48149  23623957.295    23623965.0004
  24774286.879    10594317.227 9   8252211.18349  24774287.967    24774295.2904
  21291218.479   -22364405.508 9 -17228884.93949  21291218.666    21291222.2944
  24087833.551    -3084727.649 9  -2382109.74549  24087832.581    24087838.4084
 99  4 20 17 56  0.0000000  0  7 05 09 02 24 26 04 08
  24224736.872    -6542958.161 9  -4846032.46549  24224736.164    24224742.1444
  21658383.642   -18601809.109 9 -14485510.91649  21658383.153    21658386.9814
  22680246.525     7472342.235 9   5816233.11649  22680245.533    22680250.7564
  23601578.838   -10450469.796 9  -7548300.66549  23601578.537    23601585.8864
  24786886.921    10660529.564 9   8303805.07549  24786887.135    24786894.0144
  21277241.696   -22437854.045 9 -17286117.53049  21277241.652    21277245.7054
  24066228.795    -3198261.510 9  -2470577.64149  24066227.947    24066233.7554
 99  4 20 17 56 30.0000000  0  7 05 09 02 24 26 04 08
  24206476.601    -6638916.890 9  -4920805.41849  24206476.105    24206482.0304
  21648950.102   -18651382.640 9 -14524139.62449  21648949.854    21648953.4534
  22689172.169     7519246.503 9   5852781.86549  22689171.973    22689175.9784
  23579221.151   -10567960.136 9  -7639851.48249  23579220.375    23579227.5204
  24799489.710    10726757.169 9   8355410.88049  24799489.361    24799497.4554
  21263352.247   -22510843.650 9 -17342992.50849  21263352.387    21263356.0394
  24044664.023    -3311585.639 9  -2558882.10649  24044663.666    24044669.7274
 99  4 20 17 57  0.0000000  0  7 05 09 02 24 26 04 08
  24188232.889    -6734788.764 9  -4995510.69749  24188232.505    24188238.0424
  21639627.463   -18700373.332 9 -14562314.17549  21639627.478    21639631.0704
  22698156.586     7566459.293 9   5889571.00549  22698155.764    22698160.8384
  23556900.707   -10685253.917 9  -7731249.13949  23556899.118    23556908.6974
  24812111.806    10793085.920 9   8407095.47149  24812111.283    24812120.5334
  21249564.618   -22583298.015 9 -17399450.41849  21249564.662    21249568.5184
  24023154.826    -3424617.593 9  -2646958.91949  24023153.377    24023159.2774
 99  4 20 17 57 30.0000000  0  7 05 09 02 24 26 04 08
  24169980.891    -6830703.149 9  -5070249.08649  24169980.391    24169986.2684
  21630396.204   -18748883.927 9 -14600114.62349  21630396.028    21630399.6384
  22707176.929     7613861.863 9   5926508.02249  22707176.669    22707182.7634
  23534597.488   -10802457.196 9  -7822576.27449  23534596.778    23534605.2984
  24824736.472    10859427.957 9   8458790.40849  24824735.843    24824744.5284
  21235861.554   -22655307.939 9 -17455562.00349  21235861.569    21235865.2614
  24001679.625    -3537469.315 9  -2734895.25549  24001678.584    24001684.3774
 99  4 20 17 58  0.0000000  0  7 05 09 02 24 26 04 08
  24151637.176    -6927099.464 9  -5145363.02549  24151636.840    24151642.5374
  21621174.821   -18797342.712 9 -14637874.69349  21621174.442    21621177.7914
  22716151.448     7661023.146 9   5963257.02249  22716150.956    22716156.5414
  23512232.826   -10919984.088 9  -7914155.57049  23512232.920    23512239.5524
  24837286.187    10925376.796 9   8510178.96449  24837287.194    24837295.3144
  21222163.329   -22727292.440 9 -17511653.78149  21222163.362    21222167.1444
  23980161.669    -3650546.947 9  -2823007.66249  23980161.490    23980166.5214
 99  4 20 17 58 30.0000000  0  7 05 09 02 24 26 04 08
  24133268.373    -7023627.625 9  -5220579.67149  24133267.447    24133273.2844
  21612025.275   -18845423.769 9 -14675340.43749  21612024.926    21612028.5744
  22725143.544     7708276.992 9   6000078.14949  22725142.781    22725148.3094
  23489870.719   -11037497.821 9  -8005724.61849  23489870.531    23489877.7324
  24849823.791    10991261.892 9   8561517.83649  24849824.155    24849831.9064
  21208536.812   -22798900.253 9 -17567452.03849  21208536.985    21208540.2754
  23958666.937    -3763502.254 9  -2911024.72949  23958665.921    23958671.3944
 99  4 20 17 59  0.0000000  0  7 05 09 02 24 26 04 08
  24114948.754    -7119897.103 9  -5295594.77149  24114947.969    24114953.6834
  21603020.839   -18892742.540 9 -14712212.18749  21603020.600    21603024.1634
  22734229.752     7756024.967 9   6037284.30949  22734229.640    22734234.2034
  23467584.413   -11154612.992 9  -8096983.09349  23467583.870    23467591.5044
  24862421.153    11057461.018 9   8613101.43249  24862422.573    24862430.2824
  21195058.941   -22869726.992 9 -17622641.66349  21195058.856    21195062.6024
  23937265.839    -3875965.342 9  -2998658.26349  23937265.236    23937270.7154
 99  4 20 17 59 30.0000000  0  7 05 09 02 24 26 04 08
  24096679.072    -7215904.560 9  -5370405.68549  24096678.047    24096682.0774
  21594160.668   -18939303.229 9 -14748493.22749  21594160.354    21594163.9574
  22743415.246     7804294.798 9   6074897.11649  22743414.951    22743420.2844
  23445375.897   -11271318.910 9  -8187922.67749  23445375.274    23445382.6934
  24875078.110    11123972.389 9   8664928.30749  24875078.941    24875086.5644
  21181734.086   -22939749.263 9 -17677204.43149  21181733.711    21181737.4394
  23915963.716    -3987909.081 9  -3085887.14049  23915963.693    23915968.9084
 99  4 20 18  0  0.0000000  0  7 05 09 02 24 26 04 08
  24078400.337    -7311959.635 9  -5445253.72449  24078399.821    24078404.9764
  21585384.261   -18985423.815 9 -14784431.32949  21585383.900    21585387.2884
  22752640.273     7852772.479 9   6112671.88449  22752639.535    22752644.8214
  23423187.796   -11387917.606 9  -8278778.70249  23423187.245    23423195.1084
  24887729.722    11190456.607 9   8716734.03349  24887729.433    24887738.0094
  21168498.898   -23009300.048 9 -17731399.81449  21168498.953    21168502.5004
  23894700.845    -4099646.050 9  -3172954.87149  23894699.504    23894705.3374
 99  4 20 18  0 30.0000000  0  7 05 09 02 24 26 04 08
  24060106.908    -7408092.142 9  -5520162.10049  24060105.945    24060112.7094
  21576687.908   -19031123.433 9 -14820041.40549  21576687.490    21576691.1054
  22761899.604     7901430.167 9   6150586.91149  22761898.775    22761903.7504
  23401015.176   -11504434.766 9  -8369571.17749  23401014.805    23401021.5934
  24900368.346    11256872.575 9   8768486.58249  24900368.833    24900377.2874
  21155346.726   -23078414.929 9 -17785255.52749  21155346.578    21155350.4844
  23873470.837    -4211210.208 9  -3259887.95249  23873470.360    23873476.0624
 99  4 20 18  1  0.0000000  0  7 05 09 02 24 26 04 08
  24041822.889    -7504175.405 9  -5595032.08249  24041822.083    24041827.2814
  21568102.138   -19076241.672 9 -14855198.46149  21568101.974    21568105.6994
  22771221.340     7950416.505 9   6188758.02749  22771220.432    22771225.9304
  23378885.396   -11620727.694 9  -8460188.94449  23378885.175    23378892.1694
  24913022.911    11323372.875 9   8820304.82549  24913023.733    24913031.5554
  21142303.361   -23146957.896 9 -17838665.59549  21142303.238    21142307.0654
  23852299.834    -4322464.514 9  -3346579.55949  23852299.257    23852305.5464
 99  4 20 18  1 30.0000000  0  7 05 09 02 24 26 04 08
  24023519.603    -7600359.100 9  -5669980.33449  24023518.524    24023525.6464
  21559601.311   -19120914.012 9 -14890008.05649  21559601.059    21559604.4504
  22780578.635     7999589.333 9   6227074.47349  22780577.884    22780583.4104
  23356772.561   -11736931.373 9  -8550737.15149  23356771.763    23356779.0684
  24925665.037    11389806.919 9   8872071.43849  24925666.040    24925674.3914
  21129339.802   -23215081.988 9 -17891749.26749  21129339.703    21129343.7074
  23831162.867    -4433539.017 9  -3433131.02849  23831161.940    23831167.2324
 99  4 20 18  2  0.0000000  0  7 05 09 02 24 26 04 08
  24005220.840    -7696518.987 9  -5744910.00749  24005219.372    24005225.9224
  21551210.039   -19165010.245 9 -14924368.74249  21551209.898    21551213.3934
  22789991.119     8049052.130 9   6265616.86149  22789990.918    22789996.0894
  23334696.141   -11852943.072 9  -8641135.76049  23334695.976    23334702.9494
  24938313.718    11456275.182 9   8923864.73449  24938314.254    24938322.9224
  21116474.371   -23282690.374 9 -17944431.09149  21116474.769    21116478.3644
  23810079.357    -4544333.743 9  -3519464.53849  23810078.795    23810084.3624
 99  4 20 18  2 30.0000000  0  7 05 09 02 24 26 04 08
  23986926.320    -7792656.393 9  -5819822.19049  23986925.677    23986932.0734
  21542926.558   -19208540.209 9 -14958288.17449  21542925.883    21542929.6654
  22799457.580     8098798.431 9   6304380.17849  22799457.584    22799462.8224
  23312651.990   -11968785.513 9  -8731402.46149  23312651.577    23312658.0614
  24950966.852    11522767.533 9   8975676.77049  24950966.965    24950976.1064
  21103709.680   -23349769.499 9 -17996700.50449  21103709.606    21103713.5594
  23789047.264    -4654857.637 9  -3605586.99449  23789046.436    23789052.0854
 99  4 20 18  3  0.0000000  0  7 05 09 02 24 26 04 08
  23968647.674    -7888710.825 9  -5894669.72349  23968646.341    23968652.9794
  21534758.426   -19251463.549 9 -14991734.92049  21534758.247    21534761.7714
  22808987.638     8148878.895 9   6343403.87049  22808987.866    22808992.7804
  23290649.995   -12084406.669 9  -8821496.74049  23290649.179    23290656.2694
  24963631.324    11589319.447 9   9027535.24749  24963630.558    24963641.2004
  21091057.812   -23416255.502 9 -18048507.74349  21091057.555    21091061.3154
  23768075.220    -4765066.521 9  -3691464.00049  23768074.634    23768079.1514
 99  4 20 18  3 30.0000000  0  7 05 09 02 24 26 04 08
  23950396.792    -7984619.299 9  -5969403.52249  23950395.786    23950401.5824
  21526713.433   -19293740.372 9 -15024677.88649  21526713.227    21526716.7484
  22818587.919     8199328.001 9   6382714.82149  22818587.341    22818593.0434
  23268700.831   -12199750.299 9  -8911374.75349  23268699.874    23268707.1674
  24976316.186    11655978.290 9   9079477.04149  24976317.295    24976325.9914
  21078528.900   -23482095.058 9 -18099811.26149  21078528.748    21078532.8384
  23747173.149    -4874907.962 9  -3777054.71049  23747171.545    23747177.7604
 99  4 20 18  4  0.0000000  0  7 05 09 02 24 26 04 08
  23932157.299    -8080468.965 9  -6044091.50749  23932156.083    23932162.1514
  21518773.281   -19335465.932 9 -15057191.29249  21518772.684    21518776.6764
  22828236.097     8250029.322 9   6422222.30249  22828235.411    22828240.2274
  23246788.587   -12314898.933 9  -9001100.81249  23246787.984    23246794.4894
  24989006.616    11722665.700 9   9131441.05849  24989006.371    24989013.8524
  21066107.728   -23547368.600 9 -18150673.72949  21066107.657    21066111.3604
  23726322.871    -4984477.166 9  -3862433.27249  23726322.509    23726326.9664
 99  4 20 18  4 30.0000000  0  7 05 09 02 24 26 04 08
  23913925.954    -8176275.181 9  -6118745.61949  23913925.134    23913930.5834
  21510934.862   -19376656.973 9 -15089288.19649  21510934.610    21510938.2464
  22837928.899     8300965.186 9   6461912.52449  22837928.391    22837933.6414
  23224914.282   -12429848.236 9  -9090671.56549  23224914.047    23224920.6334
  25001702.506    11789382.398 9   9183427.90149  25001702.671    25001710.4514
  21053797.303   -23612060.113 9 -18201082.66649  21053797.189    21053800.8364
  23705522.618    -5093784.439 9  -3947607.71749  23705522.308    23705527.6414
 99  4 20 18  5  0.0000000  0  7 05 09 02 24 26 04 08
  23895704.949    -8272027.252 9  -6193357.54949  23895703.838    23895708.8874
  21503201.650   -19417295.309 9 -15120954.41849  21503201.763    21503205.1064
  22847668.020     8352144.845 9   6501792.73549  22847667.239    22847673.0794
  23203080.642   -12544584.362 9  -9180076.18649  23203080.042    23203087.3894
  25014406.764    11856142.912 9   9235448.87749  25014405.238    25014415.9644
  21041598.010   -23676167.530 9 -18251036.46749  21041598.155    21041601.7884
  23684775.265    -5202812.675 9  -4032564.73649  23684774.542    23684779.1974
 99  4 20 18  5 30.0000000  0  7 05 09 02 24 26 04 08
  23877496.311    -8367714.159 9  -6267918.71149  23877495.734    23877500.4464
  21495578.147   -19457357.445 9 -15152171.65449  21495577.831    21495581.2354
  22857458.408     8403593.827 9   6541882.79849  22857457.861    22857463.6564
  23181290.141   -12659093.796 9  -9269304.16949  23181290.287    23181296.4834
  25027122.816    11922966.578 9   9287519.08149  25027121.474    25027131.5734
  21029509.675   -23739692.254 9 -18300536.22249  21029509.833    21029513.4684
  23664086.683    -5311532.192 9  -4117281.20349  23664085.804    23664090.3354
 99  4 20 18  6  0.0000000  0  7 05 09 02 24 26 04 08
  23859283.313    -8463424.348 9  -6342498.01049  23859282.892    23859286.9764
  21488049.398   -19496921.306 9 -15183000.62849  21488049.293    21488052.6724
  22867290.450     8455261.233 9   6582143.06449  22867289.555    22867295.3224
  23159528.608   -12773451.076 9  -9358413.59849  23159528.442    23159534.5664
  25039832.924    11989758.622 9   9339564.61149  25039833.004    25039837.5854
  21017517.340   -23802712.288 9 -18349642.71049  21017517.206    21017520.9034
  23643443.519    -5420012.145 9  -4201810.96749  23643442.995    23643447.6754
 99  4 20 18  6 30.0000000  0  7 05 09 02 24 26 04 08
  23841050.467    -8559238.886 9  -6417158.64149  23841050.624    23841054.3464
  21480600.962   -19536063.144 9 -15213500.75049  21480600.770    21480604.3134
  22877154.394     8507095.939 9   6622533.69349  22877153.536    22877159.7934
  23137780.292   -12887738.842 9  -9447468.86549  23137780.028    23137786.4984
  25052517.846    12056415.909 9   9391505.15849  25052518.962    25052524.7124
  21005603.395   -23865320.569 9 -18398428.34949  21005603.393    21005607.3074
  23622835.631    -5528307.012 9  -4286196.53149  23622835.112    23622840.0004
 99  4 20 18  7  0.0000000  0  7 05 09 02 24 26 04 08
  23822829.593    -8654990.550 9  -6491770.26449  23822829.538    23822834.4454
  21473266.029   -19574608.422 9 -15243536.02149  21473265.897    21473269.2684
  22887082.518     8559267.694 9   6663186.92349  22887082.512    22887086.6564
  23116076.592   -13001792.243 9  -9536341.51249  23116076.193    23116083.7414
  25065206.836    12123097.213 9   9443464.45549  25065208.547    25065215.2424
  20993795.176   -23927373.208 9 -18446781.02049  20993794.988    20993798.8814
  23602295.693    -5636244.689 9  -4370303.75649  23602295.461    23602299.9294
 99  4 20 18  7 30.0000000  0  7 05 09 02 24 26 04 08
  23804605.023    -8750761.125 9  -6566396.60549  23804604.915    23804609.4004
  21466028.314   -19612642.666 9 -15273173.08249  21466027.888    21466031.4604
  22897057.659     8611687.379 9   6704033.35749  22897057.057    22897061.8404
  23094403.490   -13115684.572 9  -9625088.64249  23094402.668    23094409.2554
  25077882.882    12189708.864 9   9495369.44649  25077884.222    25077890.1324
  20982078.404   -23988945.106 9 -18494759.09149  20982078.379    20982081.9324
  23581810.139    -5743896.427 9  -4454188.18749  23581808.993    23581814.4204
 99  4 20 18  8  0.0000000  0  6 05 09 02 24 04 08
  23786378.830    -8846539.957 9  -6641029.38949  23786377.893    23786383.0604
  21458888.706   -19650161.328 9 -15302408.39849  21458888.661    21458892.1644
  22907078.199     8664345.379 9   6745065.49649  22907077.830    22907082.8784
  23072763.802   -13229401.456 9  -9713699.07749  23072763.138    23072769.8114
  20970458.984   -24050005.265 9 -18542338.40349  20970458.933    20970462.6214
  23561381.591    -5851248.935 9  -4537839.45549  23561380.626    23561386.0604
 99  4 20 18  8 30.0000000  0  6 05 09 02 24 04 08
  23768151.742    -8942323.793 9  -6715666.07549  23768150.752    23768155.9664
  21451846.339   -19687169.302 9 -15331245.77649  21451846.266    21451849.8564
  22917137.086     8717204.885 9   6786254.64349  22917136.976    22917141.6114
  23051154.288   -13342959.196 9  -9802185.50349  23051153.798    23051160.4524
  20958935.879   -24110559.352 9 -18589523.37649  20958936.200    20958939.5984
  23541005.914    -5958323.814 9  -4621274.37449  23541004.692    23541010.3684
 99  4 20 18  9  0.0000000  0  6 05 09 02 24 04 08
  23749922.995    -9038116.643 9  -6790309.78449  23749921.691    23749927.0294
  21444898.383   -19723681.238 9 -15359696.62549  21444898.126    21444901.5194
  22927231.268     8770250.151 9   6827588.53049  22927231.078    22927235.8924
  23029573.927   -13456363.860 9  -9890552.65749  23029573.298    23029580.9844
  20947510.955   -24170597.801 9 -18636306.55049  20947510.900    20947514.5334
  23520678.883    -6065142.491 9  -4704509.66249  23520678.373    23520683.0644
 99  4 20 18  9 30.0000000  0  6 05 09 02 24 04 08
  23731695.277    -9133903.152 9  -6864948.54449  23731693.800    23731699.1904
  21438047.396   -19759683.334 9 -15387750.19649  21438046.759    21438050.6474
  22937364.366     8823499.562 9   6869081.49149  22937363.853    22937369.0734
  23008027.127   -13569592.422 9  -9978782.59549  23008026.705    23008033.4854
  20936188.832   -24230095.659 9 -18682668.48649  20936188.848    20936192.4144
  23500405.124    -6171681.573 9  -4787527.09449  23500404.429    23500409.1864
 99  4 20 18 10  0.0000000  0  6 05 09 02 24 04 08
  23713472.008    -9229666.638 9  -6939569.35649  23713471.635    23713476.7384
  21431298.396   -19795149.394 9 -15415386.07549  21431298.401    21431301.6604
  22947540.473     8876974.891 9   6910750.50949  22947539.709    22947544.5604
  22986518.190   -13682622.609 9 -10066857.94549  22986517.735    22986524.4364
  20924971.779   -24289041.683 9 -18728600.42049  20924971.873    20924975.4904
  23480184.942    -6277939.431 9  -4870325.36449  23480184.207    23480188.0554
 99  4 20 18 10 30.0000000  0  6 05 09 02 24 04 08
  23695255.702    -9325392.527 9  -7014160.86949  23695254.717    23695260.2094
  21424656.324   -19830053.850 9 -15442584.35149  21424656.109    21424659.6404
  22957765.143     8930706.034 9   6952618.85149  22957764.490    22957769.9324
  22965050.791   -13795433.767 9 -10154762.64849  22965050.376    22965057.5974
  20913860.960   -24347429.231 9 -18774097.17949  20913861.175    20913864.9064
  23460020.743    -6383902.831 9  -4952894.19049  23460019.986    23460024.7304
 99  4 20 18 11  0.0000000  0  6 05 09 02 24 04 08
  23677046.240    -9421083.444 9  -7088725.14449  23677045.892    23677050.8744
  21418124.786   -19864377.302 9 -15469329.88849  21418124.561    21418128.0444
  22968043.276     8984717.562 9   6994705.68449  22968043.025    22968048.4124
  22943628.861   -13908005.977 9 -10242481.14649  22943628.497    22943635.1374
  20902857.516   -24405252.599 9 -18819154.31549  20902857.323    20902861.2224
  23439917.703    -6489544.741 9  -5035212.49549  23439915.934    23439921.4844
 99  4 20 18 11 30.0000000  0  6 05 09 02 24 04 08
  23658842.203    -9516746.217 9  -7163267.47249  23658842.254    23658846.4984
  21411704.326   -19898117.065 9 -15495620.60149  21411704.026    21411707.5594
  22978373.125     9039000.890 9   7037004.32849  22978371.894    22978378.4554
  22922251.576   -14020344.529 9 -10330017.58449  22922251.166    22922258.2504
  20891959.878   -24462520.071 9 -18863778.28549  20891959.867    20891963.5904
  23419874.314    -6594873.602 9  -5117286.85749  23419873.489    23419878.6434
 99  4 20 18 12  0.0000000  0  6 05 09 02 24 04 08
  23640641.959    -9612389.151 9  -7237794.36149  23640641.045    23640646.6604
  21405388.881   -19931304.945 9 -15521481.28149  21405388.148    21405391.9564
  22988751.408     9093539.952 9   7079502.21549  22988750.589    22988756.8104
  22900916.579   -14132460.735 9 -10417380.76549  22900915.776    22900923.0894
  20881167.011   -24519236.698 9 -18907973.02549  20881166.919    20881170.3544
  23399888.163    -6699901.304 9  -5199126.56149  23399887.225    23399891.9494
 99  4 20 18 12 30.0000000  0  6 05 09 02 24 04 08
  23622441.129    -9708034.572 9  -7312323.18149  23622440.375    23622445.0024
  21399172.524   -19963971.740 9 -15546935.92149  21399172.161    21399175.7464
  22999175.541     9148318.641 9   7122186.84649  22999175.182    22999180.2424
  22879619.043   -14244379.771 9 -10504590.31149  22879617.830    22879625.3444
  20870475.176   -24575422.332 9 -18951754.00649  20870475.031    20870478.5744
  23379957.759    -6804636.027 9  -5280737.99149  23379957.112    23379961.6794
 99  4 20 18 13  0.0000000  0  6 05 09 02 24 04 08
  23604241.146    -9803675.254 9  -7386848.32149  23604239.825    23604245.6184
  21393054.752   -19996121.023 9 -15571987.30349  21393054.537    21393058.2904
  23009643.768     9203329.006 9   7165051.99949  23009643.126    23009649.2944
  22858359.422   -14356099.318 9 -10591644.42149  22858358.917    22858365.6524
  20859885.618   -24631070.505 9 -18995116.19049  20859885.672    20859889.3474
  23360082.186    -6909082.782 9  -5362125.03149  23360081.532    23360086.2094
 99  4 20 18 13 30.0000000  0  6 05 09 02 24 04 08
  23586047.694    -9899282.170 9  -7461347.15249  23586046.949    23586051.6274
  21387036.500   -20027746.951 9 -15596630.87549  21387036.323    21387039.8134
  23020157.305     9258577.443 9   7208102.64949  23020156.187    23020161.8344
  22837141.193   -14467601.697 9 -10678529.29949  22837140.477    22837147.0094
  20849401.883   -24686162.942 9 -19038045.33049  20849401.750    20849405.3784
  23340263.174    -7013232.395 9  -5443280.54749  23340262.013    23340266.6434
 99  4 20 18 14  0.0000000  0  6 05 09 02 24 04 08
  23567863.364    -9994841.394 9  -7535808.83949  23567862.738    23567867.2354
  21381121.300   -20058831.612 9 -15620852.69049  21381120.728    21381124.6774
  23030717.399     9314070.717 9   7251344.08349  23030717.486    23030723.1104
  22815966.425   -14578875.628 9 -10765236.14049  22815966.195    22815971.8564
  20839023.868   -24740699.725 9 -19080541.48449  20839023.954    20839027.4234
  23320504.343    -7117064.955 9  -5524188.99049  23320503.262    23320508.7374
 99  4 20 18 14 30.0000000  0  6 05 09 02 24 04 08
  23549690.750   -10090339.718 9  -7610223.05449  23549689.469    23549695.5754
  21375320.153   -20089316.940 9 -15644607.49049  21375320.104    21375323.5084
  23041330.175     9369840.491 9   7294800.96149  23041329.839    23041335.9674
  22794838.944   -14689900.625 9 -10851749.02349  22794838.112    22794845.1274
  20828754.268   -24794666.856 9 -19122593.76449  20828754.443    20828757.9024
  23300809.429    -7220562.177 9  -5604836.13749  23300808.186    23300812.4924
 99  4 20 18 15  0.0000000  0  6 05 09 02 24 04 08
  23531522.304   -10185815.780 9  -7684619.92349  23531521.657    23531526.5514
  21369626.369   -20119238.185 9 -15667922.74149  21369626.086    21369629.7554
  23051987.250     9425843.206 9   7338439.36149  23051988.061    23051993.2044
  22773753.379   -14800705.777 9 -10938090.59449  22773752.929    22773759.4064
  20818585.930   -24848101.831 9 -19164231.37749  20818585.903    20818589.7204
  23281172.563    -7323754.003 9  -5685245.33549  23281172.620    23281176.6494
 99  4 20 18 15 30.0000000  0  6 05 09 02 24 04 08
  23513358.269   -10281268.451 9  -7758998.56349  23513357.022    23513362.9104
  21364038.772   -20148600.968 9 -15690802.82749  21364038.734    21364042.3004
  23062690.854     9482089.977 9   7382267.93649  23062690.651    23062696.4334
  22752710.463   -14911286.998 9 -11024257.67149  22752710.376    22752716.3134
  20808518.258   -24901007.749 9 -19205456.72749  20808518.153    20808522.0594
  23261598.526    -7426616.013 9  -5765397.50949  23261597.311    23261603.0174
 99  4 20 18 16  0.0000000  0  6 05 09 02 24 04 08
  23495200.430   -10376688.125 9  -7833351.50349  23495199.882    23495204.5394
  21358560.060   -20177391.837 9 -15713237.26149  21358559.907    21358563.4854
  23073444.933     9538602.771 9   7426303.82049  23073444.387    23073449.1784
  22731714.000   -15021623.606 9 -11110234.13449  22731713.662    22731719.8754
  20798554.871   -24953365.834 9 -19246255.20149  20798554.730    20798558.2194
  23242091.428    -7529126.715 9  -5845275.94849  23242089.876    23242095.7984
 99  4 20 18 16 30.0000000  0  6 05 09 02 24 04 08
  23477046.555   -10472086.913 9  -7907688.16249  23477045.110    23477050.7564
  21353184.026   -20205643.374 9 -15735251.44549  21353183.758    21353187.3424
  23084247.955     9595372.300 9   7470539.73849  23084247.768    23084252.6744
  22710762.726   -15131722.735 9 -11196025.54249  22710762.396    22710768.6564
  20788695.145   -25005178.905 9 -19286628.99449  20788695.186    20788698.5194
  23222648.849    -7631298.288 9  -5924890.12449  23222648.155    23222653.8714
 99  4 20 18 17  0.0000000  0  6 05 09 02 24 04 08
  23458892.830   -10567484.927 9  -7982024.23149  23458891.777    23458897.1774
  21347895.950   -20233432.236 9 -15756905.10749  21347895.869    21347899.5104
  23095086.566     9652329.826 9   7514922.14949  23095086.105    23095091.8784
  22689848.441   -15241628.204 9 -11281666.01449  22689848.215    22689853.7794
  20778933.025   -25056478.918 9 -19326602.99549  20778932.804    20778936.5894
  23203264.486    -7733164.270 9  -6004266.16949  23203263.905    23203268.5834
 99  4 20 18 17 30.0000000  0  6 05 09 02 24 04 08
  23440751.535   -10662817.300 9  -8056309.13449  23440749.927    23440756.2364
  21342706.616   -20260702.330 9 -15778154.52949  21342706.432    21342710.2284
  23105969.229     9709518.630 9   7559484.78149  23105968.031    23105973.6944
  22668980.423   -15351289.695 9 -11367116.40049  22668979.722    22668986.6384
  20769281.160   -25107199.677 9 -19366125.63149  20769281.106    20769284.5714
  23183946.584    -7834680.685 9  -6083369.83349  23183945.518    23183949.6024
 99  4 20 18 18  0.0000000  0  6 05 09 02 24 04 08
  23422626.001   -10758066.979 9  -8130529.59949  23422625.134    23422629.9224
  21337621.117   -20287426.580 9 -15798978.61649  21337620.842    21337624.3514
  23116897.171     9766945.530 9   7604232.95949  23116895.616    23116902.0364
  22648161.510   -15460693.263 9 -11452365.81949  22648161.024    22648167.0304
  20759746.800   -25157302.829 9 -19405167.02149  20759746.686    20759750.2884
  23164695.671    -7935844.601 9  -6162198.83249  23164694.406    23164698.9084
 99  4 20 18 18 30.0000000  0  6 05 09 02 24 04 08
  23404508.243   -10853276.760 9  -8204718.99649  23404507.567    23404512.0684
  21332635.055   -20313628.395 9 -15819395.60849  21332634.874    21332638.3924
  23127861.591     9824563.705 9   7649130.17549  23127861.305    23127867.0364
  22627384.457   -15569876.921 9 -11537443.88049  22627383.608    22627390.5934
  20750324.062   -25206819.839 9 -19443751.67449  20750324.209    20750327.5754
  23145506.881    -8036681.637 9  -6240773.08649  23145506.219    23145511.6334
 99  4 20 18 19  0.0000000  0  6 05 09 02 24 04 08
  23386400.581   -10948432.803 9  -8278866.49349  23386399.503    23386404.5884
  21327755.452   -20339270.984 9 -15839376.84349  21327754.913    21327758.6994
  23138867.602     9882400.225 9   7694197.53549  23138867.525    23138872.7904
  22606653.608   -15678817.654 9 -11622332.62649  22606652.960    22606660.0464
  20741016.295   -25255732.572 9 -19481865.45949  20741016.253    20741019.7024
  23126385.740    -8137163.987 9  -6319070.99149  23126384.257    23126389.6574
 99  4 20 18 19 30.0000000  0  6 05 09 02 24 04 08
  23368298.777   -11043557.765 9  -8352989.78249  23368297.105    23368303.4204
  21322986.202   -20364333.498 9 -15858906.07749  21322986.054    21322989.7514
  23149921.385     9940487.983 9   7739460.64849  23149920.813    23149926.3954
  22585971.118   -15787504.298 9 -11707023.39549  22585970.158    22585976.8684
  20731823.325   -25304041.585 9 -19519508.81949  20731823.387    20731826.9474
  23107333.109    -8237285.952 9  -6397088.06849  23107332.836    23107337.3194
 99  4 20 18 20  0.0000000  0  6 05 09 02 24 04 08
  23350189.158   -11138723.604 9  -8427144.91949  23350188.801    23350193.2744
  21318315.922   -20388876.107 9 -15878030.19049  21318315.527    21318319.0814
  23161015.385     9998787.207 9   7784888.56049  23161014.034    23161020.0834
  22565327.355   -15895987.408 9 -11791555.56449  22565326.450    22565333.3434
  20722730.034   -25351826.922 9 -19556744.11749  20722730.023    20722733.6564
  23088340.031    -8337094.736 9  -6474861.08149  23088339.335    23088343.8524
 99  4 20 18 20 30.0000000  0  6 05 09 02 24 04 08
  23332078.667   -11233894.414 9  -8501303.94349  23332078.878    23332082.8834
  21313751.163   -20412864.001 9 -15896722.05749  21313751.037    21313754.3514
  23172159.910    10057351.648 9   7830523.11749  23172158.488    23172164.9614
  22544731.402   -16004219.483 9 -11875892.13649  22544730.228    22544737.3794
  20713739.143   -25399074.313 9 -19593560.23849  20713739.127    20713742.6094
  23069415.765    -8436542.447 9  -6552352.77649  23069414.367    23069419.9264
 99  4 20 18 21  0.0000000  0  6 05 09 02 24 04 08
  23313966.705   -11329073.388 9  -8575469.29949  23313966.347    23313971.3734
  21309286.109   -20436327.828 9 -15915005.55149  21309285.748    21309289.1724
  23183353.023    10116172.073 9   7876357.15149  23183351.720    23183359.3364
  22524180.903   -16112212.433 9 -11960042.36349  22524180.714    22524186.5074
  20704846.555   -25445804.889 9 -19629973.64949  20704846.473    20704850.0394
  23050554.892    -8535656.824 9  -6629584.70349  23050554.243    23050558.8864
 99  4 20 18 21 30.0000000  0  6 05 09 02 24 04 08
  23295851.998   -11424266.390 9  -8649645.59849  23295850.548    23295856.5994
  21304919.783   -20459273.142 9 -15932885.01249  21304919.331    21304923.1124
  23194590.272    10175224.792 9   7922372.18549  23194589.830    23194595.5504
  22503673.543   -16219978.948 9 -12044016.14049  22503672.811    22503678.5714
  20696051.502   -25492023.021 9 -19665987.75049  20696051.612    20696055.0364
  23031754.420    -8634454.399 9  -6706569.79849  23031753.179    23031758.1014
 99  4 20 18 22  0.0000000  0  6 05 09 02 24 04 08
  23277740.339   -11519443.590 9  -8723809.58149  23277738.287    23277744.4724
  21300655.521   -20481682.058 9 -15950346.51049  21300655.023    21300659.0604
  23205870.411    10234501.400 9   7968561.68449  23205870.540    23205876.0484
  22483211.407   -16327507.218 9 -12127804.28549  22483210.597    22483217.0584
  20687355.631   -25537720.114 9 -19701595.85049  20687355.562    20687359.0114
  23013015.844    -8732926.084 9  -6783300.94249  23013013.542    23013020.3034
 99  4 20 18 22 30.0000000  0  6 05 09 02 24 04 08
  23259631.748   -11614604.662 9  -8797961.02049  23259631.392    23259636.2774
  21296492.492   -20503558.917 9 -15967393.41249  21296492.225    21296495.9874
  23217187.202    10293971.485 9   8014901.94149  23217186.566    23217192.4004
  22462791.399   -16434814.047 9 -12211419.88149  22462790.923    22462797.5064
  20678759.440   -25582893.300 9 -19736795.71649  20678759.673    20678763.0614
  22994335.795    -8831089.670 9  -6859791.99349  22994335.093    22994339.8164
 99  4 20 18 23  0.0000000  0  6 05 09 02 24 04 08
  23241523.373   -11709764.688 9  -8872111.63549  23241522.459    23241528.0684
  21292429.537   -20524909.915 9 -15984030.54749  21292429.198    21292433.2454
  23228533.766    10353597.454 9   8061363.66049  23228533.981    23228538.9214
  22442409.248   -16541922.677 9 -12294881.03449  22442408.844    22442414.4844
  20670263.307   -25627540.888 9 -19771586.01749  20670263.255    20670266.7924
  22975710.913    -8928963.363 9  -6936057.18049  22975709.257    22975714.0434
 99  4 20 18 23 30.0000000  0  6 05 09 02 24 04 08
  23223426.717   -11804863.023 9  -8946214.16949  23223425.877    23223430.0114
  21288478.616   -20545672.222 9 -16000208.97449  21288478.503    21288482.0374
  23239919.358    10413429.209 9   8107985.74349  23239919.199    23239924.7724
  22422077.199   -16648767.912 9 -12378136.93449  22422076.769    22422082.6634
  20661878.798   -25671601.650 9 -19805919.05449  20661878.869    20661882.1924
  22957154.520    -9026476.762 9  -7012041.61149  22957154.173    22957158.4084
 99  4 20 18 24  0.0000000  0  6 05 09 02 24 04 08
  23205342.830   -11899894.155 9  -9020264.34549  23205342.486    23205346.9164
  21284637.387   -20565858.063 9 -16015938.20249  21284637.172    21284640.6744
  23251344.802    10473470.226 9   8154770.88549  23251344.499    23251349.9104
  22401799.171   -16755329.543 9 -12461171.84449  22401799.077    22401804.4254
  20653605.980   -25715075.563 9 -19839794.81049  20653606.066    20653609.4434
  22938669.659    -9123614.952 9  -7087733.68549  22938669.570    22938674.0734
 99  4 20 18 24 30.0000000  0  6 05 09 02 24 04 08
  23187264.255   -11994897.779 9  -9094293.09149  23187263.681    23187269.0564
  21280896.723   -20585515.604 9 -16031255.76149  21280896.452    21280899.8914
  23262804.595    10533691.741 9   8201696.66749  23262804.336    23262810.8064
  22381571.073   -16861628.639 9 -12544002.19149  22381570.371    22381576.6194
  20645440.118   -25757987.561 9 -19873232.70149  20645440.169    20645443.5734
  22920251.372    -9220403.288 9  -7163153.12649  22920251.190    22920256.6584
 99  4 20 18 25  0.0000000  0  6 05 09 02 24 04 08
  23169188.307   -12089887.110 9  -9168310.67149  23169187.575    23169192.9814
  21277252.325   -20604666.870 9 -16046178.82649  21277252.175    21277255.6494
  23274299.294    10594096.477 9   8248765.21449  23274299.248    23274304.9364
  22361392.927   -16967664.821 9 -12626627.67249  22361392.390    22361398.1844
  20637379.082   -25800348.665 9 -19906241.32849  20637378.900    20637382.4864
  22901899.646    -9316842.361 9  -7238300.42849  22901899.515    22901903.6454
 99  4 20 18 25 30.0000000  0  6 05 09 02 24 04 08
  23151119.607   -12184838.577 9  -9242298.77349  23151118.544    23151123.1534
  21273706.175   -20623302.133 9 -16060699.81149  21273706.080    21273709.6224
  23285836.811    10654725.783 9   8296008.74849  23285835.891    23285841.8464
  22341271.995   -17073400.337 9 -12709018.85949  22341271.610    22341277.7304
  20629422.783   -25842159.219 9 -19938820.95849  20629422.738    20629426.2544
  22883616.651    -9412920.521 9  -7313166.48449  22883616.882    22883620.6434
 99  4 20 18 26  0.0000000  0  6 05 09 02 24 04 08
  23133064.862   -12279716.649 9  -9316229.70149  23133064.683    23133070.0764
  21270266.110   -20641379.816 9 -16074786.31749  21270265.661    21270269.4044
  23297428.668    10715640.682 9   8343474.82549  23297428.536    23297433.6514
  22321212.734   -17178812.085 9 -12791157.75049  22321211.867    22321218.7094
  20621580.079   -25883372.841 9 -19970935.44249  20621579.897    20621583.4384
  22865407.773    -9508608.834 9  -7387728.77649  22865406.738    22865411.9854
 99  4 20 18 26 30.0000000  0  6 05 09 02 24 04 08
  23115015.407   -12374567.216 9  -9390139.17549  23115014.448    23115020.0034
  21266924.187   -20658941.583 9 -16088470.81849  21266923.785    21266927.1784
  23309068.174    10776806.170 9   8391136.17349  23309067.648    23309074.3004
  22301201.014   -17283973.869 9 -12873101.87849  22301200.750    22301206.9694
  20613843.092   -25924030.826 9 -20002616.96649  20613843.003    20613846.3174
  22847261.865    -9603966.131 9  -7462033.12849  22847261.290    22847265.6654
 99  4 20 18 27  0.0000000  0  6 05 09 02 24 04 08
  23096967.720   -12469408.746 9  -9464041.61949  23096967.632    23096971.9034
  21263677.941   -20676000.740 9 -16101763.66949  21263677.512    21263681.3344
  23320752.130    10838205.288 9   8438979.57049  23320751.460    23320756.9174
  22281228.290   -17388930.817 9 -12954886.39449  22281228.007    22281233.3934
  20606208.244   -25964152.133 9 -20033880.30249  20606208.339    20606211.6414
  22829175.857    -9699008.802 9  -7536092.32849  22829175.531    22829179.8604
 99  4 20 18 27 30.0000000  0  6 05 09 02 24 04 08
  23078927.891   -12564208.886 9  -9537911.83049  23078927.741    23078931.9884
  21260533.744   -20692523.883 9 -16114638.84549  21260533.439    21260536.8934
  23332485.554    10899864.790 9   8487025.85949  23332485.067    23332489.7524
  22261299.286   -17493658.003 9 -13036491.87849  22261299.003    22261304.9504
  20598681.839   -26003703.762 9 -20064699.73149  20598681.719    20598685.4344
  22811158.245    -9793691.758 9  -7609871.21549  22811157.464    22811162.2244
 99  4 20 18 28  0.0000000  0  6 05 09 02 24 04 08
  23060904.874   -12658919.906 9  -9611712.58649  23060904.518    23060908.7404
  21257499.710   -20708467.830 9 -16127062.70549  21257499.509    21257503.0544
  23344271.811    10961801.255 9   8535287.95849  23344271.647    23344276.9714
  22241420.301   -17598122.268 9 -13117892.49849  22241419.795    22241425.7744
  20591274.214   -26042630.975 9 -20095032.60949  20591274.207    20591277.6554
  22793222.935    -9887942.673 9  -7683313.44649  22793222.051    22793227.1644
 99  4 20 18 28 30.0000000  0  6 05 09 02 24 04 08
  23042890.093   -12753588.102 9  -9685479.96449  23042890.169    23042894.6484
  21254567.755   -20723875.457 9 -16139068.65549  21254567.659    21254571.1854
  23356097.923    11023947.429 9   8583713.46449  23356097.920    23356104.7524
  22221587.652   -17702343.161 9 -13199103.47949  22221587.085    22221593.4234
  20583973.994   -26080993.535 9 -20124925.49849  20583974.141    20583977.5384
  22775364.573    -9981788.997 9  -7756440.43749  22775363.834    22775368.5624
 99  4 20 18 29  0.0000000  0  6 05 09 02 24 04 08
  23024886.021   -12848200.060 9  -9759203.51849  23024885.264    23024889.7064
  21251739.776   -20738736.614 9 -16150648.77449  21251739.597    21251743.1974
  23367962.646    11086296.261 9   8632296.90449  23367961.397    23367968.4824
  22201809.450   -17806278.365 9 -13280091.84049  22201809.087    22201814.8374
  20576780.526   -26118795.472 9 -20154381.52949  20576780.711    20576784.0164
  22757586.317   -10075213.731 9  -7829238.88049  22757585.002    22757590.6774
 99  4 20 18 29 30.0000000  0  6 05 09 02 24 04 08
  23006889.984   -12942769.419 9  -9832893.89349  23006889.232    23006894.0644
  21249013.600   -20753062.677 9 -16161811.94649  21249013.134    21249017.0154
  23379860.980    11148822.415 9   8681018.49549  23379859.920    23379866.3094
  22182089.428   -17909907.573 9 -13360841.77149  22182089.039    22182094.7354
  20569689.242   -26156060.312 9 -20183419.05449  20569689.031    20569692.6174
  22739883.380   -10168243.594 9  -7901729.65649  22739882.227    22739887.2414
 99  4 20 18 30  0.0000000  0  6 05 09 02 24 04 08
  22988908.262   -13037263.889 9  -9906525.90449  22988908.040    22988912.9414
  21246398.420   -20766805.511 9 -16172520.65749  21246398.315    21246402.0234
  23391799.086    11211556.955 9   8729902.46649  23391798.165    23391804.6264
  22162434.529   -18013194.433 9 -13441324.93949  22162433.836    22162439.9764
  20562707.445   -26192749.905 9 -20212008.33249  20562707.554    20562710.7464
  22722259.534   -10260858.087 9  -7973896.76949  22722259.377    22722263.5004
 99  4 20 18 30 30.0000000  0  6 05 09 02 24 04 08
  22970946.903   -13131651.325 9  -9980074.53549  22970945.975    22970951.0684
  21243902.936   -20779919.474 9 -16182739.33249  21243902.542    21243906.4264
  23403788.951    11274563.748 9   8778998.59549  23403788.634    23403793.4364
  22142853.614   -18116092.266 9 -13521504.97049  22142853.342    22142858.7414
  20555844.895   -26228812.848 9 -20240109.31549  20555845.095    20555847.9104
  22704720.464   -10353026.148 9  -8045716.00349  22704718.850    22704723.9524
 99  4 20 18 31  0.0000000  0  6 05 09 02 24 04 08
  22953006.393   -13225929.320 9 -10053537.87149  22953006.125    22953011.1014
  21241526.568   -20792407.282 9 -16192470.09349  21241526.058    21241529.8444
  23415832.832    11337854.812 9   8828316.23449  23415831.957    23415838.6894
  22123344.560   -18218612.870 9 -13601391.06149  22123344.407    22123349.8194
  20549105.357   -26264229.196 9 -20267706.45549  20549105.101    20549108.6804
  22687267.914   -10444739.827 9  -8117181.18349  22687266.822    22687271.5404
 99  4 20 18 31 30.0000000  0  6 05 09 02 24 04 08
  22935078.634   -13320140.618 9 -10126949.25049  22935077.996    22935082.0554
  21239263.146   -20804301.645 9 -16201738.42849  21239263.254    21239266.3624
  23427925.781    11401403.560 9   8877834.64949  23427925.105    23427931.9194
  22103898.043   -18320805.102 9 -13681021.27349  22103897.500    22103902.7464
  20542484.359   -26299022.592 9 -20294818.18349  20542484.364    20542487.8124
  22669899.592   -10536010.806 9  -8188301.41549  22669899.695    22669902.8784
 99  4 20 18 32  0.0000000  0  6 05 09 02 24 04 08
  22917154.776   -13414330.705 9 -10200344.06649  22917153.884    22917159.0224
  21237102.446   -20815656.427 9 -16210586.31749  21237101.870    21237105.4714
  23440060.194    11465170.091 9   8927522.77649  23440059.834    23440066.3194
  22084501.023   -18422736.345 9 -13760448.12649  22084500.538    22084505.9064
  20535974.514   -26333232.105 9 -20321474.94049  20535974.431    20535977.9334
  22652608.603   -10626875.487 9  -8259105.03949  22652606.857    22652613.1764
 99  4 20 18 32 30.0000000  0  6 05 09 02 24 04 08
  22899228.961   -13508530.899 9 -10273746.78449  22899228.844    22899233.0634
  21235035.353   -20826518.953 9 -16219050.63049  21235035.221    21235038.8304
  23452228.603    11529115.137 9   8977349.99249  23452227.691    23452234.3754
  22065148.353   -18524434.760 9 -13839693.55449  22065147.466    22065153.9904
  20529566.151   -26366908.125 9 -20347715.99149  20529566.007    20529569.6254
  22635389.052   -10717364.979 9  -8329616.30449  22635387.407    22635394.0954
 99  4 20 18 33  0.0000000  0  6 05 09 02 24 04 08
  22881316.522   -13602661.219 9 -10347095.04049  22881315.135    22881321.0554
  21233076.592   -20836812.467 9 -16227071.55849  21233076.317    21233079.8714
  23464441.505    11593294.275 9   9027359.61649  23464440.546    23464447.5514
  22045853.031   -18625831.619 9 -13918704.00049  22045852.584    22045858.2424
  20523269.958   -26399994.677 9 -20373497.71449  20523270.006    20523273.3404
  22618254.053   -10807409.520 9  -8399780.84049  22618253.789    22618258.0794
 99  4 20 18 33 30.0000000  0  6 05 09 02 24 04 08
  22863419.988   -13696707.873 9 -10420378.09349  22863419.174    22863424.5794
  21231227.641   -20846528.549 9 -16234642.53849  21231227.077    21231230.9614
  23476699.016    11657707.368 9   9077551.55749  23476699.149    23476705.9414
  22026617.504   -18726914.752 9 -13997469.99049  22026617.240    22026622.6224
  20517084.141   -26432501.497 9 -20398827.70149  20517084.358    20517087.6124
  22601201.740   -10897019.912 9  -8469607.09549  22601201.204    22601206.1814
 99  4 20 18 34  0.0000000  0  6 05 09 02 24 04 08
  22845546.407   -13790634.684 9 -10493567.79349  22845545.098    22845550.4264
  21229491.820   -20855650.196 9 -16241750.32249  21229491.699    21229495.0564
  23489005.658    11722379.251 9   9127945.13749  23489005.780    23489011.5054
  22007448.324   -18827649.361 9 -14075964.39949  22007448.450    22007453.6354
  20511012.958   -26464405.767 9 -20423688.16549  20511013.021    20511016.3414
  22584232.192   -10986195.694 9  -8539094.69549  22584231.632    22584236.0774
 99  4 20 18 34 30.0000000  0  6 05 09 02 24 04 08
  22827687.164   -13884485.289 9 -10566698.09149  22827687.631    22827690.9774
  21227858.680   -20864232.635 9 -16248437.95149  21227858.579    21227862.1934
  23501352.413    11787261.494 9   9178502.63449  23501352.282    23501359.2634
  21988339.653   -18928065.911 9 -14154210.96349  21988339.050    21988344.7564
  20505048.941   -26495746.902 9 -20448109.82649  20505049.010    20505052.3174
  22567337.599   -11074977.393 9  -8608275.20349  22567336.708    22567341.5294
 99  4 20 18 35  0.0000000  0  6 05 09 02 24 04 08
  22809839.179   -13978276.896 9 -10639782.42849  22809839.367    22809842.5494
  21226324.875   -20872292.966 9 -16254718.73749  21226324.571    21226328.2754
  23513737.941    11852347.546 9   9229218.93949  23513737.758    23513743.9814
  21969290.308   -19028170.324 9 -14232214.31149  21969289.787    21969295.6874
  20499193.501   -26526517.390 9 -20472086.82249  20499193.554    20499197.0454
  22550516.594   -11163372.308 9  -8677154.31149  22550515.593    22550520.0984
 99  4 20 18 35 30.0000000  0  6 05 09 02 24 04 08
  22792003.545   -14072003.955 9 -10712816.45549  22792003.065    22792007.9944
  21224889.584   -20879835.535 9 -16260596.07349  21224889.615    21224893.2244
  23526165.589    11917655.586 9   9280108.22649  23526165.265    23526171.4084
  21950305.768   -19127934.021 9 -14309952.16949  21950305.100    21950310.9094
  20493449.636   -26556701.749 9 -20495607.10249  20493449.950    20493453.3294
  22533770.276   -11251374.922 9  -8745727.76849  22533768.946    22533773.9074
 99  4 20 18 36  0.0000000  0  6 05 09 02 24 04 08
  22774171.780   -14165709.936 9 -10785834.05949  22774171.229    22774175.6024
  21223545.609   -20886898.244 9 -16266099.49849  21223544.986    21223549.0334
  23538628.498    11983147.771 9   9331140.98749  23538627.907    23538634.5014
  21931380.363   -19227387.264 9 -14387448.11149  21931379.172    21931385.0814
  20487813.451   -26586320.234 9 -20518686.43649  20487813.672    20487816.9584
  22517094.145   -11339008.212 9  -8814013.40649  22517093.141    22517098.3844
 99  4 20 18 36 30.0000000  0  6 05 09 02 24 04 08
  22756359.371   -14259314.846 9 -10858772.91249  22756360.140    22756363.9294
  21222310.727   -20893387.249 9 -16271155.87549  21222310.320    21222314.1924
  23551139.741    12048894.831 9   9382372.36749  23551139.955    23551146.1724
  21912526.634   -19326463.806 9 -14464650.51649  21912525.974    21912531.5674
  20482299.937   -26615294.052 9 -20541263.43249  20482300.009    20482303.3064
  22500505.709   -11426180.732 9  -8881940.01249  22500504.785    22500508.7484
 99  4 20 18 37  0.0000000  0  6 05 09 02 24 04 08
  22738572.247   -14352786.917 9 -10931608.26149  22738572.494    22738576.6664
  21221192.846   -20899261.791 9 -16275733.45349  21221192.664    21221196.1754
  23563704.533    12114922.104 9   9433822.06249  23563704.227    23563710.2234
  21893747.566   -19425147.653 9 -14541546.91849  21893746.884    21893752.7904
  20476910.219   -26643617.056 9 -20563333.30149  20476910.070    20476913.7594
  22484009.594   -11512868.062 9  -8949488.56249  22484009.544    22484013.2104
 99  4 20 18 37 30.0000000  0  7 05 16 09 02 24 04 08
  22720806.625   -14446145.945 9 -11004355.50249  22720806.013    22720811.0484
  24670638.934    -2753439.891 9  -2130248.55849  24670638.772    24670645.0314
  21220187.347   -20904546.043 9 -16279851.06249  21220186.980    21220190.7494
  23576314.066    12181185.637 9   9485455.88649  23576313.708    23576318.6184
  21875036.375   -19523474.955 9 -14618165.51849  21875035.578    21875042.0764
  20471635.915   -26671333.427 9 -20584930.47249  20471635.971    20471639.2854
  22467600.043   -11599100.971 9  -9016682.99449  22467599.355    22467604.3074
 99  4 20 18 38  0.0000000  0  7 05 16 09 02 24 04 08
  22703054.437   -14539434.254 9 -11077047.66349  22703053.443    22703057.4934
  24662519.945    -2796105.297 9  -2163494.29749  24662519.703    24662525.7864
  21219286.182   -20909281.707 9 -16283541.19949  21219285.924    21219289.6704
  23588955.635    12247617.038 9   9537220.49649  23588955.476    23588962.0294
  21856379.654   -19621516.010 9 -14694561.05649  21856378.984    21856384.7734
  20466467.481   -26698493.844 9 -20606094.42649  20466467.369    20466470.7214
  22451268.701   -11684922.623 9  -9083556.97949  22451267.861    22451272.5494
 99  4 20 18 38 30.0000000  0  7 05 16 09 02 24 04 08
  22685314.204   -14632659.893 9 -11149690.97949  22685313.674    22685317.2464
  24654469.307    -2838411.640 9  -2196460.24549  24654467.997    24654475.0204
  21218486.007   -20913486.736 9 -16286817.85949  21218485.898    21218489.5304
  23601628.006    12314210.671 9   9589111.51349  23601627.343    23601633.9454
  21837776.198   -19719277.753 9 -14770738.93349  21837775.692    21837781.6134
  20461399.249   -26725127.457 9 -20626847.88749  20461399.438    20461402.7494
  22435012.697   -11770347.646 9  -9150121.89849  22435012.394    22435016.3064
 99  4 20 18 39  0.0000000  0  7 05 16 09 02 24 04 08
  22667584.218   -14725831.414 9 -11222292.12149  22667583.708    22667588.3214
  24646487.614    -2880354.939 9  -2229143.32649  24646486.982    24646493.4124
  21217782.749   -20917182.692 9 -16289697.83649  21217782.645    21217786.1154
  23614332.566    12380972.929 9   9641133.94349  23614332.728    23614338.0454
  21819228.508   -19816746.503 9 -14846688.52249  21819228.373    21819233.5384
  20456429.976   -26751241.232 9 -20647196.27549  20456430.168    20456433.4664
  22418833.147   -11855371.631 9  -9216374.32949  22418831.816    22418836.8334
 99  4 20 18 39 30.0000000  0  7 05 16 09 02 24 04 08
  22649891.035   -14818809.364 9 -11294742.44049  22649890.347    22649894.3714
  24638607.401    -2921765.826 9  -2261411.53049  24638606.757    24638613.7584
  21217202.654   -20920231.306 9 -16292073.38849  21217202.606    21217206.1354
  23627097.137    12448050.591 9   9693402.14749  23627096.781    23627101.9444
  21800765.794   -19913768.481 9 -14922289.98249  21800765.684    21800770.9984
  20451593.156   -26776659.167 9 -20667002.44849  20451593.526    20451596.9134
  22402758.256   -11939845.157 9  -9282197.82349  22402757.933    22402763.0244
 99  4 20 18 40  0.0000000  0  7 05 16 09 02 24 04 08
  22632234.739   -14911593.577 9 -11367041.79149  22632234.370    22632238.3294
  24630828.545    -2962644.058 9  -2293264.67549  24630827.533    24630834.9384
  21216744.142   -20922640.959 9 -16293951.05249  21216743.954    21216747.4784
  23639923.607    12515454.206 9   9745924.32949  23639923.312    23639931.0104
  21782385.856   -20010355.793 9 -14997552.73449  21782385.618    21782391.0484
  20446889.597   -26801376.723 9 -20686262.87449  20446889.813    20446892.9374
  22386790.060   -12023758.312 9  -9347584.67549  22386788.769    22386794.0474
 99  4 20 18 40 30.0000000  0  7 05 16 09 02 24 04 08
  22614602.828   -15004249.408 9 -11439241.09949  22614602.017    22614606.0724
  24623139.693    -3003049.576 9  -2324749.46749  24623138.246    24623145.3694
  21216392.653   -20924488.082 9 -16295390.38349  21216392.567    21216396.0964
  23652804.062    12583141.567 9   9798667.60149  23652804.344    23652810.5414
  21764076.803   -20106570.617 9 -15072525.24349  21764076.693    21764081.6864
  20442307.859   -26825453.916 9 -20705024.31249  20442307.845    20442311.4484
  22370918.619   -12107163.643 9  -9412575.82549  22370918.775    22370922.5194
 99  4 20 18 41  0.0000000  0  7 05 16 09 02 24 04 08
  22596987.280   -15096819.867 9 -11511373.88649  22596986.332    22596990.5434
  24615535.762    -3043008.743 9  -2355886.46849  24615534.760    24615542.8434
  21216142.662   -20925801.927 9 -16296414.16949  21216142.660    21216146.0914
  23665728.671    12651060.348 9   9851591.22349  23665729.267    23665735.0194
  21745827.706   -20202470.335 9 -15147252.20849  21745827.037    21745832.2934
  20437842.981   -26848916.995 9 -20723307.22249  20437842.766    20437846.2644
  22355137.991   -12190091.860 9  -9477195.19049  22355137.730    22355142.1164
 99  4 20 18 41 30.0000000  0  7 05 16 09 02 24 04 08
  22579385.692   -15189316.539 9 -11583449.17749  22579385.786    22579389.1674
  24608016.493    -3082522.660 9  -2386676.51949  24608015.785    24608022.7614
  21215995.514   -20926575.345 9 -16297016.84549  21215995.312    21215998.8074
  23678693.000    12719187.684 9   9904677.34149  23678694.571    23678699.5454
  21727635.923   -20298068.342 9 -15221744.08049  21727635.271    21727640.6374
  20433492.521   -26871778.352 9 -20741121.25349  20433492.418    20433495.8744
  22339445.905   -12272554.783 9  -9541451.99549  22339446.203    22339450.4874
 99  4 20 18 42  0.0000000  0  7 05 16 09 02 24 04 08
  22561806.990   -15281693.307 9 -11655431.02749  22561806.077    22561811.3434
  24600589.206    -3121553.064 9  -2417089.79249  24600588.247    24600595.5234
  21215959.629   -20926763.913 9 -16297163.79449  21215959.337    21215962.9284
  23691707.084    12787576.775 9   9957967.43449  23691707.782    23691713.8124
  21709513.090   -20393304.117 9 -15295953.69349  21709512.697    21709517.6924
  20429259.960   -26894020.747 9 -20758452.97949  20429260.187    20429263.3754
  22323852.407   -12354499.716 9  -9605305.16649  22323851.419    22323855.6634
 99  4 20 18 42 30.0000000  0  7 05 16 09 02 24 04 08
  22544254.832   -15373930.464 9 -11727304.10249  22544254.367    22544258.4694
  24593260.605    -3160065.012 9  -2447099.07349  24593259.551    24593266.4064
  21216044.769   -20926316.438 9 -16296815.12749  21216044.418    21216048.1024
  23704776.043    12856253.516 9  10011481.65449  23704777.114    23704782.6354
  21691472.270   -20488108.902 9 -15369827.44349  21691471.787    21691477.3044
  20425150.746   -26915614.832 9 -20775279.53049  20425150.902    20425154.1454
  22308363.069   -12435896.824 9  -9668731.46249  22308362.972    22308366.1864
 99  4 20 18 43  0.0000000  0  7 05 16 09 02 24 04 08
  22526723.746   -15466056.648 9 -11799090.70949  22526723.014    22526726.5684
  24586026.216    -3198081.485 9  -2476722.24749  24586024.959    24586032.5814
  21216249.698   -20925239.343 9 -16295975.84349  21216249.596    21216253.3214
  23717893.110    12925183.909 9  10065193.53149  23717893.034    23717899.6634
  21673512.716   -20582486.612 9 -15443368.42549  21673511.940    21673517.0004
  20421158.860   -26936592.307 9 -20791625.59849  20421158.776    20421162.2784
  22292971.979   -12516777.181 9  -9731755.07649  22292971.507    22292976.0484
 99  4 20 18 43 30.0000000  0  7 05 16 09 02 24 04 08
  22509213.154   -15558075.408 9 -11870793.59249  22509212.496    22509216.5114
  24578881.285    -3235628.374 9  -2505979.53549  24578880.725    24578887.1084
  21216569.443   -20923559.036 9 -16294666.52549  21216569.145    21216573.0244
  23731057.799    12994364.611 9  10119100.45749  23731057.821    23731064.0644
  21655635.297   -20676432.780 9 -15516573.15149  21655634.956    21655640.1214
  20417280.679   -26956971.970 9 -20807505.84149  20417280.571    20417284.3024
  22277675.769   -12597158.852 9  -9794390.11149  22277675.166    22277678.8224
 99  4 20 18 44  0.0000000  0  7 05 16 09 02 24 04 08
  22491723.645   -15649983.259 9 -11942410.05549  22491723.054    22491726.7424
  24571823.364    -3272717.944 9  -2534880.47349  24571823.730    24571828.5274
  21217001.119   -20921290.468 9 -16292898.82449  21217000.696    21217004.5754
  23744272.521    13063807.321 9  10173211.55049  23744271.653    23744278.6514
  21637839.218   -20769951.549 9 -15589444.84149  21637839.096    21637843.7944
  20413517.460   -26976747.911 9 -20822915.65649  20413517.396    20413521.1394
  22262474.805   -12677040.290 9  -9856635.36049  22262474.370    22262478.1344
 99  4 20 18 44 30.0000000  0  7 05 16 09 02 24 04 08
  22474256.753   -15741772.730 9 -12013934.29249  22474256.666    22474259.8814
  24564855.097    -3309337.212 9  -2563414.94749  24564855.145    24564861.1984
  21217546.447   -20918424.585 9 -16290665.67749  21217546.258    21217550.0684
  23757536.376    13133509.116 9  10227524.52649  23757535.940    23757542.2744
  21620121.797   -20863056.887 9 -15661994.37449  21620121.122    21620126.3234
  20409871.219   -26995908.808 9 -20837846.21449  20409870.990    20409874.5544
  22247368.704   -12756423.121 9  -9918492.09049  22247367.198    22247372.2844
 99  4 20 18 45  0.0000000  0  7 05 16 09 02 24 04 08
  22456818.573   -15833411.102 9 -12085340.78849  22456817.559    22456821.7414
  24557978.755    -3345472.501 9  -2591572.31249  24557978.325    24557984.5754
  21218201.785   -20914980.883 9 -16287982.28449  21218201.695    21218205.4344
  23770851.993    13203482.228 9  10282048.90349  23770852.032    23770859.0164
  21602480.180   -20955763.854 9 -15734233.48149  21602479.864    21602484.7514
  20406343.992   -27014444.306 9 -20852289.44849  20406344.022    20406347.5754
  22232360.531   -12835291.515 9  -9979947.95249  22232360.037    22232363.6284
 99  4 20 18 45 30.0000000  0  7 05 16 09 02 24 04 08
  22439403.150   -15924929.413 9 -12156653.72749  22439402.375    22439407.0594
  24551185.888    -3381168.728 9  -2619387.51449  24551186.018    24551192.9574
  21218956.452   -20911015.236 9 -16284892.18649  21218956.542    21218960.0334
  23784211.080    13273683.530 9  10336751.09149  23784211.263    23784218.0124
  21584906.179   -21048115.481 9 -15806195.70949  21584905.791    21584910.8814
  20402928.694   -27032391.775 9 -20866274.47749  20402928.726    20402932.4334
  22217445.218   -12913672.137 9 -10041023.74349  22217445.453    22217448.5984
 99  4 20 18 46  0.0000000  0  7 05 16 09 02 24 04 08
  22422002.396   -16016370.757 9 -12227906.68249  22422001.821    22422005.8954
  24544470.977    -3416455.338 9  -2646883.57649  24544470.667    24544476.6114
  21219805.446   -20906553.881 9 -16281415.81749  21219805.554    21219808.8444
  23797605.322    13344069.783 9  10391597.39749  23797604.101    23797611.8694
  21567393.842   -21140143.109 9 -15877905.47449  21567393.294    21567398.5154
  20399617.241   -27049793.216 9 -20879834.02749  20399617.279    20399620.6484
  22202616.181   -12991600.039 9 -10101746.76149  22202614.630    22202619.1714
 99  4 20 18 46 30.0000000  0  7 05 16 09 02 24 04 08
  22404624.734   -16107690.275 9 -12299064.71149  22404623.842    22404628.4584
  24537841.930    -3451290.718 9  -2674028.02149  24537842.135    24537848.1054
  21220754.845   -20901565.066 9 -16277528.44349  21220754.697    21220758.1664
  23811038.241    13414660.149 9  10446602.72749  23811038.131    23811044.6824
  21549951.115   -21231804.810 9 -15949330.09049  21549950.560    21549955.5214
  20396414.685   -27066622.682 9 -20892947.88549  20396414.776    20396418.1954
  22187878.583   -13069046.488 9 -10162094.62249  22187877.852    22187881.6914
 99  4 20 18 47  0.0000000  0  7 05 16 09 02 24 04 08
  22387279.148   -16198842.045 9 -12370092.04649  22387278.929    22387283.3694
  24531304.797    -3485643.817 9  -2700796.65449  24531303.782    24531312.3954
  21221812.670   -20896006.396 9 -16273197.02649  21221812.485    21221816.1484
  23824516.426    13485488.253 9  10501793.31949  23824516.081    23824523.9644
  21532588.648   -21323044.816 9 -16020426.13949  21532588.139    21532593.0874
  20393330.757   -27082829.089 9 -20905576.24749  20393330.991    20393334.3754
  22173240.611   -13145969.142 9 -10222034.32649  22173239.766    22173244.4574
 99  4 20 18 47 30.0000000  0  7 05 16 09 02 24 04 08
  22369954.811   -16289882.707 9 -12441032.76649  22369954.823    22369958.0144
  24524852.429    -3519550.695 9  -2727217.59849  24524851.469    24524858.0554
  21222977.375   -20889885.767 9 -16268427.71649  21222977.149    21222980.6864
  23838030.464    13556505.023 9  10557130.93849  23838030.695    23838037.1464
  21515300.825   -21413892.552 9 -16091216.52449  21515300.248    21515305.6154
  20390357.923   -27098451.385 9 -20917749.45949  20390357.799    20390361.2914
  22158692.105   -13222421.519 9 -10281607.57649  22158690.778    22158695.8234
 99  4 20 18 48  0.0000000  0  7 05 16 09 02 24 04 08
  22352648.500   -16380827.872 9 -12511899.09149  22352648.194    22352651.7654
  24518484.745    -3553013.110 9  -2753292.20849  24518483.937    24518489.7584
  21224245.833   -20883220.102 9 -16263233.70549  21224245.780    21224249.2994
  23851575.025    13627681.493 9  10612592.97649  23851573.999    23851581.2864
  21498084.558   -21504364.304 9 -16161713.93749  21498084.036    21498089.2304
  20387492.633   -27113508.510 9 -20929482.27849  20387492.742    20387496.3184
  22144226.705   -13298437.724 9 -10340840.94649  22144225.702    22144231.0754
 99  4 20 18 48 30.0000000  0  7 05 16 09 02 24 04 08
  22335357.519   -16471692.149 9 -12582702.39449  22335356.554    22335360.5224
  24512197.721    -3586051.942 9  -2779036.74849  24512195.760    24512204.0534
  21225611.557   -20876043.238 9 -16257641.35349  21225611.215    21225614.8974
  23865142.931    13698981.238 9  10668151.07549  23865143.025    23865151.4524
  21480935.795   -21594481.269 9 -16231934.87949  21480935.428    21480940.3804
  20384732.537   -27128013.231 9 -20940784.65049  20384732.613    20384735.9374
  22129840.593   -13374037.408 9 -10399749.78149  22129839.801    22129844.8834
 99  4 20 18 49  0.0000000  0  7 05 16 09 02 24 04 08
  22318071.676   -16562529.650 9 -12653484.83349  22318071.391    22318075.4994
  24505983.447    -3618707.820 9  -2804482.88349  24505982.561    24505989.1024
  21227068.500   -20868387.047 9 -16251675.50849  21227068.416    21227072.0224
  23878728.880    13770375.316 9  10723782.67349  23878729.709    23878735.7364
  21463847.449   -21684280.879 9 -16301908.54149  21463846.928    21463851.9934
  20382071.274   -27141998.106 9 -20951681.95249  20382071.236    20382074.6384
  22115527.993   -13449250.264 9 -10458357.17149  22115527.409    22115531.4124
 99  4 20 18 49 30.0000000  0  7 05 16 09 02 24 04 08
  22300801.568   -16653284.843 9 -12724203.14249  22300800.797    22300804.9594
  24499855.092    -3650912.345 9  -2829577.29449  24499854.743    24499861.1494
  21228625.363   -20860205.827 9 -16245300.55149  21228625.239    21228628.9454
  23892345.658    13841931.152 9  10779540.33149  23892346.343    23892353.2704
  21446830.543   -21773705.277 9 -16371589.82949  21446830.168    21446835.1254
  20379518.964   -27155410.514 9 -20962133.18149  20379519.103    20379522.5334
  22101302.449   -13524005.512 9 -10516608.00649  22101302.197    22101306.0444
 99  4 20 18 50  0.0000000  0  7 05 16 09 02 24 04 08
  22283561.112   -16743884.138 9 -12794799.96549  22283559.912    22283564.6024
  24493824.040    -3682605.763 9  -2854273.45149  24493824.238    24493830.2824
  21230289.331   -20851461.513 9 -16238486.81349  21230289.177    21230292.7794
  23906008.884    13913731.239 9  10835488.30949  23906009.024    23906016.0134
  21429897.072   -21862690.821 9 -16440929.14549  21429896.841    21429901.9824
  20377089.123   -27168179.411 9 -20972082.96849  20377089.075    20377092.7974
  22087180.229   -13598218.509 9 -10574436.28149  22087179.184    22087183.3364
 99  4 20 18 50 30.0000000  0  7 05 16 09 02 24 04 08
  22266345.125   -16834354.329 9 -12865296.18549  22266344.061    22266349.4904
  24487884.898    -3713815.984 9  -2878593.09149  24487884.181    24487890.3644
  21232057.552   -20842169.422 9 -16231246.24049  21232057.053    21232060.9444
  23919719.933    13985782.979 9  10891632.34849  23919718.593    23919727.6814
  21413042.802   -21951260.488 9 -16509944.41949  21413042.269    21413047.4444
  20374779.469   -27180316.830 9 -20981540.69749  20374779.594    20374782.9584
  22073162.401   -13671882.258 9 -10631836.59149  22073161.428    22073165.6284
 99  4 20 18 51  0.0000000  0  7 05 16 09 02 24 04 08
  22249135.217   -16924792.449 9 -12935767.41449  22249134.235    22249139.1294
  24482020.202    -3744635.268 9  -2902608.11449  24482020.120    24482026.6884
  21233912.232   -20832422.976 9 -16223651.62649  21233912.228    21233915.7994
  23933464.949    14058012.695 9  10947915.07849  23933464.198    23933470.8534
  21396246.190   -22039527.010 9 -16578723.46849  21396245.917    21396251.1104
  20372570.593   -27191924.591 9 -20990585.70349  20372570.603    20372574.0174
  22059233.659   -13745078.771 9 -10688872.81549  22059231.872    22059237.5014
 99  4 20 18 51 30.0000000  0  7 05 16 09 02 24 04 08
  22231944.974   -17015127.043 9 -13006157.97449  22231944.075    22231949.0204
  24476240.096    -3775010.087 9  -2926276.80649  24476239.612    24476245.8054
  21235861.932   -20822177.521 9 -16215668.17749  21235861.809    21235865.5684
  23947252.104    14130464.978 9  11004371.27649  23947250.304    23947259.0984
  21379515.910   -22127445.290 9 -16647231.16949  21379515.429    21379520.2344
  20370471.818   -27202953.845 9 -20999179.92949  20370471.996    20370475.2504
  22045405.117   -13817748.070 9 -10745498.22249  22045404.544    22045409.0474
 99  4 20 18 52  0.0000000  0  7 05 16 09 02 24 04 08
  22214777.656   -17105341.975 9 -13076455.29549  22214776.640    22214781.2144
  24470546.382    -3804930.778 9  -2949591.60949  24470545.624    24470552.4964
  21237911.959   -20811404.884 9 -16207273.93149  21237912.029    21237915.5294
  23961083.955    14203151.714 9  11061010.09449  23961084.616    23961091.7004
  21362853.744   -22215005.453 9 -16715459.82049  21362853.145    21362858.3134
  20368484.189   -27213398.984 9 -21007318.99749  20368484.402    20368487.5804
  22031677.845   -13889884.689 9 -10801708.55649  22031677.227    22031682.6194
 99  4 20 18 52 30.0000000  0  7 05 16 09 02 24 04 08
  22197627.058   -17195469.021 9 -13146684.14049  22197625.634    22197630.6214
  24464933.165    -3834428.350 9  -2972576.71149  24464932.520    24464939.1064
  21240057.069   -20800132.371 9 -16198490.16949  21240057.015    21240060.7944
  23974951.367    14276024.145 9  11117793.66649  23974951.277    23974958.8694
  21346252.794   -22302243.535 9 -16783437.49949  21346252.317    21346257.6224
  20366597.795   -27223312.198 9 -21015043.58049  20366597.928    20366601.2744
  22018043.108   -13961535.916 9 -10857540.66249  22018042.666    22018047.1224
 99  4 20 18 53  0.0000000  0  7 05 16 09 02 24 04 08
  22180499.861   -17285472.745 9 -13216816.88949  22180499.210    22180503.5654
  24459403.097    -3863489.064 9  -2995221.40749  24459402.758    24459409.1794
  21242301.674   -20788337.133 9 -16189299.09249  21242301.681    21242305.4444
  23988855.048    14349087.905 9  11174726.29449  23988855.591    23988860.9574
  21329717.191   -22389138.365 9 -16851147.71149  21329716.994    21329722.1994
  20364815.296   -27232679.405 9 -21022342.70749  20364815.362    20364818.6844
  22004500.929   -14032700.482 9 -10912993.55249  22004500.621    22004505.0274
 99  4 20 18 53 30.0000000  0  7 05 16 09 02 24 04 08
  22163403.710   -17375313.605 9 -13286822.71349  22163403.455    22163406.8694
  24453965.294    -3892064.388 9  -3017487.87449  24453964.433    24453971.5324
  21244654.395   -20775973.609 9 -16179665.19349  21244654.212    21244657.7184
  24002800.831    14422371.796 9  11231830.46149  24002800.677    24002807.7974
  21313258.965   -22475626.864 9 -16918541.29549  21313258.808    21313263.6154
  20363146.070   -27241451.113 9 -21029177.80049  20363146.237    20363149.4764
  21991057.781   -14103344.457 9 -10968040.77949  21991057.058    21991062.0814
 99  4 20 18 54  0.0000000  0  7 05 16 09 02 24 04 08
  22146337.052   -17464999.001 9 -13356707.40649  22146336.630    22146341.0354
  24448623.662    -3920135.067 9  -3039361.12049  24448623.840    24448630.2584
  21247114.991   -20763043.094 9 -16169589.49049  21247114.729    21247118.5464
  24016787.321    14495871.123 9  11289102.49649  24016786.295    24016794.9964
  21296880.320   -22561697.014 9 -16985608.89249  21296879.767    21296884.6394
  20361590.291   -27249626.608 9 -21035548.31749  20361590.494    20361593.8324
  21977712.076   -14173476.706 9 -11022689.27049  21977711.107    21977716.1664
 99  4 20 18 54 30.0000000  0  7 05 16 09 02 24 04 08
  22129298.721   -17554536.049 9 -13426476.50549  22129298.166    22129302.2564
  24443377.304    -3947705.039 9  -3060844.20649  24443376.692    24443383.7134
  21249679.402   -20749567.098 9 -16159088.73249  21249679.273    21249682.9274
  24030812.015    14569571.254 9  11346530.99649  24030812.535    24030820.3984
  21280581.078   -22647349.899 9 -17052351.35449  21280580.411    21280585.5864
  20360147.708   -27257207.655 9 -21041455.62549  20360147.773    20360151.1434
  21964464.323   -14243093.685 9 -11076936.24349  21964463.518    21964467.8094
 99  4 20 18 55  0.0000000  0  7 05 16 09 02 24 04 08
  22112287.736   -17643929.468 9 -13496133.68949  22112287.252    22112291.1064
  24438228.177    -3974763.854 9  -3081928.97049  24438227.277    24438234.2524
  21252347.766   -20735544.865 9 -16148162.33349  21252347.576    21252351.2094
  24044874.194    14643468.047 9  11404112.75749  24044872.981    24044881.2424
  21264362.838   -22732577.216 9 -17118762.20549  21264362.538    21264367.7034
  20358820.076   -27264184.245 9 -21046891.92549  20358820.082    20358823.2824
  21951316.917   -14312183.572 9 -11130772.49049  21951316.390    21951320.7014
 99  4 20 18 55 30.0000000  0  7 05 16 09 02 24 04 08
  22095305.319   -17733172.452 9 -13565673.64349  22095304.399    22095307.5654
  24433183.446    -4001273.827 9  -3102586.09149  24433183.389    24433189.6814
  21255121.751   -20720967.563 9 -16136803.41749  21255121.675    21255125.3434
  24058974.094    14717563.308 9  11461849.15949  24058975.248    24058980.9484
  21248232.004   -22817345.161 9 -17184815.10849  21248231.605    21248236.8054
  20357608.870   -27270549.159 9 -21051851.59749  20357608.891    20357612.3424
  21938273.848   -14380725.186 9 -11184181.53049  21938273.349    21938277.1264
 99  4 20 18 56  0.0000000  0  7 05 16 09 02 24 04 08
  22078351.272   -17822266.437 9 -13635097.50249  22078350.506    22078354.3544
  24428239.106    -4027256.680 9  -3122832.44349  24428237.923    24428245.0564
  21257999.425   -20705845.449 9 -16125019.96549  21257999.413    21258002.9684
  24073110.514    14791848.551 9  11519733.59249  24073110.283    24073118.0064
  21232188.018   -22901656.795 9 -17250512.44349  21232187.672    21232192.6114
  20356509.657   -27276325.850 9 -21056352.91049  20356509.672    20356513.0244
  21925331.886   -14448735.389 9 -11237176.47549  21925331.429    21925335.4044
 99  4 20 18 56 30.0000000  0  7 05 16 09 02 24 04 08
  22061425.159   -17911214.282 9 -13704407.48449  22061424.224    22061428.7094
  24423389.070    -4052744.135 9  -3142692.77749  24423388.390    24423395.1414
  21260979.950   -20690182.921 9 -16112815.42449  21260979.800    21260983.1744
  24087283.791    14866329.571 9  11577770.56949  24087284.020    24087290.8474
  21216230.666   -22985513.083 9 -17315854.96249  21216230.379    21216235.3194
  20355522.021   -27281516.018 9 -21060397.19749  20355522.095    20355525.1734
  21912491.246   -14516213.501 9 -11289756.81149  21912491.108    21912495.3934
 99  4 20 18 57  0.0000000  0  7 05 16 09 02 24 04 08
  22044526.041   -18000019.705 9 -13773606.48949  22044525.553    22044529.4424
  24418630.947    -4077748.540 9  -3162176.73549  24418629.634    24418637.1624
  21264061.055   -20673991.554 9 -16100198.79849  21264060.797    21264064.2074
  24101492.116    14940994.262 9  11635950.68449  24101491.425    24101500.3414
  21200359.083   -23068918.413 9 -17380846.09449  21200358.947    21200363.5284
  20354643.189   -27286134.400 9 -21063995.93349  20354643.224    20354646.5514
  21899748.684   -14583176.160 9 -11341935.48749  21899748.040    21899752.6114
 99  4 20 18 57 30.0000000  0  7 05 16 09 02 24 04 08
  22027657.588   -18088663.554 9 -13842679.59649  22027657.040    22027660.9404
  24413963.906    -4102274.296 9  -3181287.70049  24413963.425    24413968.0384
  21267245.455   -20657257.295 9 -16087159.14149  21267245.193    21267248.9074
  24115739.149    15015861.985 9  11694288.98949  24115738.432    24115746.7834
  21184575.523   -23151861.688 9 -17445477.17549  21184574.964    21184579.9684
  20353875.737   -27290167.375 9 -21067138.50549  20353875.755    20353878.9084
  21887106.802   -14649609.719 9 -11393701.88549  21887106.242    21887109.9514
 99  4 20 18 58  0.0000000  0  7 05 16 09 02 24 04 08
  22010821.022   -18177140.079 9 -13911622.32249  22010820.816    22010824.9684
  24409384.524    -4126338.905 9  -3200039.32949  24409383.915    24409391.4664
  21270533.793   -20639977.330 9 -16073694.25949  21270533.586    21270537.1334
  24130027.266    15090945.463 9  11752795.40649  24130027.170    24130034.3214
  21168876.030   -23234362.964 9 -17509763.84749  21168875.552    21168880.4924
  20353220.794   -27293609.038 9 -21069820.31749  20353220.828    20353224.1124
  21874566.386   -14715510.341 9 -11445053.00549  21874565.653    21874570.5064
 99  4 20 18 58 30.0000000  0  7 05 16 09 02 24 04 08
  21994010.667   -18265479.272 9 -13980458.02649  21994009.864    21994014.6694
  24404888.885    -4149963.595 9  -3218448.17149  24404888.917    24404893.3574
  21273918.058   -20622193.116 9 -16059836.45549  21273917.913    21273921.5214
  24144350.986    15166216.268 9  11811447.81949  24144351.164    24144358.9124
  21153252.850   -23316463.106 9 -17573737.94449  21153252.558    21153257.3764
  20352673.014   -27296487.670 9 -21072063.40249  20352673.108    20352676.1354
  21862125.311   -14780889.002 9 -11495997.40649  21862124.776    21862129.4944
 99  4 20 18 59  0.0000000  0  7 05 16 09 02 24 04 08
  21977231.027   -18353657.257 9 -14049168.12049  21977231.080    21977234.0074
  24400485.586    -4173103.282 9  -3236479.13349  24400483.377    24400491.1384
  21277403.384   -20603877.534 9 -16045564.59849  21277402.970    21277406.9344
  24158712.377    15241684.609 9  11870254.12149  24158711.672    24158718.9214
  21137710.211   -23398140.139 9 -17637382.34349  21137709.758    21137714.8104
  20352235.651   -27298785.907 9 -21073854.22849  20352235.770    20352238.9294
  21849789.911   -14845711.729 9 -11546508.60249  21849789.336    21849793.7684
 99  4 20 18 59 30.0000000  0  7 05 16 09 02 24 04 08
  21960478.025   -18441695.243 9 -14117769.12949  21960477.118    21960481.3734
  24396172.251    -4195769.510 9  -3254141.11249  24396173.441    24396178.0024
  21280986.262   -20585049.119 9 -16030893.13549  21280985.940    21280989.9394
  24173107.597    15317331.386 9  11929199.48449  24173108.095    24173114.0954
  21122242.249   -23479424.477 9 -17700720.75249  21122241.966    21122246.8744
  20351906.871   -27300513.677 9 -21075200.53649  20351906.868    20351910.2584
  21837557.307   -14909994.692 9 -11596599.21649  21837556.544    21837561.2184
 99  4 20 19  0  0.0000000  0  7 05 16 09 02 24 04 08
  21943736.604   -18529671.926 9 -14186322.35549  21943735.568    21943739.8784
  24391938.146    -4218019.459 9                  24391938.273    24391944.2264
  21284650.383   -20565794.120 9 -16015889.26649  21284650.123    21284654.2184
  24187521.818    15393079.030 9  11988223.42549  24187522.567    24187528.1624
  21106835.690   -23560386.203 9 -17763807.77449  21106835.092    21106840.0704
  20351672.471   -27301745.370 9 -21076160.29349  20351672.520    20351675.8434
  21825412.505   -14973815.866 9 -11646329.99449  21825412.192    21825416.3224
 99  4 20 19  0 30.0000000  0  7 05 16 09 02 24 04 08
  21927030.388   -18617463.251 9 -14254731.14849  21927030.263    21927033.5514
  24387811.272    -4239706.156 9  -3288377.45059  24387810.880    24387818.9234
  21288418.998   -20545989.962 9 -16000457.48349  21288418.874    21288422.8414
  24201981.592    15469064.196 9  12047432.47449  24201982.276    24201990.4804
  21091516.376   -23640889.406 9 -17826537.50449  21091515.997    21091520.6754
  20351558.292   -27302345.650 9 -21076628.03349  20351558.509    20351561.7574
  21813382.420   -15037033.969 9 -11695590.84149  21813381.850    21813386.2924
 99  4 20 19  1  0.0000000  0  7 05 16 09 02 24 04 08
  21910361.271   -18705059.807 9 -14322988.18049  21910360.603    21910364.4524
  24383794.383    -4260814.771 9                  24383788.594    24383799.2624
  21292295.995   -20525616.378 9 -15984581.99149  21292296.060    21292299.9124
  24216488.157    15545295.979 9  12106833.63649  24216487.974    24216495.9314
  21076285.690   -23720927.218 9 -17888904.59149  21076285.191    21076290.1024
  20351568.171   -27302293.591 9 -21076587.46249  20351568.252    20351571.6044
  21801466.919   -15099650.758 9 -11744383.13349  21801466.329    21801470.9674
 99  4 20 19  1 30.0000000  0  7 05 16 09 02 24 04 08
  21893727.002   -18792473.497 9 -14391102.71849  21893726.319    21893730.3124
  24379884.374    -4281361.565 9                  24379879.091    24379890.7264
  21296279.073   -20504685.583 9 -15968272.30649  21296278.893    21296282.7574
  24231042.928    15621780.796 9  12166432.01049  24231043.078    24231051.7064
  21061141.462   -23800510.488 9 -17950917.49249  21061140.876    21061145.7394
  20351700.281   -27301599.345 9 -21076046.49049  20351700.401    20351703.5054
  21789664.100   -15161674.837 9 -11792713.58449  21789663.710    21789667.8224
 99  4 20 19  1 59.9990000  0  7 05 16 09 02 24 04 08
  21877137.221   -18879653.213 9 -14459034.93649  21877136.314    21877140.8304
  24376086.615    -4301318.940 9                  24376085.067    24376093.0454
  21300376.130   -20483155.433 9 -15951495.59349  21300375.857    21300379.4574
  24245655.759    15698571.302 9  12226268.55549  24245654.872    24245663.7034
  21046095.888   -23879575.192 9 -18012526.31249  21046095.641    21046100.4554
  20351961.117   -27300228.457 9 -21074978.26049  20351961.190    20351964.4514
  21777985.229   -15223047.648 9 -11840536.54849  21777984.455    21777988.9184
 99  4 20 19  2 29.9990000  0  7 05 16 09 02 24 04 08
  21860598.980   -18966561.902 9 -14526755.97449  21860598.533    21860602.4254
  24372406.058    -4320660.823 9                  24372404.186    24372412.3004
  21304592.803   -20460996.788 9 -15934229.14249  21304592.617    21304596.3144
  24260332.219    15775695.230 9  12286364.90449  24260332.471    24260339.8464
  21031153.678   -23958096.956 9 -18073712.06449  21031153.445    21031158.1524
  20352354.323   -27298161.992 9 -21073368.02749  20352354.308    20352357.5774
  21766436.021   -15283739.439 9 -11887828.85149  21766435.190    21766439.9494
 99  4 20 19  2 59.9990000  0  7 05 16 09 02 24 04 08
  21844096.062   -19053285.220 9 -14594332.56549  21844095.078    21844099.7634
  24368821.120                                    24368818.068    24368826.5814
  21308909.779   -20438311.039 9 -15916551.96749  21308909.389    21308913.3024
  24275047.488    15853023.591 9  12346620.56749  24275047.484    24275055.5744
  21016299.390   -24036156.573 9 -18134537.70549  21016299.239    21016304.0544
  20352858.524   -27295512.543 9 -21071303.51949  20352858.619    20352861.8744
  21754996.077   -15343856.761 9 -11934673.51949  21754995.620    21755000.0414
 99  4 20 19  3 29.9990000  0  7 05 16 09 02 24 04 08
  21827610.076   -19139919.850 9 -14661840.04049  21827609.490    21827613.2404
  24365309.105                                    24365310.107    24365265.6844
  21313305.615   -20415210.742 9 -15898551.76549  21313305.546    21313309.4664
  24289779.985    15930443.066 9  12406947.18049  24289779.166    24289789.2744
  21001516.606   -24113840.533 9 -18195070.62249  21001516.173    21001521.1204
  20353449.744   -27292405.694 9 -21068882.59749  20353449.720    20353452.9464
  21743644.099   -15403511.540 9 -11981157.75449  21743643.169    21743647.5594
 99  4 20 19  3 59.9990000  0  7 05 16 09 02 24 04 08
  21811162.227   -19226353.510 9 -14729190.92449  21811161.917    21811165.2554
  24361890.543                                    24361891.723    24361897.8654
  21317800.122   -20391592.113 9 -15880147.66749  21317799.944    21317804.0384
  24304545.266    16008034.298 9  12467407.64049  24304546.583    24304553.6564
  20986826.242   -24191038.760 9 -18255225.05349  20986826.043    20986831.1644
  20354146.624   -27288743.608 9 -21066029.02549  20354146.827    20354150.0874
  21732395.388   -15462623.693 9 -12027219.16049  21732394.986    21732399.0104
 99  4 20 19  4 29.9990000  0  7 05 16 09 02 24 04 08
  21794761.687   -19312538.637 9 -14796348.14749  21794760.811    21794764.9734
  24358578.440                                    24358579.227    24358589.5604
  21322403.770   -20367399.977 9 -15861296.67449  21322403.377    21322407.4054
  24319348.279    16085823.957 9  12528022.72549  24319348.625    24319356.1184
  20972237.366   -24267704.210 9 -18314964.32749  20972237.032    20972241.8234
  20354956.449   -27284488.109 9 -21062713.05649  20354956.657    20354959.8574
  21721257.822   -15521151.852 9 -12072825.50449  21721256.917    21721261.2514
 99  4 20 19  4 59.9990000  0  5 05 09 24 04 08
  21778396.279   -19398539.722 9 -14863361.95949  21778395.890    21778399.0624
  21327108.591   -20342676.021 9 -15842031.28249  21327108.500    21327112.4684
  20957737.534   -24343901.029 9 -18374338.43749  20957737.330    20957741.8944
  20355867.622   -27279699.750 9 -21058981.86549  20355867.576    20355870.8584
  21710222.428   -15579142.948 9 -12118013.36349  21710221.916    21710226.2014
 99  4 20 19  5 29.9990000  0  5 05 09 24 04 08
  21762071.083   -19484329.444 9 -14930211.07249  21762070.332    21762074.7514
  21331921.082   -20317386.363 9 -15822325.08149  21331920.739    21331924.6474
  20943329.902   -24419613.490 9 -18433335.12449  20943329.575    20943334.4464
  20356887.844   -27274338.319 9 -21054804.12149  20356887.800    20356891.1454
  21699298.014   -15636551.468 9 -12162747.26449  21699297.689    21699301.8674
 99  4 20 19  5 59.9990000  0  5 05 09 24 04 08
  21745779.106   -19569944.437 9 -14996924.04049  21745778.261    21745783.0354
  21336833.251   -20291572.823 9 -15802210.66649  21336833.078    21336837.1074
  20929005.259   -24494890.087 9 -18491992.17949  20929005.041    20929009.7154
  20358012.026   -27268430.676 9 -21050200.77149  20358012.321    20358015.4544
  21688482.910   -15693384.973 9 -12207033.10649  21688482.316    21688486.4714
 99  4 20 19  6 29.9990000  0  5 05 09 24 04 08
  21729525.368   -19655358.369 9 -15063480.32949  21729524.833    21729528.9374
  21341845.971   -20265230.740 9 -15781684.39849  21341845.997    21341849.6864
  20914765.208   -24569721.802 9 -18550302.57349  20914764.780    20914769.7664
  20359244.294   -27261955.219 9 -21045154.96249  20359244.678    20359247.8674
  21677786.858   -15749593.357 9 -12250831.83949  21677786.111    21677790.5394
 99  4 20 19  6 59.9990000  0  5 05 09 24 04 08
  21713298.648   -19740630.183 9 -15129925.88249  21713298.476    21713302.0424
  21346943.909   -20238441.085 9 -15760809.37649  21346943.818    21346947.8574
  20900597.390   -24644174.084 9 -18608317.30549  20900596.798    20900601.5964
  20360576.329   -27254955.404 9 -21039700.56149  20360576.416    20360579.5664
  21667198.068   -15805237.948 9 -12294191.25749  21667197.981    21667202.1204
 99  4 20 19  7 29.9990000  0  5 05 09 24 04 08
  21697100.842   -19825750.144 9 -15196253.10949  21697100.000    21697104.2414
  21352124.250   -20211218.273 9 -15739596.82249  21352123.722    21352128.0444
  20886505.553   -24718226.759 9 -18666020.65549  20886505.113    20886510.0324
  20362010.464   -27247418.861 9 -21033827.92749  20362010.234    20362013.6324
  21656714.880   -15860327.544 9 -12337118.20449  21656714.419    21656718.0454
 99  4 20 19  7 59.9990000  0  5 05 09 24 04 08
  21680953.482   -19910605.087 9 -15262373.83249  21680952.879    21680956.7664
  21357407.394   -20183455.044 9 -15717963.18249  21357407.444    21357411.0574
  20872512.470   -24791760.628 9 -18723319.75549  20872512.270    20872516.8124
  20363566.110   -27239243.703 9 -21027457.68849  20363566.306    20363569.4534
  21646356.076   -15914763.414 9 -12379535.77149  21646355.030    21646359.6874
 99  4 20 19  8 29.9990000  0  5 05 09 24 04 08
  21664826.505   -19995353.128 9 -15328411.24549  21664825.873    21664829.5554
  21362764.972   -20155300.951 9 -15696024.96649  21362764.886    21362768.8164
  20858589.588   -24864925.756 9 -18780331.51349  20858589.429    20858594.1824
  20365215.145   -27230578.098 9 -21020705.27849  20365215.345    20365218.5764
  21636089.344   -15968715.308 9 -12421576.20949  21636088.697    21636093.5734
 99  4 20 19  8 59.9990000  0  5 05 09 24 04 08
  21648688.051   -20080161.102 9 -15394495.36249  21648687.655    21648691.3244
  21368169.216   -20126901.615 9 -15673895.64549  21368169.004    21368172.7644
  20844709.342   -24937866.854 9 -18837168.69949  20844709.188    20844713.8104
  20366927.420   -27221580.082 9 -21013693.83549  20366927.729    20366930.9074
  21625881.251   -16022358.978 9 -12463376.46449  21625880.614    21625885.6644
 99  4 20 19  9 29.9990000  0  5 05 09 24 04 08
  21632589.475   -20164759.848 9 -15460416.44449  21632588.651    21632592.8024
  21373672.943   -20097979.447 9 -15651358.93049  21373672.594    21373676.5974
  20830922.587   -25010316.659 9 -18893623.06249  20830922.183    20830927.0334
  20368753.316   -27211985.182 9 -21006217.30049  20368753.405    20368756.7164
  21615783.003   -16075425.514 9 -12504727.00849  21615782.075    21615786.7094
 99  4 20 19  9 59.9990000  0  5 05 09 24 04 08
  21616531.155   -20249146.355 9 -15526172.14149  21616530.777    21616534.4404
  21379278.307   -20068523.315 9 -15628406.13349  21379278.414    21379282.0144
  20817228.732   -25082278.302 9 -18949697.04549  20817228.563    20817233.3564
  20370693.106   -27201791.320 9 -20998274.03449  20370693.093    20370696.4864
  21605795.743   -16127908.838 9 -12545623.10049  21605794.760    21605799.6684
 99  4 20 19 10 29.9990000  0  5 05 09 24 04 08
  21600512.384   -20333325.181 9 -15591766.01249  21600511.637    21600515.9874
  21384984.327   -20038538.025 9 -15605041.00649  21384984.094    21384988.3254
  20803626.211   -25153759.996 9 -19005397.03649  20803625.869    20803630.5834
  20372745.123   -27191007.906 9 -20989871.37849  20372745.232    20372748.4374
  21595919.407   -16179808.941 9 -12586064.73049  21595919.236    21595923.3574
 99  4 20 19 10 59.9990000  0  5 05 09 24 04 08
  21584536.873   -20417276.899 9 -15657182.92049  21584536.476    21584540.5514
  21390793.901   -20008008.360 9 -15581251.69249  21390793.951    21390797.9504
  20790116.875   -25224752.211 9 -19060715.61549  20790116.562    20790121.1504
  20374910.252   -27179630.454 9 -20981005.83849  20374910.303    20374913.5414
  21586158.565   -16231102.955 9 -12626034.09549  21586157.994    21586162.4364
 99  4 20 19 11 29.9990000  0  5 05 09 24 04 08
  21568607.608   -20500985.872 9 -15722410.67349  21568606.824    21568611.0584
  21396707.797   -19976931.132 9 -15557035.70749  21396707.807    21396711.5614
  20776700.134   -25295257.527 9 -19115654.79349  20776699.890    20776704.5344
  20377187.373   -27167663.964 9 -20971681.30849  20377187.407    20377190.7544
  21576517.007   -16281769.813 9 -12665514.75949  21576516.219    21576520.9084
 99  4 20 19 11 59.9990000  0  5 05 09 24 04 08
  21552724.461   -20584452.339 9 -15787449.45649  21552724.060    21552728.1264
  21402725.781   -19945306.909 9 -15532393.49249  21402725.781    21402729.9324
  20763376.062   -25365275.937 9 -19170214.56249  20763375.734    20763380.4504
  20379572.678   -27155129.200 9 -20961913.96249  20379572.765    20379576.1344
  21566995.005   -16331808.564 9 -12704505.99349  21566994.660    21566998.3684
 99  4 20 19 12 29.9990000  0  5 05 09 24 04 08
  21536889.780   -20667664.006 9 -15852289.69549  21536889.262    21536893.1854
  21408845.199   -19913149.451 9 -15507335.76649  21408844.875    21408848.9444
  20750145.698   -25434801.670 9 -19224390.43349  20750145.173    20750150.0234
  20382065.438   -27142029.804 9 -20951706.64549  20382065.510    20382068.8834
  21557595.472   -16381203.617 9 -12742995.63649  21557595.057    21557599.0374
 99  4 20 19 12 59.9990000  0  5 05 09 24 04 08
  21521103.352   -20750622.102 9 -15916932.35149  21521102.910    21521106.9094
  21415063.538   -19880471.889 9 -15481872.76649  21415063.350    21415067.2884
  20737010.460   -25503827.673 9 -19278176.90749  20737010.187    20737014.9554
  20384667.059   -27128358.324 9 -20941053.55849  20384667.139    20384670.5334
  21548316.748   -16429963.561 9 -12780990.40049  21548316.091    21548320.5424
 99  4 20 19 13 29.9990000  0  5 05 09 24 04 08
  21505362.713   -20833339.364 9 -15981387.34549  21505362.038    21505366.0004
  21421374.028   -19847310.174 9 -15456032.50049  21421373.951    21421377.7344
  20723971.212   -25572349.097 9 -19331570.19849  20723970.864    20723975.6814
  20387375.348   -27114126.323 9 -20929963.69149  20387375.284    20387378.7294
  21539153.599   -16478116.129 9 -12818511.87749  21539152.875    21539157.2844
 99  4 20 19 13 59.9990000  0  5 05 09 24 04 08
  21489666.530   -20915822.965 9 -16045660.25849  21489665.864    21489670.0054
  21427774.706   -19813674.411 9 -15429822.84549  21427774.460    21427778.5954
  20711030.949   -25640350.676 9 -19384558.41549  20711030.742    20711035.2864
  20390193.424   -27099317.198 9 -20918424.11949  20390193.423    20390196.8524
  21530106.045   -16525661.480 9 -12855560.20149  21530105.648    21530109.8964
 99  4 20 19 14 29.9990000  0  5 05 09 24 04 08
  21474012.583   -20998085.001 9 -16109760.53349  21474011.931    21474016.2564
  21434264.007   -19779572.888 9 -15403250.26449  21434263.798    21434268.0654
  20698189.756   -25707831.745 9 -19437141.03849  20698189.492    20698193.9374
  20393123.685   -27083918.576 9 -20906425.19949  20393123.714    20393126.8974
  21521172.954   -16572605.138 9 -12892139.67049  21521172.103    21521176.7644
 99  4 20 19 14 59.9990000  0  5 05 09 24 04 08
  21458397.413   -21080143.505 9 -16173702.20549  21458396.761    21458400.6344
  21440841.988   -19745005.318 9 -15376314.53449  21440841.754    21440846.0624
  20685447.924   -25774790.690 9 -19489316.81749  20685447.563    20685452.1764
  20396163.984   -27067941.714 9 -20893975.70249  20396163.910    20396167.2644
  21512351.263   -16618963.122 9 -12928262.76949  21512350.620    21512354.6564
 99  4 20 19 15 29.9990000  0  5 05 09 24 04 08
  21442818.281   -21162012.657 9 -16237496.33049  21442817.686    21442822.0034
  21447509.867   -19709965.545 9 -15349010.85349  21447509.708    21447513.5514
  20672801.505   -25841247.907 9 -19541101.64449  20672801.327    20672805.8484
  20399308.320   -27051418.260 9 -20881100.29049  20399308.193    20399311.8404
  21503641.056   -16664735.072 9 -12963929.22749  21503640.509    21503645.0374
 99  4 20 19 15 59.9990000  0  6 05 09 30 24 04 08
  21427273.988   -21243698.641 9 -16301147.72849  21427273.537    21427277.4704
  21454272.350   -19674428.284 9 -15321319.52349  21454271.737    21454275.9704
  24496785.157    -2131310.047 9   -829525.77749  24496786.008    24496790.0844
  20660245.878   -25907228.152 9 -19592514.79649  20660245.630    20660250.2584
  20402555.302   -27034355.212 9 -20867804.42049  20402555.335    20402558.5894
  21495043.533   -16709915.148 9 -12999134.47449  21495042.941    21495047.2014
 99  4 20 19 16 29.9990000  0  6 05 09 30 24 04 08
  21411767.023   -21325188.392 9 -16364646.22449  21411766.413    21411770.0284
  21461129.954   -19638391.369 9 -15293238.84649  21461130.149    21461134.1484
  24475313.283    -2244146.041 9   -917449.86849  24475312.084    24475319.9374
  20647779.186   -25972741.212 9 -19643563.91549  20647778.850    20647783.3714
  20405901.508   -27016770.783 9 -20854102.27549  20405901.558    20405904.7584
  21486558.289   -16754505.081 9 -13033879.88549  21486557.856    21486562.1994
 99  4 20 19 16 59.9990000  0  6 05 09 30 24 04 08
  21396296.873   -21406484.127 9 -16427993.53049  21396296.312    21396300.2444
  21468078.400   -19601877.469 9 -15264786.49149  21468078.469    21468082.3524
  24453836.277    -2357008.299 9  -1005394.39749  24453836.002    24453841.8514
  20635396.451   -26037812.619 9 -19694268.88549  20635395.893    20635400.4144
  20409340.249   -26998700.130 9 -20840021.25549  20409340.298    20409343.3614
  21478183.925   -16798512.641 9 -13068171.48149  21478183.363    21478187.3934
 99  4 20 19 17 29.9990000  0  6 05 09 30 24 04 08
  21380864.064   -21487583.990 9 -16491188.21149  21380863.836    21380867.3174
  21475115.499   -19564897.691 9 -15235971.11849  21475115.317    21475119.6854
  24432350.848    -2469915.442 9  -1093373.96849  24432351.345    24432356.1554
  20623094.035   -26102461.992 9 -19744645.00349  20623093.729    20623098.1354
  20412871.702   -26980142.358 9 -20825560.66549  20412871.643    20412875.2824
  21469919.694   -16841941.117 9 -13102011.84849  21469918.655    21469923.6514
 99  4 20 19 17 59.9990000  0  6 05 09 30 24 04 08
  21365472.517   -21568467.216 9 -16554214.09249  21365471.952    21365475.8634
  21482236.907   -19527474.486 9 -15206810.22049  21482236.677    21482241.1274
  24410855.857    -2582871.976 9  -1181391.97949  24410855.506    24410860.5244
  20610874.061   -26166678.210 9 -19794683.58849  20610873.469    20610878.2334
  20416497.924   -26961086.378 9 -20810711.86149  20416498.082    20416501.4644
  21461767.439   -16884781.516 9 -13135393.97849  21461767.298    21461771.7244
 99  4 20 19 18 29.9990000  0  6 05 09 30 24 04 08
  21350122.462   -21649132.286 9 -16617069.97749  21350122.038    21350125.9704
  21489436.211   -19489642.325 9 -15177330.65949  21489436.193    21489440.3554
  24389351.171    -2695879.737 9  -1269449.94249  24389352.653    24389355.5364
  20598739.219   -26230447.381 9 -19844373.83549  20598739.220    20598743.4214
  20420216.504   -26941545.091 9 -20795484.89449  20420216.798    20420219.8494
  21453725.041   -16927045.267 9 -13168326.77449  21453724.256    21453729.4114
 99  4 20 19 18 59.9990000  0  6 05 09 30 24 04 08
  21334824.823   -21729522.122 9 -16679711.39249  21334824.408    21334828.2914
  21496725.996   -19451334.475 9 -15147480.42449  21496726.126    21496729.8594
  24367849.991    -2808868.973 9  -1357493.46949  24367849.769    24367855.9524
  20586704.000   -26293692.955 9 -19893656.07849  20586703.812    20586708.3304
  20424040.863   -26921447.940 9 -20779824.78349  20424040.921    20424044.2324
  21445803.256   -16968675.006 9 -13200765.53249  21445802.720    21445807.4874
 99  4 20 19 19 29.9990000  0  6 05 09 30 24 04 08
  21319590.300   -21809580.173 9 -16742094.27349  21319589.795    21319593.5644
  21504117.788   -19412490.797 9 -15117212.66449  21504117.779    21504122.1544
  24346364.387    -2921776.211 9  -1445473.13349  24346365.502    24346370.5954
  20574781.149   -26356348.012 9 -19942478.17449  20574780.886    20574785.4434
  20427985.213   -26900720.196 9 -20763673.30349  20427985.110    20427988.6344
  21438011.572   -17009620.882 9 -13232671.42049  21438011.384    21438015.5634
 99  4 20 19 19 59.9990000  0  6 05 09 30 24 04 08
  21304411.766   -21889343.867 9 -16804247.78349  21304411.363    21304415.1184
  21511604.701   -19373147.005 9 -15086555.20049  21511604.586    21511608.9734
  24324889.242    -3034628.681 9  -1533410.09049  24324890.319    24324895.4424
  20562965.804   -26418438.002 9 -19990859.96449  20562965.465    20562970.0174
  20432043.012   -26879396.387 9 -20747057.36449  20432043.101    20432046.2434
  21430340.551   -17049932.674 9 -13264083.20249  21430340.474    21430344.3524
 99  4 20 19 20 29.9990000  0  6 05 09 30 24 04 08
  21289276.141   -21968882.130 9 -16866225.63549  21289275.291    21289279.1554
  21519175.873   -19333360.431 9 -15055552.71049  21519175.455    21519179.7754
  24303412.981    -3147486.493 9  -1621351.26349  24303412.528    24303418.1004
  20551245.614   -26480027.796 9 -20038851.99449  20551245.379    20551249.7154
  20436202.837   -26857536.312 9 -20730023.54749  20436202.961    20436206.2064
  21422776.683   -17089681.262 9 -13295056.13549  21422775.991    21422780.4554
 99  4 20 19 20 59.9990000  0  6 05 09 30 24 04 08
  21274171.350   -22048258.181 9 -16928077.08449  21274170.698    21274174.5204
  21526820.805   -19293185.578 9 -15024247.66249  21526820.402    21526824.9344
  24281925.592    -3260402.879 9  -1709337.99849  24281924.753    24281929.5574
  20539606.969   -26541189.115 9 -20086510.14249  20539606.506    20539611.0174
  20440454.995   -26835191.273 9 -20712611.83949  20440455.277    20440458.3094
  21415311.972   -17128908.439 9 -13325622.77049  21415311.368    21415315.6954
 99  4 20 19 21 29.9990000  0  6 05 09 30 24 04 08
  21259110.746   -22127401.746 9 -16989747.37849  21259109.725    21259113.8024
  21534549.875   -19252569.095 9 -14992598.49149  21534549.412    21534553.7634
  24260437.671    -3373322.441 9  -1797327.20849  24260436.289    24260440.8944
  20528058.694   -26601875.683 9 -20133798.35649  20528058.321    20528062.9304
  20444810.416   -26812303.497 9 -20694777.21449  20444810.722    20444813.8654
  21407959.404   -17167546.238 9 -13355730.13849  21407958.898    21407963.1174
 99  4 20 19 21 59.9990000  0  6 05 09 30 24 04 08
  21244100.352   -22206281.652 9 -17051212.22549  21244100.106    21244103.6844
  21542368.705   -19211480.984 9 -14960581.82149  21542368.539    21542372.6544
  24238954.960    -3486213.658 9  -1885294.32049  24238953.642    24238961.3964
  20516608.326   -26662047.705 9 -20180685.62849  20516607.898    20516612.2864
  20449271.723   -26788859.231 9 -20676508.96449  20449271.424    20449274.8624
  21400728.135   -17205546.549 9 -13385340.77949  21400727.515    21400731.8434
 99  4 20 19 22 29.9990000  0  6 05 09 30 24 04 08
  21229141.274   -22284892.365 9 -17112467.31549  21229140.912    21229144.5374
  21550277.982   -19169917.542 9 -14928194.76649  21550277.843    21550282.0524
  24217477.920    -3599075.453 9  -1973238.50249  24217478.339    24217485.2314
  20505254.193   -26721714.054 9 -20227178.86749  20505253.918    20505258.3054
  20453835.948   -26764874.004 9 -20657819.19049  20453836.154    20453839.3314
  21393625.115   -17242873.547 9 -13414426.76149  21393624.562    21393628.7464
 99  4 20 19 22 59.9990000  0  6 05 09 30 24 04 08
  21214231.559   -22363243.386 9 -17173520.04149  21214230.914    21214234.7944
  21558277.929   -19127877.714 9 -14895436.49649  21558277.775    21558282.2354
  24196004.309    -3711920.149 9  -2061169.37649  24196003.605    24196010.7144
  20493994.743   -26780882.844 9 -20273284.39249  20493994.433    20493998.8414
  20458498.077   -26740374.562 9 -20638728.72349  20458498.196    20458501.4224
  21386648.032   -17279538.487 9 -13442996.84149  21386647.582    21386651.7634
 99  4 20 19 23 29.9990000  0  6 05 09 30 24 04 08
  21199372.791   -22441326.723 9 -17234364.18949  21199371.970    21199376.0914
  21566369.438   -19085356.955 9 -14862303.48049  21566369.683    21566373.4384
  24174533.223    -3824751.467 9  -2149089.76849  24174532.709    24174537.5864
  20482832.352   -26839541.639 9 -20318992.52349  20482832.170    20482836.3634
  20463255.836   -26715372.575 9 -20619246.67249  20463255.933    20463259.1084
  21379794.692   -17315552.830 9 -13471059.96949  21379793.967    21379798.4074
 99  4 20 19 23 59.9990000  0  6 05 09 30 24 04 08
  21184565.961   -22519137.166 9 -17294995.68949  21184565.191    21184569.3784
  21574553.028   -19042352.070 9 -14828793.22449  21574553.118    21574557.1704
  24153067.690    -3937553.146 9  -2236987.09249  24153067.000    24153073.6324
  20471769.765   -26897675.644 9 -20364291.72749  20471769.499    20471773.9284
  20468108.623   -26689870.927 9 -20599375.27749  20468108.673    20468112.1224
  21373067.165   -17350906.428 9 -13498608.23549  21373066.534    21373070.8614
 99  4 20 19 24 29.9990000  0  6 05 09 30 24 04 08
  21169813.734   -22596660.212 9 -17355403.24449  21169813.153    21169816.6774
  21582827.816   -18998868.073 9 -14794909.62849  21582827.899    21582832.0804
  24131609.587    -4050316.754 9  -2324854.76249  24131609.744    24131615.6054
  20460805.789   -26955291.639 9 -20409187.28249  20460805.429    20460810.0054
  20473056.977   -26663867.097 9 -20579112.56349  20473056.958    20473060.4034
  21366461.143   -17385621.569 9 -13525658.99649  21366460.427    21366464.8284
 99  4 20 19 24 59.9990000  0  6 05 09 30 24 04 08
  21155117.626   -22673888.645 9 -17415581.22949  21155117.357    21155120.9414
  21591194.024   -18954903.848 9 -14760651.83749  21591194.087    21591198.1324
  24110160.640    -4163031.953 9  -2412684.71549  24110161.153    24110165.5524
  20449944.768   -27012366.483 9 -20453661.16549  20449944.368    20449948.9494
  20478105.536   -26637336.778 9 -20558439.60249  20478105.822    20478108.9874
  21359973.004   -17419716.752 9 -13552226.67049  21359972.379    21359976.6814
 99  4 20 19 25 29.9990000  0  6 05 09 30 24 04 08
  21140475.705   -22750832.482 9 -17475537.45249  21140474.984    21140479.0074
  21599645.213   -18910492.872 9 -14726045.92849  21599644.757    21599649.1394
  24088718.609    -4275710.293 9  -2500485.93649  24088718.437    24088722.9434
  20439183.824   -27068915.494 9 -20497725.30649  20439183.438    20439188.1284
  20483253.974   -26610281.483 9 -20537357.56749  20483254.068    20483257.1634
  21353600.618   -17453204.067 9 -13578320.68749  21353599.900    21353604.6604
 99  4 20 19 25 59.9990000  0  6 05 09 30 24 04 08
  21125873.362   -22827568.179 9 -17535331.49649  21125872.903    21125876.5054
  21608165.304   -18865719.479 9 -14691157.61449  21608164.829    21608169.0564
  24067267.963    -4388433.719 9  -2588322.34249  24067269.006    24067274.2514
  20428507.050   -27125022.102 9 -20541444.72749  20428506.599    20428510.9974
  20488488.336   -26582774.787 9 -20515923.79349  20488488.325    20488491.7054
  21347330.425   -17486154.350 9 -13603996.23949  21347329.261    21347333.7354
 99  4 20 19 26 29.9990000  0  6 05 09 30 24 04 08
  21111306.704   -22904116.454 9 -17594979.47949  21111306.317    21111309.8984
  21616751.711   -18820597.623 9 -14655997.76349  21616751.574    21616755.7774
  24045804.545    -4501225.137 9  -2676211.69949  24045804.826    24045809.7624
  20417912.887   -27180694.602 9 -20584825.87249  20417912.473    20417916.9204
  20493807.772   -26554821.047 9 -20494141.66449  20493808.082    20493811.1754
  21341159.439   -17518582.940 9 -13629265.27049  21341158.693    21341163.3454
 99  4 20 19 26 59.9990000  0  6 05 09 30 24 04 08
  21096800.541   -22980347.030 9 -17654379.91649  21096800.169    21096803.8434
  21625430.648   -18774989.785 9 -14620459.24549  21625430.386    21625434.6844
  24024353.478    -4613951.314 9  -2764050.21549  24024353.296    24024358.0374
  20407428.442   -27235790.619 9 -20627757.81149  20407428.191    20407432.4554
  20499239.229   -26526278.732 9 -20471900.90549  20499239.182    20499242.6214
  21335118.314   -17550329.173 9 -13654002.59949  21335117.695    21335121.8124
 99  4 20 19 27 29.9990000  0  6 05 09 30 24 04 08
  21082340.677   -23056334.319 9 -17713590.77849  21082340.040    21082344.1454
  21634185.363   -18728983.176 9 -14584609.98549  21634185.135    21634189.4044
  24002900.431    -4726687.557 9  -2851896.58649  24002900.778    24002905.2934
  20397036.171   -27290402.393 9 -20670312.41949  20397036.126    20397040.3174
  20504763.664   -26497247.427 9 -20449279.11949  20504763.727    20504766.9334
  21329194.841   -17581457.327 9 -13678258.30749  21329194.546    21329198.6054
 99  4 20 19 27 59.9990000  0  6 05 09 30 24 04 08
  21067927.313   -23132077.345 9 -17772611.30249  21067926.948    21067930.3374
  21643016.954   -18682573.080 9 -14548446.32749  21643017.171    21643021.1304
  23981445.362    -4839434.726 9  -2939751.45049  23981445.860    23981449.9164
  20386735.554   -27344532.517 9 -20712491.71449  20386734.987    20386739.5324
  20510382.126   -26467722.189 9 -20426272.44949  20510382.048    20510385.5804
  21323390.031   -17611961.797 9 -13702028.03249  21323389.455    21323393.8954
 99  4 20 19 28 29.9990000  0  6 05 09 30 24 04 08
  21053561.695   -23207568.990 9 -17831435.94349  21053560.983    21053564.6374
  21651926.764   -18635752.040 9 -14511962.45349  21651926.253    21651931.1394
  23959991.424    -4952175.874 9  -3027601.63849  23959991.573    23959997.4254
  20376527.312   -27398177.133 9 -20754292.69249  20376526.754    20376531.2634
  20516096.593   -26437692.534 9 -20402872.72549  20516096.752    20516100.0314
  21317703.333   -17641845.490 9 -13725314.02449  21317702.602    21317707.0524
 99  4 20 19 28 59.9990000  0  6 05 09 30 24 04 08
  21039257.196   -23282739.498 9 -17890010.34549  21039256.776    21039260.5574
  21660923.707   -18588472.675 9 -14475121.44649  21660923.595    21660928.0504
  23938550.868    -5064846.249 9  -3115396.67149  23938550.746    23938556.4604
  20366419.267   -27451295.089 9 -20795683.28449  20366418.832    20366423.2974
  20521916.051   -26407111.247 9 -20379043.15749  20521916.353    20521919.5134
  21312143.988   -17671060.163 9 -13748078.70949  21312143.670    21312147.7024
 99  4 20 19 29 29.9990000  0  6 05 09 30 24 04 08
  21024992.614   -23357700.506 9 -17948421.50449  21024992.051    21024995.5434
  21669984.568   -18540857.661 9 -14438018.89649  21669984.642    21669988.6744
  23917101.583    -5177562.458 9  -3203227.46449  23917102.874    23917105.8644
  20356389.712   -27504000.795 9 -20836752.64749  20356389.455    20356393.9764
  20527817.600   -26376098.633 9 -20354877.49349  20527817.797    20527820.8384
  21306685.918   -17699742.567 9 -13770428.63849  21306685.409    21306689.9034
 99  4 20 19 29 59.9990000  0  6 05 09 30 24 04 08
  21010787.628   -23432348.482 9 -18006588.74349  21010786.925    21010790.7694
  21679131.410   -18492791.015 9 -14400564.43049  21679131.040    21679135.7634
  23895664.557    -5290214.254 9  -3291008.05449  23895664.686    23895671.5684
  20346461.431   -27556174.179 9 -20877407.21349  20346461.078    20346465.4924
  20533821.927   -26344545.692 9 -20330290.78849  20533822.041    20533825.4044
  21301347.837   -17727794.450 9 -13792287.25449  21301347.334    21301351.3494
 99  4 20 19 30 29.9990000  0  7 05 09 30 24 10 04 08
  20996655.267   -23506614.288 9 -18064458.18649  20996654.529    20996658.4124
  21688377.251   -18444204.056 9 -14362704.49249  21688376.909    21688382.0114
  23874254.507    -5402724.100 9  -3378678.02949  23874254.168    23874259.9924
  20336648.538   -27607741.144 9 -20917589.24649  20336648.361    20336652.7634
  24445646.164    -4435957.381 9  -3181143.49549  24445643.783    24445654.4074
  20539936.948   -26312410.983 9 -20305250.77149  20539937.237    20539940.2074
  21296143.410   -17755143.579 9 -13813598.27149  21296142.517    21296147.1164
 99  4 20 19 30 59.9990000  0  7 05 09 30 24 10 04 08
  20982544.857   -23580764.755 9 -18122237.74449  20982544.137    20982547.6044
  21697669.873   -18395371.207 9 -14324652.96549  21697669.786    21697674.2134
  23852820.278    -5515360.934 9  -3466446.90149  23852820.326    23852825.3354
  20326900.801   -27658965.792 9 -20957504.53249  20326900.550    20326905.0024
  24424572.726    -4546697.617 9  -3267434.29749  24424570.861    24424581.0524
  20546107.835   -26279982.881 9 -20279982.12149  20546108.045    20546110.9964
  21291024.298   -17782044.321 9 -13834559.88749  21291023.531    21291028.2454
 99  4 20 19 31 29.9990000  0  7 05 09 30 24 10 04 08
  20968508.184   -23654527.921 9 -18179715.52649  20968507.614    20968510.9604
  21707065.839   -18345995.270 9 -14286178.26849  21707065.731    21707070.2714
  23831416.471    -5627837.819 9  -3554091.16649  23831415.205    23831422.1734
  20317273.940   -27709555.387 9 -20996924.98149  20317273.704    20317278.3044
  24403505.556    -4657405.702 9  -3353700.07849  24403503.876    24403513.2654
  20552387.072   -26246985.319 9 -20254269.74249  20552387.168    20552390.6114
  21286047.968   -17808195.233 9 -13854937.23249  21286047.816    21286051.5304
 99  4 20 19 31 59.9990000  0  7 05 09 30 24 10 04 08
  20954518.997   -23728041.556 9 -18236998.86249  20954518.069    20954521.8294
  21716541.395   -18296200.865 9 -14247377.48449  21716541.181    21716545.8454
  23810017.825    -5740287.616 9  -3641714.33149  23810015.899    23810021.7944
  20307741.596   -27759648.311 9 -21035958.40949  20307741.293    20307745.7494
  24382422.320    -4768198.127 9  -3440031.54349  24382421.601    24382430.3634
  20558749.509   -26213550.442 9 -20228216.59749  20558749.754    20558752.8764
  21281190.005   -17833724.430 9 -13874830.11849  21281189.919    21281193.8014
 99  4 20 19 32 29.9990000  0  7 05 09 30 24 10 04 08
  20940580.979   -23801285.852 9 -18294072.32849  20940580.388    20940584.0964
  21726097.323   -18245984.492 9 -14208247.90949  21726097.606    21726101.7364
  23788626.339    -5852700.368 9  -3729308.62749  23788625.257    23788630.8314
  20298306.533   -27809229.937 9 -21074593.42749  20298306.195    20298310.6834
  24361331.122    -4879032.812 9  -3526395.94249  24361329.702    24361338.3154
  20565199.364   -26179656.526 9 -20201805.76449  20565199.369    20565202.5664
  21276453.586   -17858614.714 9 -13894225.14849  21276452.808    21276457.2124
 99  4 20 19 32 59.9990000  0  7 05 09 30 24 10 04 08
  20926693.627   -23874264.323 9 -18350938.65649  20926692.862    20926696.7684
  21735730.985   -18195359.743 9 -14168800.11249  21735730.777    21735735.5064
  23767239.807    -5965087.882 9  -3816883.22049  23767239.502    23767244.6964
  20288968.064   -27858303.815 9 -21112832.79349  20288967.750    20288972.0504
  24340232.625    -4989905.664 9  -3612790.07949  24340231.059    24340241.9314
  20571739.879   -26145285.986 9 -20175023.53049  20571739.881    20571743.4064
  21271833.292   -17882894.098 9 -13913144.15449  21271832.647    21271836.7564
 99  4 20 19 33 29.9990000  0  7 05 09 30 24 10 04 08
  20912861.120   -23946954.359 9 -18407580.23649  20912860.468    20912864.1024
  21745441.387   -18144331.583 9 -14129037.96349  21745441.384    21745445.8974
  23745858.782    -6077446.384 9  -3904435.23149  23745858.844    23745864.2874
  20279727.937   -27906860.855 9 -21150669.43149  20279727.607    20279731.9294
  24319125.937    -5100819.845 9  -3699216.39649  24319124.740    24319134.3184
  20578375.428   -26110416.021 9 -20147852.14649  20578375.727    20578378.9754
  21267327.446   -17906572.513 9 -13931594.87449  21267326.886    21267331.2664
 99  4 20 19 33 59.9990000  0  7 05 09 30 24 10 04 08
  20899088.606   -24019329.087 9 -18463976.10949  20899088.272    20899091.8554
  21755227.293   -18092906.705 9 -14088966.68249  21755227.449    21755231.7394
  23724484.342    -6189769.308 9  -3991959.53549  23724484.181    23724488.3574
  20270588.227   -27954890.313 9 -21188094.96449  20270587.774    20270592.4744
  24298013.371    -5211765.322 9  -3785667.10949  24298011.826    24298021.0594
  20585109.713   -26075027.000 9 -20120276.29849  20585109.515    20585113.0794
  21262936.259   -17929648.363 9 -13949576.06549  21262935.796    21262939.9164
 99  4 20 19 34 29.9990000  0  7 05 09 30 24 10 04 08
  20885381.775   -24091359.196 9 -18520103.45149  20885381.042    20885384.8634
  21765089.461   -18041081.130 9 -14048583.17749  21765089.242    21765093.5154
  23703120.366    -6302036.424 9  -4079440.31749  23703119.442    23703125.8064
  20261549.786   -28002387.516 9 -21225105.75449  20261549.481    20261553.6204
  24276894.916    -5322742.296 9  -3872142.37649  24276893.336    24276903.4654
  20591943.726   -26039113.964 9 -20092292.12349  20591943.734    20591947.1364
  21258664.255   -17952098.013 9 -13967069.30749  21258663.783    21258668.1234
 99  4 20 19 34 59.9990000  0  7 05 09 30 24 10 04 08
  20871742.035   -24163036.482 9 -18575955.86549  20871741.534    20871745.2794
  21775028.612   -17988850.593 9 -14007884.11349  21775028.531    21775033.1074
  23681767.622    -6414246.179 9  -4166876.41149  23681768.673    23681773.0974
  20252610.819   -28049361.999 9 -21261709.22849  20252610.420    20252614.8144
  24255767.479    -5433767.217 9  -3958655.02649  24255765.583    24255776.2234
  20598874.502   -26002692.488 9 -20063911.76149  20598874.156    20598878.0024
  21254513.410   -17973910.892 9 -13984066.36349  21254512.527    21254517.3384
 99  4 20 19 35 29.9990000  0  7 05 09 30 24 10 04 08
  20858165.281   -24234382.356 9 -18631550.03749  20858164.773    20858168.5914
  21785042.383   -17936227.916 9 -13966879.47949  21785042.439    21785046.8704
  23660422.497    -6526415.513 9  -4254281.02449  23660422.880    23660427.4184
  20243766.383   -28095839.536 9 -21297925.47549  20243766.122    20243770.5484
  24234626.164    -5544864.372 9  -4045223.95449  24234624.189    24234633.7134
  20605894.807   -25965800.494 9 -20035164.76249  20605894.786    20605898.2384
  21250484.553   -17995082.954 9 -14000564.08049  21250483.856    21250488.3134
 99  4 20 19 35 59.9990000  0  7 05 09 30 24 10 04 08
  20844649.109   -24305410.319 9 -18686896.48449  20844648.870    20844652.7204
  21795133.561   -17883198.567 9 -13925557.95649  21795133.573    21795137.9684
  23639086.825    -6638535.262 9  -4341646.99849  23639087.131    23639091.8744
  20235018.526   -28141809.954 9 -21333746.56549  20235018.478    20235022.6404
  24213473.954    -5656017.736 9  -4131836.66149  24213472.482    24213483.0264
  20613002.818   -25928447.612 9 -20006058.63149  20613002.685    20613006.2524
  21246581.362   -18015594.638 9 -14016547.22049  21246580.588    21246584.7814
 99  4 20 19 36 29.9990000  0  7 05 09 30 24 10 04 08
  20831195.118   -24376111.856 9 -18741988.58049  20831194.514    20831197.8394
  21805305.587   -17829744.128 9 -13883905.19749  21805305.201    21805310.1134
  23617761.586    -6750599.952 9  -4428970.07749  23617762.084    23617766.5404
  20226372.383   -28187245.587 9 -21369150.93849  20226372.284    20226376.4044
  24192316.303    -5767200.435 9  -4218472.23749  24192314.959    24192321.8804
  20620198.675   -25890633.085 9 -19976592.77749  20620198.574    20620202.0014
  21242807.046   -18035428.834 9 -14032002.44249  21242806.441    21242810.9804
 99  4 20 19 36 59.9990000  0  7 05 09 30 24 10 04 08
  20817796.858   -24446519.927 9 -18796851.99549  20817796.190    20817800.0664
  21815551.637   -17775901.007 9 -13841949.58949  21815551.928    21815555.8424
  23596443.554    -6862627.319 9  -4516264.07049  23596443.992    23596448.2454
  20217828.113   -28232146.148 9 -21404138.36449  20217827.869    20217832.1694
  24171152.713    -5878414.806 9  -4305132.49649  24171151.140    24171161.0974
  20627478.393   -25852377.589 9 -19946783.31449  20627478.374    20627482.0224
  21239155.239   -18054618.802 9 -14046955.66649  21239154.609    21239158.9934
 99  4 20 19 37 29.9990000  0  7 05 09 30 24 10 04 08
  20804450.321   -24516656.083 9 -18851503.52949  20804449.729    20804453.4114
  21825865.218   -17721703.292 9 -13799717.65949  21825864.938    21825869.2874
  23575132.195    -6974619.283 9  -4603530.47049  23575133.005    23575137.2424
  20209386.186   -28276508.646 9 -21438706.52749  20209385.863    20209390.3764
  24149982.389    -5989664.144 9  -4391819.97449  24149980.217    24149992.2144
  20634840.846   -25813688.004 9 -19916635.60449  20634840.827    20634844.2554
  21235618.572   -18073204.199 9 -14061437.80349  21235617.808    21235622.6504
 99  4 20 19 37 59.9990000  0  7 05 09 30 24 10 04 08
  20791149.914   -24586549.938 9 -18905966.26049  20791149.407    20791153.0274
  21836239.170   -17667187.501 9 -13757237.89849  21836238.926    21836243.6454
  23553824.727    -7086590.368 9  -4690780.60949  23553825.436    23553829.8114
  20201043.489   -28320349.617 9 -21472868.30749  20201043.029    20201047.3624
  24128800.966    -6100971.306 9  -4478552.53549  24128799.400    24128807.9414
  20642280.525   -25774592.067 9 -19886171.24549  20642280.716    20642284.0204
  21232190.220   -18091220.626 9 -14075476.59149  21232189.141    21232193.7184
 99  4 20 19 38 29.9990000  0  7 05 09 30 24 10 04 08
  20777902.078   -24656167.666 9 -18960213.82449  20777901.488    20777905.2844
  21846674.746   -17612348.086 9 -13714505.95249  21846674.372    21846678.9794
  23532525.994    -7198515.660 9  -4777995.05449  23532526.171    23532530.8034
  20192801.319   -28363662.591 9 -21506618.65549  20192800.925    20192805.1194
  24107612.987    -6212313.669 9  -4565312.55549  24107611.598    24107621.1974
  20649802.520   -25735063.909 9 -19855370.09149  20649802.689    20649805.8804
  21228870.285   -18108666.995 9 -14089071.17249  21228869.509    21228873.7314
 99  4 20 19 38 59.9990000  0  7 05 09 30 24 10 04 08
  20764712.488   -24725479.354 9 -19014222.91849  20764711.879    20764715.7284
  21857174.997   -17557169.321 9 -13671509.56249  21857175.113    21857179.6064
  23511247.197    -7310336.425 9  -4865128.05449  23511247.712    23511251.1864
  20184661.333   -28406438.565 9 -21539950.56549  20184661.170    20184665.3674
  24086422.580    -6323669.649 9  -4652083.17749  24086422.237    24086430.6164
  20657412.330   -25695074.447 9 -19824209.47249  20657412.321    20657415.7384
  21225663.349   -18125519.273 9 -14102202.83249  21225662.989    21225667.5334
 99  4 20 19 39 29.9990000  0  7 05 09 30 24 10 04 08
  20751580.887   -24794486.572 9 -19067994.76249  20751580.370    20751584.3194
  21867743.069   -17501634.005 9 -13628235.34749  21867742.917    21867748.1074
  23489987.132    -7422058.583 9  -4952184.19749  23489986.761    23489991.8004
  20176619.233   -28448700.141 9 -21572881.64449  20176618.847    20176623.0284
  24065227.780    -6435048.850 9  -4738871.91149  24065226.490    24065235.1464
  20665106.678   -25654640.283 9 -19792702.34349  20665106.644    20665110.0344
  21222570.713   -18141771.545 9 -14114866.94749  21222570.120    21222574.4614
 99  4 20 19 39 59.9990000  0  7 05 09 30 24 10 04 08
  20738495.153   -24863252.620 9 -19121578.68549  20738494.669    20738498.6054
  21878368.765   -17445795.806 9 -13584725.11349  21878368.880    21878373.1884
  23468729.292    -7533769.691 9  -5039231.73449  23468730.456    23468733.1954
  20168655.646   -28490548.879 9 -21605491.03149  20168655.400    20168659.6634
  24044014.251    -6546526.074 9  -4825737.04349  24044013.176    24044022.2194
  20672871.007   -25613838.403 9 -19760908.68449  20672871.149    20672874.5284
  21219583.178   -18157471.385 9 -14127100.59249  21219582.119    21219586.7284
 99  4 20 19 40 29.9990000  0  7 05 09 30 24 10 04 08
  20725474.080   -24931678.847 9 -19174897.80649  20725473.633    20725477.5994
  21889065.965   -17389582.050 9 -13540922.26349  21889066.045    21889070.5114
  23447486.562    -7645400.535 9  -5126216.76249  23447486.533    23447490.3284
  20160783.629   -28531916.422 9 -21637725.46349  20160783.270    20160787.6264
  24022798.585    -6658014.879 9  -4912611.19949  24022796.864    24022806.0674
  20680721.954   -25572581.501 9 -19728760.45349  20680721.604    20680725.4094
  21216716.475   -18172536.048 9 -14138839.30349  21216715.623    21216720.5244
 99  4 20 19 40 59.9990000  0  7 05 09 30 24 10 04 08
  20712516.849   -24999769.680 9 -19227955.58649  20712516.393    20712519.7694
  21899836.933   -17332980.942 9 -13496817.58249  21899836.838    21899841.7834
  23426260.728    -7756942.654 9  -5213132.65749  23426261.047    23426264.9174
  20153004.393   -28572796.630 9 -21669580.15249  20153003.956    20153008.1924
  24001580.754    -6769514.564 9  -4999493.83049  24001578.903    24001587.4644
  20688659.151   -25530871.083 9 -19696258.84349  20688659.119    20688662.6264
  21213973.304   -18186951.229 9 -14150071.92649  21213972.492    21213977.1614
 99  4 20 19 41 29.9990000  0  7 05 09 30 24 10 04 08
  20699629.423   -25067493.584 9 -19280727.44449  20699628.885    20699632.6734
  21910689.289   -17275951.692 9 -13452379.27349  21910689.146    21910693.9884
  23405052.731    -7868391.013 9  -5299975.45849  23405053.758    23405057.3294
  20145326.948   -28613141.653 9 -21701017.81549  20145326.511    20145330.7604
  23980369.098    -6880982.268 9  -5086351.56049  23980368.017    23980376.4664
  20696692.003   -25488658.109 9 -19663365.62849  20696691.998    20696695.7364
  21211360.185   -18200683.446 9 -14160772.35449  21211359.891    21211364.5064
 99  4 20 19 41 59.9990000  0  7 05 09 30 24 10 04 08
  20686817.562   -25134820.221 9 -19333189.74749  20686817.254    20686820.7174
  21921622.311   -17218498.566 9 -13407610.68249  21921622.307    21921627.0384
  23383866.752    -7979723.538 9  -5386728.02349  23383866.436    23383871.3674
  20137757.561   -28652918.916 9 -21732013.07149  20137757.441    20137761.5374
  23959166.904    -6992399.147 9  -5173169.70049  23959164.715    23959174.7284
  20704826.939   -25445908.749 9 -19630054.44449  20704826.927    20704830.7544
  21208880.813   -18213712.703 9 -14170925.04749  21208879.828    21208884.5884
 99  4 20 19 42 29.9990000  0  7 05 09 30 24 10 04 08
  20674088.125   -25201714.023 9 -19385314.77549  20674087.437    20674091.3244
  21932641.632   -17160592.106 9 -13362488.81949  21932642.048    21932646.4424
  23362713.288    -8090885.386 9  -5473347.57949  23362714.040    23362718.4244
  20130308.016   -28692066.504 9 -21762517.66849  20130307.658    20130312.0184
  23937982.935    -7103719.906 9  -5259912.94949  23937981.230    23937990.1644
  20713070.044   -25402591.426 9 -19596300.69549  20713070.470    20713073.4234
  21206540.644   -18226010.074 9 -14180507.42749  21206540.278    21206544.9034
 99  4 20 19 42 59.9990000  0  7 05 09 30 24 10 04 08
  20661384.738   -25268470.714 9 -19437332.96449  20661384.121    20661388.1104
  21943694.645   -17102508.863 9 -13317229.21649  21943694.616    21943699.5704
  23341538.714    -8202158.940 9  -5560054.17449  23341539.069    23341544.2024
  20122925.128   -28730863.709 9 -21792749.24349  20122924.819    20122929.1664
  23916762.685    -7215231.781 9  -5346805.12049  23916760.721    23916770.2124
  20721363.339   -25359009.993 9 -19562341.14649  20721363.419    20721366.8884
  21204285.346   -18237861.874 9 -14189742.60949  21204285.029    21204289.5544
 99  4 20 19 43 29.9990000  0  7 05 09 30 24 10 04 08
  20648751.291   -25334859.895 9 -19489064.78249  20648750.807    20648754.6504
  21954821.928   -17044034.389 9 -13271664.75449  21954821.323    21954826.7344
  23320382.703    -8313334.377 9  -5646684.33149  23320383.345    23320387.4894
  20115648.426   -28769103.069 9 -21822546.12949  20115648.047    20115652.3094
  23895546.836    -7326720.186 9  -5433678.97949  23895544.769    23895554.4114
  20729744.025   -25314969.258 9 -19528023.70349  20729744.027    20729747.3234
  21202153.904   -18249062.880 9 -14198470.68049  21202153.355    21202158.2854
 99  4 20 19 43 59.9990000  0  7 05 09 30 24 10 04 08
  20636201.054   -25400812.043 9 -19540456.05449  20636200.686    20636204.0614
  21966033.839   -16985115.473 9 -13225753.95249  21966033.651    21966038.9374
  23299258.905    -8424341.274 9  -5733183.17749  23299258.709    23299262.1604
  20108485.450   -28806744.447 9 -21851877.06149  20108485.225    20108489.4464
  23874344.190    -7438140.645 9  -5520499.94849  23874343.476    23874351.8434
  20738216.393   -25270446.630 9 -19493330.76049  20738216.192    20738219.5984
  21200154.025   -18259572.515 9 -14206660.01749  21200153.619    21200158.0194
 99  4 20 19 44 29.9990000  0  7 05 09 30 24 10 04 08
  20623691.843   -25466548.283 9 -19591679.08449  20623691.306    20623694.9454
  21977290.379   -16925962.198 9 -13179660.53149  21977290.588    21977294.8744
  23278124.384    -8535403.391 9  -5819725.01649  23278124.510    23278127.3514
  20101393.340   -28844013.702 9 -21880918.02449  20101393.095    20101397.3264
  23853112.817    -7549711.630 9  -5607438.18949  23853111.215    23853120.0864
  20746735.085   -25225680.709 9 -19458448.22449  20746735.094    20746738.6134
  21198238.393   -18269638.935 9 -14214503.99049  21198237.975    21198242.3424
 99  4 20 19 44 59.9990000  0  7 05 09 30 24 10 04 08
  20611283.393   -25531754.988 9 -19642489.49049  20611282.776    20611286.5984
  21988648.599   -16866274.753 9 -13133150.87049  21988648.585    21988653.3244
  23257037.098    -8646217.508 9  -5906073.60949  23257037.168    23257041.4434
  20094429.357   -28880609.751 9 -21909434.41049  20094428.976    20094433.4844
  23831911.621    -7661123.873 9  -5694252.74049  23831910.372    23831918.7594
  20755359.651   -25180358.366 9 -19423132.12449  20755359.943    20755362.9244
  21196464.977   -18278958.457 9 -14221765.97049  21196464.223    21196469.0184
 99  4 20 19 45 29.9990000  0  7 05 09 30 24 10 04 08
  20598919.353   -25596728.432 9 -19693118.13549  20598918.406    20598922.6314
  22000047.476   -16806373.269 9 -13086474.43949  22000046.725    22000052.3684
  23235941.093    -8757077.692 9  -5992458.10649  23235941.492    23235944.4094
  20087536.764   -28916830.510 9 -21937658.36549  20087536.658    20087540.8344
  23810686.116    -7772664.408 9  -5781167.28049  23810684.916    23810693.4604
  20764036.135   -25134763.036 9 -19387603.29349  20764036.147    20764039.5264
  21194777.069   -18287828.538 9 -14228677.73949  21194776.452    21194780.9724
 99  4 20 19 45 59.9990000  0  7 05 09 30 24 10 04 08
  20586661.948   -25661141.141 9 -19743309.84549  20586661.241    20586664.8934
  22011546.503   -16745945.284 9 -13039387.76749  22011546.194    22011551.5994
  23214898.566    -8867657.348 9  -6078624.00749  23214899.120    23214901.8904
  20080780.914   -28952332.780 9 -21965322.46149  20080780.685    20080784.6554
  23789501.376    -7883990.293 9  -5867914.53849  23789499.872    23789508.5094
  20772832.382   -25088538.541 9 -19351584.21749  20772832.687    20772835.7924
  21193243.014   -18295889.805 9 -14234959.26049  21193242.294    21193247.0454
 99  4 20 19 46 29.9990000  0  7 05 09 30 24 10 04 08
  20574475.240   -25725182.753 9 -19793212.38849  20574474.738    20574478.5034
  22023111.209   -16685172.791 9 -12992032.64049  22023110.928    22023116.1064
  23193874.622    -8978138.958 9  -6164713.51649  23193875.184    23193878.6704
  20074129.286   -28987287.294 9 -21992559.72949  20074129.160    20074133.0844
  23768328.661    -7995252.560 9  -5954612.22149  23768327.659    23768335.8394
  20781718.559   -25041841.492 9 -19315196.91349  20781718.446    20781722.3644
  21191835.594   -18303286.252 9 -14240722.74149  21191834.738    21191839.5804
 99  4 20 19 46 59.9990000  0  7 05 09 30 24 10 04 08
  20562351.005   -25788895.795 9 -19842858.90449  20562350.501    20562354.2094
  22034733.607   -16624097.058 9 -12944441.22049  22034733.521    22034738.3264
  23172863.375    -9088553.051 9  -6250750.41049  23172863.091    23172867.2494
  20067574.217   -29021734.350 9 -22019401.57849  20067573.988    20067578.3564
  23747162.913    -8106478.733 9  -6041281.79349  23747162.132    23747170.4464
  20790690.141   -24994695.299 9 -19278459.62849  20790690.125    20790694.0574
  21190553.343   -18310024.363 9 -14245973.24249  21190552.826    21190557.4374
 99  4 20 19 47 29.9990000  0  7 05 09 30 24 10 04 08
  20550288.967   -25852282.402 9 -19892251.05149  20550288.291    20550292.2554
  22046415.806   -16562706.768 9 -12896604.68449  22046415.894    22046420.6894
  23151864.925    -9198899.993 9  -6336734.96849  23151864.967    23151869.9904
  20061118.111   -29055661.441 9 -22045838.25949  20061117.837    20061122.1574
  23726003.621    -8217670.790 9  -6127924.77849  23726003.230    23726011.2574
  20799747.298   -24947099.462 9 -19241371.96649  20799747.215    20799750.9194
  21189397.701   -18316097.311 9 -14250705.42649  21189397.006    21189401.8244
 99  4 20 19 47 59.9990000  0  7 05 09 30 24 10 04 08
  20538288.480   -25915345.354 9 -19941391.00649  20538287.899    20538291.9124
  22058160.800   -16500986.584 9 -12848511.09349  22058160.353    22058165.7244
  23130879.435    -9309178.969 9  -6422666.56749  23130878.956    23130883.6774
  20054760.761   -29089069.412 9 -22071870.43549  20054760.618    20054765.0074
  23704848.932    -8328839.172 9  -6214549.33649  23704847.056    23704856.5514
  20808886.307   -24899073.574 9 -19203949.20949  20808886.448    20808890.1544
  21188366.294   -18321517.681 9 -14254929.11249  21188365.929    21188370.4914
 99  4 20 19 48 29.9990000  0  7 05 09 30 24 10 04 08
  20526348.737   -25978088.960 9 -19990282.10849  20526347.975    20526351.8224
  22069971.462   -16438921.295 9 -12800148.58349  22069971.247    22069975.8684
  23109910.454    -9419371.065 9  -6508530.47049  23109910.032    23109914.2134
  20048502.243   -29121958.137 9 -22097497.99349  20048501.881    20048506.2254
  23683698.320    -8439985.609 9  -6301156.78549  23683697.328    23683705.3934
  20818104.401   -24850632.236 9 -19166202.71449  20818104.406    20818108.1164
  21187453.724   -18326313.128 9 -14258665.83449  21187453.211    21187457.9924
 99  4 20 19 48 59.9990000  0  7 05 09 30 24 10 04 08
  20514474.687   -26040487.337 9 -20038904.20849  20514473.945    20514478.0924
  22081847.484   -16376512.461 9 -12751518.40249  22081847.345    22081852.2804
  23088963.548    -9529446.831 9  -6594303.73249  23088963.053    23088968.3194
  20042344.884   -29154315.134 9 -22122711.22749  20042344.504    20042348.9144
  23662551.374    -8551112.761 9  -6387749.19649  23662550.357    23662557.7774
  20827401.027   -24801778.171 9 -19128134.62449  20827401.030    20827404.7054
  21186658.739   -18330490.723 9 -14261921.12749  21186658.162    21186662.8304
 99  4 20 19 49 29.9990000  0  7 05 09 30 24 10 04 08
  20502669.987   -26102521.474 9 -20087242.48649  20502669.497    20502673.4344
  22093788.087   -16313764.417 9 -12702623.90549  22093788.319    22093793.2874
  23068042.094    -9639388.942 9  -6679972.86049  23068041.887    23068045.4094
  20036291.213   -29186127.394 9 -22147499.99049  20036290.944    20036295.3984
  23641410.617    -8662207.247 9  -6474316.13949  23641408.304    23641417.4564
  20836773.266   -24752526.606 9 -19089756.78649  20836773.592    20836776.9734
  21185980.654   -18334054.348 9 -14264698.00049  21185980.571    21185984.6534
 99  4 20 19 49 59.9990000  0  7 05 09 30 24 10 04 08
  20490936.547   -26164181.078 9 -20135288.90949  20490935.800    20490939.8294
  22105790.821   -16250690.166 9 -12653475.19749  22105791.049    22105795.3414
  23047149.317    -9749180.943 9  -6765525.01949  23047149.530    23047153.4524
  20030338.127   -29217411.148 9 -22171876.92449  20030337.846    20030342.1144
  23620280.301    -8773246.292 9  -6560839.87749  23620279.231    23620286.5934
  20846218.248   -24702893.282 9 -19051081.47049  20846218.074    20846221.6764
  21185418.943   -18337006.330 9 -14266998.26049  21185418.370    21185423.1654
 99  4 20 19 50 29.9990000  0  7 05 09 30 24 10 04 08
  20479275.436   -26225460.668 9 -20183039.22849  20479274.923    20479278.8034
  22117851.596   -16187310.614 9 -12604088.61249  22117851.100    22117856.0684
  23026283.686    -9858830.398 9  -6850966.10749  23026283.496    23026287.9754
  20024483.951   -29248175.025 9 -22195848.76449  20024483.768    20024487.8974
  23599160.245    -8884232.051 9  -6647322.12049  23599158.223    23599166.7314
  20855735.733   -24652878.561 9 -19012108.97349  20855736.004    20855739.1154
  21184973.004   -18339349.565 9 -14268824.18349  21184972.669    21184976.9394
 99  4 20 19 50 59.9990000  0  7 05 09 30 24 10 04 08
  20467686.776   -26286359.367 9 -20230492.74749  20467686.056    20467689.9664
  22129968.232   -16123637.249 9 -12554473.08649  22129967.872    22129973.3864
  23005443.576    -9968345.439 9  -6936302.43549  23005442.943    23005448.1824
  20018729.674   -29278414.043 9 -22219411.62249  20018729.582    20018733.6914
  23578052.379    -8995153.964 9  -6733754.61649  23578051.155    23578058.5274
  20865324.608   -24602488.584 9 -18972844.06349  20865324.446    20865328.6824
  21184642.790   -18341085.011 9 -14270176.49649  21184642.237    21184647.1904
 99  4 20 19 51 29.9990000  0  7 05 09 30 24 10 04 08
  20456172.296   -26346868.268 9 -20277642.52849  20456171.777    20456175.3954
  22142144.898   -16059648.836 9 -12504612.06649  22142145.172    22142150.0904
  22984629.998   -10077721.071 9  -7021530.13549  22984630.541    22984634.6194
  20013077.695   -29308115.472 9 -22242555.58249  20013077.595    20013081.6824
  23556962.237    -9105983.132 9  -6820114.84549  23556960.755    23556969.0334
  20874988.937   -24551702.683 9 -18933270.64649  20874988.886    20874992.4594
  21184429.093   -18342208.063 9 -14271051.61749  21184428.635    21184433.0054
 99  4 20 19 51 59.9990000  0  7 05 09 30 24 10 04 08
  20444733.404   -26406980.076 9 -20324482.88949  20444732.686    20444736.5424
  22154384.356   -15995330.633 9 -12454494.06249  22154384.769    22154389.0344
  22963843.720   -10186952.935 9  -7106645.82549  22963843.502    22963848.7914
  20007528.870   -29337274.843 9 -22265277.16149  20007528.616    20007532.7374
  23535891.228    -9216711.170 9  -6906396.26549  23535889.483    23535898.6204
  20884735.358   -24500484.931 9 -18893360.72049  20884735.588    20884738.8484
  21184334.078   -18342707.264 9 -14271440.62749  21184333.091    21184338.3534
 99  4 20 19 52 29.9990000  0  7 05 09 30 24 10 04 08
  20433367.401   -26466708.748 9 -20371024.70149  20433366.805    20433370.6574
  22166685.837   -15930686.454 9 -12404122.05349  22166685.973    22166690.8574
  22943083.126   -10296051.149 9  -7191657.36649  22943083.384    22943087.7734
  20002083.546   -29365890.271 9 -22287574.88749  20002083.156    20002087.2834
  23514835.817    -9327357.685 9  -6992614.16549  23514834.399    23514841.4514
  20894564.785   -24448831.141 9 -18853111.02949  20894564.764    20894568.5644
  21184356.826   -18342587.756 9 -14271347.52349  21184356.175    21184360.8804
 99  4 20 19 52 59.9990000  0  7 05 09 30 24 10 04 08
  20422070.234   -26526075.865 9 -20417284.78249  20422069.695    20422073.4384
  22179045.202   -15865737.591 9 -12353512.62449  22179045.067    22179050.4994
  22922345.182   -10405029.811 9  -7276575.75649  22922345.390    22922350.7284
  19996737.576   -29393983.275 9 -22309465.52749  19996737.377    19996741.5834
  23493795.147    -9437927.095 9  -7078771.93949  23493793.525    23493802.5414
  20904471.058   -24396773.464 9 -18812546.60649  20904471.376    20904474.6884
  21184494.677   -18341863.388 9 -14270783.10249  21184494.140    21184498.8434
 99  4 20 19 53 29.9990000  0  7 05 09 30 24 10 04 08
  20410841.311   -26585084.174 9 -20463265.26649  20410840.759    20410844.5414
  22191460.607   -15800494.637 9 -12302674.03149  22191460.611    22191465.6384
  22901627.897   -10513900.322 9  -7361409.86749  22901627.813    22901631.3854
  19991487.364   -29421573.304 9 -22330964.24249  19991486.752    19991491.3884
  23472764.392    -9548444.118 9  -7164888.92949  23472763.024    23472770.7344
  20914453.187   -24344316.729 9 -18771671.24649  20914453.265    20914456.7414
  21184747.905   -18340532.576 9 -14269746.12849  21184747.824    21184751.8264
 99  4 20 19 53 59.9990000  0  7 05 09 30 24 10 04 08
  20399683.363   -26643719.622 9 -20508955.21449  20399682.634    20399686.3214
  22203932.067   -15734956.475 9 -12251605.40249  22203932.038    22203937.0574
  22880933.559   -10622649.597 9  -7446149.52349  22880933.529    22880938.0544
  19986334.723   -29448650.483 9 -22352063.33449  19986334.279    19986338.6224
  23451743.287    -9658909.104 9  -7250965.34149  23451742.087    23451749.7744
  20924511.639   -24291459.192 9 -18730483.56749  20924511.962    20924515.1744
  21185119.133   -18338581.779 9 -14268226.05049  21185118.338    21185123.5914
 99  4 20 19 54 29.9990000  0  7 05 09 30 24 10 04 08
  20388598.649   -26701970.117 9 -20554345.19949  20388597.777    20388601.7174
  22216461.121   -15669116.374 9 -12200301.50549  22216461.054    22216466.4984
  22860263.297   -10731272.288 9  -7530790.55049  22860263.769    22860268.0204
  19981282.493   -29475199.733 9 -22372751.05149  19981282.206    19981286.4024
  23430736.467    -9769300.035 9  -7336984.07549  23430735.060    23430743.5324
  20934644.115   -24238212.929 9 -18688992.97749  20934643.898    20934647.3804
  21185609.540   -18336005.111 9 -14266218.27649  21185609.428    21185613.8434
 99  4 20 19 54 59.9990000  0  7 05 09 30 24 10 04 08
  20377592.142   -26759809.600 9 -20599414.91449  20377591.497    20377595.3294
  22229049.592   -15602963.798 9 -12148754.11049  22229049.249    22229055.1364
  22839619.015   -10839758.433 9  -7615325.14249  22839618.831    22839623.7504
  19976332.393   -29501212.742 9 -22393020.91649  19976332.093    19976336.4154
  23409749.620    -9879586.082 9  -7422921.07649  23409748.868    23409756.3584
  20944853.268   -24184563.253 9 -18647188.05649  20944853.060    20944856.8244
  21186221.809   -18332787.864 9 -14263711.35349  21186221.484    21186225.8954
 99  4 20 19 55 29.9990000  0  7 05 09 30 24 10 04 08
  20366670.004   -26817205.897 9 -20644139.29349  20366669.338    20366673.1894
  22241702.728   -15536471.204 9 -12096941.78049  22241702.530    22241707.8874
  22819006.376   -10948077.816 9  -7699729.80849  22819006.720    22819010.4734
  19971488.069   -29526669.727 9 -22412857.51949  19971487.867    19971492.1374
  23388787.382    -9989743.003 9  -7508757.47449  23388786.150    23388793.3384
  20955145.860   -24130475.495 9 -18605041.76049  20955145.325    20955149.5654
  21186959.251   -18328912.499 9 -14260691.61449  21186958.884    21186963.2114
 99  4 20 19 55 59.9990000  0  7 05 09 30 24 10 04 08
  20355798.251   -26874337.432 9 -20688657.36349  20355797.814    20355801.4624
  22254383.943   -15469831.190 9 -12045014.56849  22254383.511    22254388.9744
  22798391.126   -11056411.440 9  -7784145.54449  22798391.072    22798395.4244
  19966713.502   -29551760.246 9 -22432408.56949  19966713.342    19966717.5844
  23367817.881   -10099937.955 9  -7594623.51249  23367816.507    23367824.4004
  20965482.574   -24076155.685 9 -18562714.66149  20965482.618    20965486.1534
  21187784.618   -18324575.442 9 -14257312.11349  21187784.092    21187788.8354
 99  4 20 19 56 29.9990000  0  7 05 09 30 24 10 04 08
  20345017.879   -26930988.851 9 -20732801.31549  20345017.248    20345020.9014
  22267134.478   -15402827.107 9 -11992803.66449  22267134.314    22267139.7134
  22777813.435   -11164547.742 9  -7868407.55249  22777814.397    22777818.2104
  19962048.510   -29576274.971 9 -22451510.94249  19962048.152    19962052.6124
  23346882.700   -10209952.250 9  -7680348.76649  23346881.490    23346888.7414
  20975901.594   -24021403.416 9 -18520050.56749  20975902.595    20975904.9724
  21188739.277   -18319559.168 9 -14253403.35549  21188738.841    21188743.2634
 99  4 20 19 56 59.9990000  0  7 05 09 30 24 10 04 08
  20334320.554   -26987203.670 9 -20776605.06249  20334319.993    20334323.7054
  22279942.530   -15335520.982 9 -11940357.41949  22279942.707    22279948.1374
  22757265.924   -11272525.944 9  -7952546.35549  22757266.862    22757270.7044
  19957483.043   -29600266.602 9 -22470205.71449  19957482.972    19957487.0484
  23325969.926   -10319849.299 9  -7765982.67349  23325968.598    23325975.6904
  20986392.228   -23966275.165 9 -18477093.50249  20986392.063    20986395.4184
  21189812.791   -18313917.908 9 -14249007.59149  21189812.338    21189817.1024
 99  4 20 19 57 29.9990000  0  8 05 09 30 24 10 04 08 06
  20323684.200   -27043098.108 9 -20820159.15249  20323683.776    20323687.2074
  22292786.103   -15268028.201 9 -11887765.72749  22292786.415    22292791.4314
  22736728.675   -11380450.250 9  -8036643.16149  22736728.920    22736732.7554
  19952997.318   -29623839.245 9 -22488573.99349  19952996.938    19953001.3304
  23305054.826   -10429758.251 9  -7851625.83949  23305053.397    23305061.9544
  20996930.338   -23910896.852 9 -18433941.58649  20996930.368    20996933.7744
  21190982.134   -18307772.915 9 -14244219.30649  21190981.918    21190986.0994
  24592644.436    -5499365.158 9  -2309370.19949  24592644.377    24592651.1024
 99  4 20 19 57 59.9990000  0  8 05 09 30 24 10 04 08 06
  20313140.119   -27098507.608 9 -20863335.37849  20313139.536    20313143.0484
  22305697.387   -15200179.671 9 -11834896.83249  22305697.577    22305702.0264
  22716234.475   -11488147.758 9  -8120563.26449  22716234.928    22716239.0994
  19948626.588   -29646807.672 9 -22506471.46249  19948626.233    19948630.4284
  23284169.648   -10539509.938 9  -7937146.48449  23284167.996    23284176.0964
  21007547.744   -23855101.977 9 -18390465.06649  21007547.398    21007550.9904
  21192281.490   -18300944.989 9 -14238898.86849  21192280.919    21192285.1614
  24575887.364    -5587423.448 9  -2377986.95049  24575886.518    24575894.8564
 99  4 20 19 58 29.9990000  0  8 05 09 30 24 10 04 08 06
  20302654.659   -27153608.688 9 -20906271.27449  20302653.965    20302657.6624
  22318642.994   -15132150.493 9 -11781887.17049  22318643.305    22318648.5444
  22695750.260   -11595792.757 9  -8204442.43449  22695750.199    22695754.8794
  19944339.147   -29669338.076 9 -22524027.61549  19944339.081    19944343.1654
  23263281.810   -10649275.377 9  -8022677.85949  23263280.016    23263288.0684
  21018215.801   -23799041.266 9 -18346781.42149  21018215.272    21018219.4674
  21193679.688   -18293597.435 9 -14233173.53049  21193678.672    21193683.5024
  24559123.405    -5675518.889 9  -2446632.64449  24559123.443    24559130.5854
 99  4 20 19 58 59.9990000  0  8 05 09 30 24 10 04 08 06
  20292262.368   -27208220.325 9 -20948825.78349  20292261.750    20292265.4244
  22331657.497   -15063759.115 9 -11728595.26549  22331657.805    22331662.9874
  22675311.143   -11703200.304 9  -8288136.56049  22675311.548    22675315.4724
  19940170.954   -29691242.118 9 -22541095.68849  19940170.737    19940174.8374
  23242429.131   -10758855.976 9  -8108065.20549  23242427.742    23242435.0504
  21028971.533   -23742519.523 9 -18302738.51249  21028971.856    21028974.7034
  21195211.724   -18285546.371 9 -14226899.99649  21195211.331    21195215.9044
  24542386.245    -5763472.980 9  -2515168.18449  24542386.479    24542392.2764
 99  4 20 19 59 29.9990000  0  8 05 09 30 24 10 04 08 06
  20281925.559   -27262540.423 9 -20991153.12849  20281925.085    20281928.7934
  22344702.662   -14995206.089 9 -11675177.38149  22344702.764    22344708.1804
  22654880.680   -11810562.909 9  -8371795.68549  22654880.543    22654884.6314
  19936084.473   -29712716.676 9 -22557829.10349  19936084.266    19936088.5334
  23221577.276   -10868432.738 9  -8193449.54749  23221576.787    23221582.8984
  21039779.767   -23685721.917 9 -18258480.64649  21039779.794    21039782.9544
  21196840.868   -18276985.472 9 -14220229.19349  21196840.253    21196844.9874
  24525636.112    -5851494.547 9  -2583756.31249  24525634.766    24525642.6694
 99  4 20 19 59 59.9990000  0  8 05 09 30 24 10 04 08 06
  20271683.428   -27316363.237 9 -21033092.97549  20271682.766    20271686.5524
  22357815.360   -14926298.720 9 -11621483.41449  22357815.506    22357820.6024
  22634498.293   -11917673.082 9  -8455258.11049  22634498.193    22634502.1424
  19932116.568   -29733568.176 9 -22574077.01049  19932116.243    19932120.4214
  23200766.973   -10977791.173 9  -8278663.79149  23200765.884    23200772.4784
  21050680.687   -23628437.250 9 -18213843.25549  21050680.097    21050684.1624
  21198605.120   -18267714.406 9 -14213005.01149  21198604.561    21198609.0284
  24508908.494    -5939397.701 9  -2652252.17449  24508905.298    24508914.1894
 99  4 20 20  0 29.9990000  0  8 05 09 30 24 10 04 08 06
  20261491.848   -27369920.416 9 -21074825.82849  20261491.291    20261495.0584
  22370950.942   -14857270.988 9 -11567695.64949  22370950.643    22370956.6584
  22614120.901   -12024756.721 9  -8538699.85249  22614120.280    22614124.6764
  19928220.667   -29754041.104 9 -22590029.93349  19928220.380    19928224.5254
  23179956.943   -11087148.950 9  -8363877.52049  23179956.030    23179963.2114
  21061629.247   -23570902.041 9 -18169010.64649  21061629.208    21061632.7584
  21200456.841   -18257983.604 9 -14205422.59049  21200456.020    21200460.7374
  24492158.369    -6027418.926 9  -2720840.00449  24492157.212    24492165.2144
 99  4 20 20  0 59.9990000  0  8 05 09 30 24 10 04 08 06
  20251393.402   -27422988.176 9 -21116177.32249  20251392.842    20251396.5464
  22384152.581   -14787896.241 9 -11513637.51849  22384152.843    22384157.8304
  22593794.527   -12131572.226 9  -8621932.67049  22593795.191    22593799.1454
  19924439.748   -29773910.107 9 -22605512.26749  19924439.428    19924443.8514
  23159187.912   -11196290.409 9  -8448922.68849  23159186.978    23159193.9484
  21072664.764   -23512910.168 9 -18123822.18649  21072664.868    21072668.1394
  21202435.181   -18247587.365 9 -14197321.65949  21202434.410    21202439.0524
  24475429.887    -6115327.889 9  -2789340.33549  24475429.693    24475437.0664
 99  4 20 20  1 29.9990000  0  8 05 09 30 24 10 04 08 06
  20241372.665   -27475647.517 9 -21157210.56349  20241371.860    20241375.7114
  22397404.001   -14718260.025 9 -11459375.61049  22397404.120    22397409.7564
  22573505.449   -12238192.004 9  -8705012.97649  22573505.777    22573510.5074
  19920755.838   -29793269.321 9 -22620597.35949  19920755.698    19920759.6024
  23138441.482   -11305312.954 9  -8533875.20849  23138440.381    23138447.6104
  21083768.769   -23454558.295 9 -18078353.19949  21083769.120    21083772.5174
  21204520.454   -18236629.457 9 -14188783.05649  21204520.036    21204524.9274
  24458703.395    -6203226.583 9  -2857832.71149  24458703.972    24458710.1314
 99  4 20 20  1 59.9990000  0  8 05 09 30 24 10 04 08 06
  20231431.137   -27527890.442 9 -21197919.32349  20231430.472    20231434.2954
  22410710.365   -14648335.025 9 -11404888.66849  22410710.258    22410716.1914
  22553253.502   -12344616.094 9  -8787940.78049  22553253.567    22553258.0904
  19917168.460   -29812121.095 9 -22635287.04349  19917168.351    19917172.4734
  23117720.535   -11414201.431 9  -8618723.26949  23117718.936    23117727.0214
  21094938.835   -23395859.174 9 -18032613.63349  21094938.308    21094942.2354
  21206714.819   -18225098.273 9 -14179797.74849  21206714.457    21206719.1024
  24441979.824    -6291109.814 9  -2926313.01949  24441979.750    24441986.7954
 99  4 20 20  2 29.9990000  0  8 05 09 30 24 10 04 08 06
  20221569.296   -27579714.613 9 -21238301.78449  20221568.799    20221572.7514
  22424072.696   -14578116.039 9 -11350172.66149  22424073.237    22424078.7644
  22533037.015   -12450854.313 9  -8870723.75849  22533036.793    22533041.0574
  19913679.265   -29830456.972 9 -22649574.73849  19913678.827    19913683.1684
  23097027.370   -11522943.634 9  -8703457.35249  23097025.912    23097034.1954
  21106173.609   -23336820.202 9 -17986609.25149  21106173.510    21106177.4484
  21209021.981   -18212974.192 9 -14170350.44749  21209021.210    21209026.0274
  24425262.199    -6378960.935 9  -2994768.29749  24425261.973    24425268.5524
 99  4 20 20  2 59.9990000  0  8 05 09 30 24 10 04 08 06
  20211789.565   -27631107.466 9 -21278348.15249  20211788.790    20211792.7954
  22437487.290   -14507622.418 9 -11295242.65949  22437486.911    22437492.8084
  22512854.219   -12556915.568 9  -8953368.83749  22512854.525    22512858.3764
  19910289.191   -29848271.925 9 -22663456.50849  19910288.894    19910292.9954
  23076361.045   -11631546.155 9  -8788082.58049  23076359.689    23076367.1424
  21117472.268   -23277445.590 9 -17940343.33249  21117472.358    21117475.8724
  21211445.641   -18200237.979 9 -14160426.14849  21211445.122    21211449.7764
  24408551.547    -6466775.711 9  -3063195.26249  24408550.492    24408557.4624
 99  4 20 20  3 29.9980000  0  8 05 09 30 24 10 04 08 06
  20202091.275   -27682072.216 9 -21318060.93549  20202090.744    20202094.4984
  22450949.936   -14436875.399 9 -11240115.22049  22450950.051    22450955.5924
  22492700.188   -12662825.580 9  -9035896.05749  22492699.868    22492703.8444
  19906995.023   -29865582.885 9 -22676945.56049  19906994.834    19906998.9424
  23055721.295   -11740008.267 9  -8872598.40449  23055720.357    23055727.2274
  21128832.996   -23217744.361 9 -17893822.91149  21128833.053    21128836.9094
  21213987.619   -18186879.920 9 -14150017.30849  21213987.032    21213991.6854
  24391847.617    -6554555.212 9  -3131594.72649  24391847.465    24391853.8414
 99  4 20 20  3 59.9980000  0  8 05 09 30 24 10 04 08 06
  20192474.143   -27732610.631 9 -21357441.50649  20192473.611    20192477.5144
  22464458.426   -14365888.170 9 -11184800.59749  22464458.669    22464463.8284
  22472571.247   -12768603.337 9  -9118320.23349  22472571.353    22472575.6194
  19903797.990   -29882383.511 9 -22690036.94849  19903797.548    19903801.8504
  23035108.065   -11848330.977 9  -8957005.59549  23035107.767    23035114.4584
  21140258.179   -23157704.935 9 -17847038.96149  21140257.844    21140261.7774
  21216651.973   -18172878.661 9 -14139107.27149  21216651.828    21216656.3894
  24375154.299    -6642278.343 9  -3199950.29749  24375153.372    24375160.9094
 99  4 20 20  4 29.9980000  0  8 05 09 30 24 10 04 08 06
  20182935.484   -27782736.549 9 -21396500.64649  20182935.085    20182938.6324
  22478007.337   -14294689.023 9 -11129320.84349  22478007.339    22478012.5014
  22452468.240   -12874245.080 9  -9200638.42849  22452469.369    22452472.2864
  19900699.176   -29898667.746 9 -22702725.95149  19900698.683    19900702.7564
  23014518.604   -11956528.913 9  -9041315.58949  23014518.021    23014524.6334
  21151747.164   -23097330.135 9 -17799993.68349  21151747.150    21151750.3954
  21219432.584   -18158266.527 9 -14127721.22749  21219432.223    21219436.5074
  24358473.138    -6729937.189 9  -3268255.76349  24358472.830    24358480.0834
 99  4 20 20  4 59.9980000  0  8 05 09 30 24 10 04 08 06
  20173474.535   -27832454.128 9 -21435241.60849  20173473.965    20173477.8324
  22491597.250   -14223273.918 9 -11073672.80049  22491596.871    22491603.1264
  22432392.639   -12979743.442 9  -9282844.87749  22432392.418    22432397.5244
  19897695.258   -29914453.372 9 -22715026.42949  19897694.793    19897698.8844
  22993950.749   -12064612.797 9  -9125536.70549  22993949.140    22993956.6614
  21163297.679   -23036631.614 9 -17752696.14849  21163298.034    21163300.9224
  21222322.884   -18143078.238 9 -14115886.22449  21222322.492    21222327.0624
  24341802.226    -6817542.657 9  -3336519.66149  24341801.252    24341808.2314
 99  4 20 20  5 29.9980000  0  8 05 09 30 24 10 04 08 06
  20164090.830   -27881766.036 9 -21473666.45949  20164090.311    20164094.0634
  22505231.964   -14151623.271 9 -11017841.21849  22505231.972    22505236.8304
  22412347.703   -13085080.569 9  -9364925.71549  22412348.684    22412351.6434
  19894785.391   -29929744.516 9 -22726941.60049  19894785.007    19894789.3054
  22973407.101   -12172569.761 9  -9209658.91849  22973405.862    22973412.7484
  21174909.974   -22975608.413 9 -17705145.61449  21174909.955    21174912.7544
  21225318.597   -18127335.729 9 -14103619.36349  21225318.108    21225323.0504
  24325141.830    -6905093.171 9  -3404740.71749  24325140.885    24325146.7904
 99  4 20 20  5 59.9980000  0  8 05 09 30 24 10 04 08 06
  20154781.217   -27930688.280 9 -21511787.67849  20154780.736    20154784.4974
  22518910.012   -14079744.591 9 -10961831.94449  22518910.183    22518915.1924
  22392336.827   -13190238.605 9  -9446866.99349  22392338.197    22392341.3164
  19891967.999   -29944549.966 9 -22738478.30649  19891967.737    19891971.7764
  22952888.444   -12280395.511 9  -9293678.89349  22952887.467    22952894.5294
  21186581.223   -22914275.709 9 -17657353.92449  21186580.815    21186584.3954
  21228414.844   -18111064.697 9 -14090940.67049  21228413.855    21228419.0514
  24308488.528    -6992605.860 9  -3472932.29949  24308488.284    24308494.6604
 99  4 20 20  6 29.9980000  0  8 05 09 30 24 10 04 08 06
  20145553.374   -27979180.848 9 -21549574.08549  20145552.824    20145556.4164
  22532639.308   -14007596.893 9 -10905613.06949  22532639.029    22532644.7784
  22372368.566   -13295172.665 9  -9528633.74549  22372367.792    22372371.8894
  19889248.598   -29958840.582 9 -22749613.84549  19889248.470    19889252.5034
  22932401.016   -12388058.196 9  -9377571.79849  22932399.740    22932407.5214
  21198315.361   -22852612.299 9 -17609304.53849  21198315.292    21198318.7584
  21231615.199   -18094247.036 9 -14077836.03049  21231614.979    21231619.1484
  24291842.955    -7080079.484 9  -3541093.46949  24291844.016    24291849.1834
 99  4 20 20  6 59.9980000  0  8 05 09 30 24 10 04 08 06
  20136412.158   -28027218.444 9 -21587005.96849  20136411.702    20136415.1534
  22546420.009   -13935179.744 9 -10849184.22549  22546419.978    22546425.5644
  22352448.544   -13399852.611 9  -9610202.49949  22352449.131    22352452.9754
  19886626.115   -29972621.834 9 -22760352.47749  19886625.676    19886629.8084
  22911946.961   -12495545.088 9  -9461327.72049  22911945.500    22911952.3084
  21210112.801   -22790616.277 9 -17560995.97349  21210112.665    21210116.0264
  21234925.474   -18076851.512 9 -14064281.11749  21234924.568    21234929.3734
  24275204.672    -7167513.915 9  -3609224.09349  24275202.717    24275210.4194
 99  4 20 20  7 29.9980000  0  8 05 09 30 24 10 04 08 06
  20127354.093   -28074819.190 9 -21624097.44849  20127353.533    20127357.0134
  22560243.573   -13862537.127 9 -10792579.68549  22560243.678    22560249.1564
  22332575.598   -13504285.429 9  -9691578.67549  22332575.170    22332579.0444
  19884099.266   -29985900.431 9 -22770699.42649  19884099.025    19884103.3074
  22891523.097   -12602872.572 9  -9544959.43149  22891521.719    22891528.6594
  21221970.799   -22728302.297 9 -17512439.62749  21221970.565    21221974.0884
  21238346.401   -18058874.429 9 -14050273.03649  21238345.499    21238350.3064
  24258569.707    -7254931.215 9  -3677341.38049  24258569.092    24258575.2444
 99  4 20 20  7 59.9980000  0  8 05 09 30 24 10 04 08 06
  20118379.158   -28121982.714 9 -21660848.23849  20118378.586    20118382.1594
  22574106.353   -13789688.404 9 -10735814.53549  22574106.261    22574111.1374
  22312746.552   -13608488.086 9  -9772775.51049  22312746.867    22312750.3234
  19881670.273   -29998664.979 9 -22780645.81949  19881670.016    19881674.0934
  22871128.438   -12710046.545 9  -9628471.51249  22871127.678    22871135.0784
  21233888.214   -22665676.315 9 -17463640.18249  21233887.915    21233891.9934
  21241880.515   -18040302.823 9 -14035801.68649  21241880.202    21241884.8734
  24241936.071    -7342341.374 9  -3745453.10449  24241935.497    24241942.5124
 99  4 20 20  8 29.9980000  0  8 05 09 30 24 10 04 08 06
  20109488.153   -28168705.236 9 -21697255.38749  20109487.432    20109491.1254
  22588006.371   -13716643.137 9 -10678896.24949  22588006.708    22588011.7634
  22292957.794   -13712478.871 9  -9853807.26249  22292957.687    22292961.6304
  19879340.489   -30010908.130 9 -22790185.92749  19879340.119    19879344.3564
  22850761.712   -12817073.646 9  -9711869.14849  22850760.198    22850767.6984
  21245864.461   -22602740.717 9 -17414599.48649  21245864.594    21245868.4364
  21245528.811   -18021131.222 9 -14020862.81449  21245528.527    21245532.9764
  24225304.969    -7429737.721 9  -3813554.06249  24225303.701    24225310.9024
 99  4 20 20  8 59.9980000  0  8 05 09 30 24 10 04 08 06
  20100675.875   -28215013.845 9 -21733340.01049  20100675.362    20100678.8924
  22601937.939   -13643432.776 9 -10621849.31849  22601937.584    22601943.4724
  22273202.381   -13816294.275 9  -9934702.34149  22273202.263    22273206.1424
  19877104.705   -30022657.122 9 -22799340.98249  19877104.387    19877108.6194
  22830420.645   -12923965.977 9  -9795161.77349  22830419.819    22830426.6234
  21257896.703   -22539510.528 9 -17365329.22049  21257898.413    21257900.9564
  21249288.120   -18001376.135 9 -14005469.27749  21249287.654    21249292.2014
  24208675.957    -7517122.291 9  -3881645.81449  24208675.203    24208683.8564
 99  4 20 20  9 29.9980000  0  8 05 09 30 24 10 04 08 06
  20091931.589   -28260965.288 9 -21769146.32349  20091930.896    20091934.7544
  22615890.918   -13570109.829 9 -10564714.65149  22615890.495    22615896.4394
  22253461.755   -13920031.481 9 -10015536.47749  22253461.049    22253464.9464
  19874954.910   -30033954.120 9 -22808143.83549  19874954.575    19874958.8664
  22810096.297   -13030770.858 9  -9878386.26649  22810095.989    22810102.4994
  21269976.130   -22476032.999 9 -17315866.22349  21269976.991    21269980.3544
  21253146.672   -17981099.315 9 -13989669.19849  21253145.953    21253150.7214
  24192037.001    -7604559.237 9  -3949778.40949  24192035.043    24192044.1314
 99  4 20 20  9 59.9980000  0  8 05 09 30 24 10 04 08 06
  20083258.239   -28306544.096 9 -21804662.27049  20083257.390    20083261.1734
  22629869.450   -13496652.814 9 -10507475.50349  22629869.457    22629875.4834
  22233735.306   -14023694.236 9 -10096312.60149  22233735.455    22233739.5254
  19872890.674   -30044801.930 9 -22816596.66849  19872890.025    19872894.4424
  22789792.251   -13137469.288 9  -9961527.79549  22789791.556    22789797.9904
  21282105.368   -22412293.895 9 -17266199.41349  21282105.065    21282109.8354
  21257105.881   -17960293.646 9 -13973457.02449  21257105.372    21257110.0744
  24175392.278    -7692026.321 9  -4017934.46249  24175391.465    24175400.5504
 99  4 20 20 10 29.9980000  0  8 05 09 30 24 10 04 08 06
  20074669.122   -28351680.036 9 -21839833.13149  20074668.576    20074672.1944
  22643886.773   -13422991.741 9 -10450077.38549  22643886.703    22643892.3354
  22214036.575   -14127211.736 9 -10176975.55649  22214036.752    22214039.7994
  19870917.947   -30055168.572 9 -22824674.56849  19870917.540    19870921.8104
  22769520.662   -13243997.159 9 -10044536.41649  22769520.189    22769526.7634
  21294294.951   -22348237.468 9 -17216285.34549  21294294.776    21294299.3174
  21261175.471   -17938907.618 9 -13956792.62549  21261174.815    21261180.0374
  24158756.817    -7779446.395 9  -4086053.91049  24158758.110    24158762.2214
 99  4 20 20 10 59.9980000  0  8 05 09 30 24 10 04 08 06
  20066171.098   -28396337.280 9 -21874630.98149  20066170.689    20066174.2144
  22657947.050   -13349104.357 9 -10392502.90649  22657946.490    22657952.3084
  22194369.357   -14230563.471 9 -10257509.33449  22194368.718    22194372.0724
  19869037.823   -30065048.742 9 -22832373.39649  19869037.212    19869041.6014
  22749287.682   -13350321.732 9 -10127386.61249  22749286.896    22749293.0634
  21306547.890   -22283847.773 9 -17166111.58549  21306547.714    21306551.5144
  21265357.811   -17916929.356 9 -13939666.74649  21265357.190    21265361.9144
  24142134.368    -7866798.509 9  -4154120.38749  24142134.018    24142141.2374
 99  4 20 20 11 29.9980000  0  8 05 09 30 24 10 04 08 06
  20057766.795   -28440501.985 9 -21909045.03249  20057766.187    20057769.7984
  22672052.917   -13274977.955 9 -10334742.18449  22672053.404    22672058.9364
  22174740.165   -14333715.117 9 -10337887.20949  22174740.257    22174744.1584
  19867252.788   -30074428.767 9 -22839682.50149  19867252.397    19867256.5834
  22729096.179   -13456428.330 9 -10210066.95149  22729095.155    22729102.6694
  21318864.096   -22219125.709 9 -17115678.83249  21318864.867    21318867.8294
  21269653.504   -17894355.758 9 -13922076.96849  21269653.186    21269658.1124
  24125527.771    -7954066.986 9  -4222121.67549  24125527.255    24125533.4544
 99  4 20 20 11 59.9980000  0  8 05 09 30 24 10 04 08 06
  20049442.544   -28484246.277 9 -21943131.48449  20049441.970    20049445.6814
  22686188.425   -13200695.868 9 -10276860.16049  22686188.648    22686194.7794
  22155141.608   -14436706.009 9 -10418139.79549  22155141.145    22155145.3864
  19865546.767   -30083393.999 9 -22846668.38749  19865546.338    19865550.6424
  22708932.402   -13562388.874 9 -10292633.48649  22708931.144    22708938.4204
  21331226.141   -22154163.122 9 -17065058.64949  21331226.599    21331230.0334
  21274044.877   -17871279.054 9 -13904095.16049  21274044.276    21274048.9364
  24108923.961    -8041320.617 9  -4290111.44249  24108923.909    24108928.5614
 99  4 20 20 12 29.9980000  0  8 05 09 30 24 10 04 08 06
  20041203.780   -28527541.416 9 -21976867.95749  20041203.164    20041206.6854
  22700356.237   -13126243.889 9 -10218845.74249  22700356.840    22700362.1214
  22135580.859   -14539498.327 9 -10498237.65549  22135580.467    22135583.9674
  19863926.851   -30091906.848 9 -22853301.77249  19863926.650    19863930.7194
  22688800.429   -13668182.266 9 -10375069.76549  22688799.121    22688806.6414
  21343636.158   -22088948.049 9 -17014241.73449  21343636.058    21343640.5064
  21278532.656   -17847696.121 9 -13885718.89149  21278532.319    21278536.9294
  24092324.309    -8128551.211 9  -4358083.24949  24092324.491    24092330.2474
 99  4 20 20 12 59.9980000  0  8 05 09 30 24 10 04 08 06
  20033056.846   -28570353.999 9 -22010228.40549  20033056.394    20033059.8064
  22714563.252   -13051585.746 9 -10160670.68049  22714563.255    22714569.3134
  22116069.836   -14642028.835 9 -10578131.51249  22116069.943    22116073.3744
  19862406.252   -30099897.672 9 -22859528.38049  19862406.042    19862410.1114
  22668710.119   -13773757.120 9 -10457335.74849  22668709.189    22668716.0014
  21356105.153   -22023423.053 9 -16963183.31749  21356105.326    21356109.1634
  21283125.336   -17823561.781 9 -13866912.95249  21283124.929    21283129.8584
  24075735.240    -8215726.931 9  -4426012.26849  24075734.516    24075742.1394
 99  4 20 20 13 29.9980000  0  8 05 09 30 24 10 04 08 06
  20024993.453   -28612727.477 9 -22043246.70049  20024992.726    20024996.6394
  22728801.717   -12976762.295 9 -10102366.80749  22728802.018    22728806.9034
  22096606.195   -14744310.513 9 -10657831.48249  22096606.338    22096609.9604
  19860981.158   -30107386.379 9 -22865363.72649  19860980.919    19860984.8944
  22648654.151   -13879151.412 9 -10539461.05449  22648652.954    22648659.4314
  21368628.101   -21957614.319 9 -16911903.81549  21368628.736    21368631.0124
  21287817.989   -17798901.629 9 -13847697.29449  21287817.491    21287822.0874
  24059149.761    -8302884.585 9  -4493927.22549  24059150.327    24059155.8624
 99  4 20 20 13 59.9980000  0  8 05 09 30 24 10 04 08 06
  20017005.492   -28654704.295 9 -22075955.90949  20017004.966    20017008.6904
  22743063.555   -12901816.214 9 -10043967.36749  22743063.685    22743068.6634
  22077181.981   -14846384.973 9 -10737369.99649  22077182.934    22077185.2324
  19859645.153   -30114407.279 9 -22870834.54949  19859645.074    19859648.8894
  22628625.966   -13984399.799 9 -10621472.66749  22628625.828    22628631.8424
  21381198.644   -21891555.605 9 -16860429.50849  21381198.944    21381201.5774
  21292603.243   -17773754.981 9 -13828102.54849  21292602.928    21292607.3574
  24042558.152    -8390074.231 9  -4561867.10949  24042556.125    24042564.0724
 99  4 20 20 14 29.9980000  0  8 05 09 30 24 10 04 08 06
  20009096.339   -28696267.161 9 -22108342.55849  20009095.601    20009099.6454
  22757354.173   -12826718.894 9  -9985450.10449  22757353.982    22757360.8694
  22057799.610   -14948239.045 9 -10816736.76549  22057799.013    22057803.6544
  19858403.518   -30120932.139 9 -22875918.85049  19858402.974    19858407.2854
  22608630.434   -14089476.713 9 -10703350.65549  22608629.312    22608635.9784
  21393820.552   -21825227.085 9 -16808744.97549  21393820.926    21393824.0784
  21297488.002   -17748085.717 9 -13808100.56549  21297487.146    21297492.3914
  24025965.619    -8477268.209 9  -4629810.35749  24025965.460    24025971.6804
 99  4 20 20 14 59.9980000  0  8 05 09 30 24 10 04 08 06
  20001272.557   -28737381.624 9 -22140379.80449  20001272.157    20001275.5314
  22771680.251   -12751435.395 9  -9926787.75849  22771679.774    22771686.8294
  22038464.612   -15049844.683 9 -10895909.95149  22038464.678    22038468.6944
  19857261.479   -30126933.440 9 -22880595.18549  19857261.274    19857265.5094
  22588677.561   -14194329.659 9 -10785054.13549  22588676.655    22588683.3974
  21406498.943   -21758602.000 9 -16756829.34649  21406499.389    21406502.7994
  21302481.174   -17721846.567 9 -13787654.51549  21302480.250    21302485.8894
  24009381.071    -8564420.378 9  -4697721.04249  24009380.582    24009388.0414
 99  4 20 20 15 29.9980000  0  8 05 09 30 24 10 04 08 06
  19993533.307   -28778051.727 9 -22172070.79649  19993532.505    19993536.3164
  22786040.139   -12675974.355 9  -9867987.07649  22786040.073    22786045.6954
  22019174.245   -15151216.315 9 -10974900.79949  22019174.563    22019178.1124
  19856216.668   -30132423.977 9 -22884873.52349  19856216.467    19856220.5224
  22568767.942   -14298955.107 9 -10866580.33049  22568766.058    22568773.4494
  21419227.817   -21691711.506 9 -16704706.90149  21419227.407    21419231.4374
  21307580.433   -17695049.885 9 -13766774.02249  21307579.720    21307584.9544
  23992803.025    -8651537.430 9  -4765604.35149  23992802.508    23992809.2294
 99  4 20 20 15 59.9980000  0  8 05 09 30 24 10 04 08 06
  19985881.952   -28818259.701 9 -22203401.68149  19985881.232    19985885.1154
  22800438.218   -12600311.987 9  -9809029.51949  22800437.965    22800444.5164
  21999928.716   -15252352.805 9 -11053708.41549  21999929.296    21999932.6734
  19855267.690   -30137411.088 9 -22888759.57949  19855267.354    19855271.4364
  22548905.336   -14403333.160 9 -10947913.75749  22548903.729    22548910.5294
  21432005.904   -21624562.591 9 -16652383.08449  21432005.042    21432008.8304
  21312783.343   -17667708.723 9 -13745469.28049  21312783.007    21312788.1314
  23976232.669    -8738614.275 9  -4833456.33249  23976231.870    23976238.6274
 99  4 20 20 16 29.9980000  0  8 05 09 30 24 10 04 08 06
  19978324.053   -28857976.806 9 -22234350.07249  19978323.494    19978327.2684
  22814879.178   -12524425.155 9  -9749897.04149  22814880.587    22814886.1944
  21980730.801   -15353238.776 9 -11132320.82749  21980731.156    21980734.4104
  19854413.735   -30141898.574 9 -22892256.31949  19854413.605    19854417.4904
  22529095.509   -14507433.685 9 -11029030.94049  22529095.002    22529100.4544
  21444837.285   -21557133.174 9 -16599840.71549  21444837.058    21444840.9304
  21318091.948   -17639812.174 9 -13723731.76449  21318091.283    21318095.9574
  23959675.908    -8825620.547 9  -4901253.31149  23959675.262    23959681.5074
 99  4 20 20 16 59.9980000  0  8 05 09 30 24 10 04 08 06
  19970856.574   -28897218.756 9 -22264928.21349  19970855.904    19970859.5924
  22829360.933   -12448323.976 9  -9690597.54149  22829361.132    22829366.6624
  21961580.238   -15453875.681 9 -11210739.16549  21961579.875    21961583.7064
  19853650.431   -30145909.822 9 -22895381.96149  19853650.064    19853654.1124
  22509339.162   -14611253.498 9 -11109929.40349  22509338.499    22509345.1324
  21457722.569   -21489420.435 9 -16547077.55749  21457722.348    21457726.0664
  21323502.882   -17611377.687 9 -13701575.07649  21323502.267    21323507.3264
  23943131.919    -8912559.615 9  -4968997.95249  23943130.795    23943138.2434
 99  4 20 20 17 29.9980000  0  8 05 09 30 24 10 04 08 06
  19963471.322   -28936028.448 9 -22295169.53049  19963470.727    19963474.3764
  22843877.180   -12372040.748 9  -9631156.18249  22843877.023    22843882.6274
  21942471.349   -15554293.218 9 -11288986.56049  21942471.823    21942474.8054
  19852968.935   -30149491.095 9 -22898172.55849  19852968.636    19852972.7024
  22489626.861   -14714842.091 9 -11190647.69749  22489626.396    22489631.9024
  21470657.964   -21421444.275 9 -16494109.14849  21470658.422    21470661.7164
  21329007.687   -17582449.579 9 -13679033.75349  21329007.505    21329012.2624
  23926592.972    -8999471.882 9  -5036721.68549  23926592.655    23926599.5674
 99  4 20 20 17 59.9980000  0  8 05 09 30 24 10 04 08 06
  19956171.138   -28974391.215 9 -22325062.59749  19956170.511    19956174.1944
  22858429.790   -12295567.085 9  -9571566.40149  22858429.908    22858435.7354
  21923405.213   -15654486.235 9 -11367059.00949  21923404.873    21923408.4474
  19852367.807   -30152650.110 9 -22900634.12349  19852367.432    19852371.7344
  22469957.623   -14818204.725 9 -11271189.91549  22469956.173    22469963.3304
  21483648.239   -21353179.716 9 -16440916.00549  21483648.640    21483651.9144
  21334610.396   -17553007.372 9 -13656091.82249  21334610.057    21334614.1264
  23910061.249    -9086346.457 9  -5104416.07249  23910060.809    23910066.2234
 99  4 20 20 18 29.9980000  0  8 05 09 30 24 10 04 08 06
  19948956.330   -29012305.196 9 -22354605.95549  19948955.585    19948959.3114
  22873015.068   -12218921.041 9  -9511842.30949  22873014.601    22873021.0634
  21904383.901   -15754443.638 9 -11444947.85949  21904383.671    21904387.5644
  19851852.578   -30155357.599 9 -22902743.85249  19851852.239    19851856.1924
  22450331.855   -14921338.738 9 -11351554.01149  22450330.679    22450336.9424
  21496694.578   -21284621.204 9 -16387493.80249  21496694.888    21496698.4884
  21340318.648   -17523010.694 9 -13632717.83649  21340318.705    21340322.7914
  23893539.920    -9173166.039 9  -5172067.61249  23893539.127    23893545.5144
 99  4 20 20 18 59.9980000  0  8 05 09 30 24 10 04 08 06
  19941828.923   -29049759.980 9 -22383791.50149  19941828.290    19941831.8854
  22887634.155   -12142097.273 9  -9451979.74649  22887634.251    22887640.7084
  21885409.734   -15854153.908 9 -11522644.13649  21885409.896    21885413.2924
  19851429.682   -30157579.762 9 -22904475.40649  19851429.291    19851433.5424
  22430746.383   -15024260.190 9 -11431752.47149  22430744.579    22430752.0734
  21509795.491   -21215775.725 9 -16333847.99349  21509795.758    21509798.6344
  21346135.339   -17492443.672 9 -13608899.43049  21346134.678    21346139.1064
  23877028.814    -9259932.092 9  -5239677.42949  23877028.597    23877035.1754
 99  4 20 20 19 29.9980000  0  8 05 09 30 24 10 04 08 06
  19934793.203   -29086733.069 9 -22412601.69749  19934792.760    19934796.1874
  22902283.123   -12065116.878 9  -9391995.12849  22902283.489    22902289.6724
  21866482.171   -15953619.032 9 -11600149.40049  21866482.079    21866485.4464
  19851099.697   -30159313.811 9 -22905826.61049  19851099.370    19851103.3674
  22411198.176   -15126986.091 9 -11511798.55849  22411196.342    22411203.6514
  21522946.166   -21146668.729 9 -16279998.41149  21522946.394    21522950.4224
  21352060.419   -17461307.225 9 -13584637.31849  21352059.807    21352064.5034
  23860524.299    -9346663.667 9  -5307260.36549  23860524.243    23860530.5694
 99  4 20 20 19 59.9980000  0  8 05 09 30 24 10 04 08 06
  19927857.265   -29123181.666 9 -22441003.20149  19927856.732    19927860.3494
  22916962.318   -11987977.810 9  -9331886.86549  22916962.497    22916969.1484
  21847605.337   -16052817.316 9 -11677446.73749  21847605.497    21847608.1284
  19850869.342   -30160524.369 9 -22906769.89849  19850869.009    19850873.1614
  22391694.603   -15229477.973 9 -11591662.29249  22391693.403    22391699.6464
  21536146.829   -21077299.052 9 -16225944.13649  21536147.335    21536151.3604
  21358098.036   -17429579.538 9 -13559914.49949  21358097.537    21358102.7894
  23844032.048    -9433330.443 9  -5374792.81949  23844031.281    23844038.3124
 99  4 20 20 20 29.9980000  0  8 05 09 30 24 10 04 08 06
  19921020.597   -29159108.639 9 -22468998.24049  19921019.905    19921023.6404
  22931667.530   -11910701.491 9  -9271671.64849  22931667.467    22931673.2014
  21828779.838   -16151745.841 9 -11754533.86549  21828779.880    21828783.4164
  19850739.483   -30161206.716 9 -22907301.59549  19850739.019    19850743.2674
  22372238.730   -15331719.669 9 -11671331.06749  22372237.442    22372243.6204
  21549393.527   -21007687.014 9 -16171701.00849  21549393.815    21549396.3434
  21364243.371   -17397285.713 9 -13534750.53549  21364242.713    21364247.8104
  23827552.901    -9519928.800 9  -5442271.96749  23827551.030    23827559.3454
 99  4 20 20 20 59.9980000  0  8 05 09 30 24 10 04 08 06
  19914280.492   -29194528.104 9 -22496597.81649  19914280.001    19914283.4904
  22946394.753   -11833309.681 9  -9211366.44149  22946394.262    22946401.6184
  21810003.427   -16250416.209 9 -11831419.84749  21810003.789    21810006.9894
  19850701.917   -30161404.009 9 -22907455.32349  19850701.545    19850705.3224
  22352827.145   -15433727.875 9 -11750817.90049  22352826.120    22352832.2534
  21562682.422   -20937853.199 9 -16117285.10049  21562682.595    21562685.2124
  21370485.655   -17364482.769 9 -13509189.85949  21370485.051    21370489.6244
  23811080.053    -9606493.635 9  -5509724.99049  23811078.633    23811085.8864
 99  4 20 20 21 29.9980000  0  8 05 09 30 24 10 04 08 06
  19907639.765   -29229425.415 9 -22523790.52349  19907639.028    19907642.5664
  22961142.067   -11755812.063 9  -9150978.78449  22961141.473    22961147.4374
  21791280.133   -16348807.568 9 -11908088.40049  21791280.371    21791283.6044
  19850756.891   -30161115.064 9 -22907230.16849  19850756.557    19850760.7384
  22333469.671   -15535451.349 9 -11830082.86749  22333468.342    22333475.0954
  21576015.961   -20867784.791 9 -16062686.35249  21576016.824    21576020.8104
  21376826.380   -17331162.352 9 -13483225.95849  21376825.811    21376830.9224
  23794615.492    -9693015.111 9  -5577144.21949  23794615.081    23794622.4664
 99  4 20 20 21 59.9980000  0  8 05 09 30 24 10 04 08 06
  19901100.917   -29263787.025 9 -22550565.80249  19901100.255    19901104.0204
  22975917.135   -11678169.155 9  -9090477.93249  22975917.044    22975924.0364
  21772615.020   -16446893.410 9 -11984518.89549  21772614.842    21772618.3104
  19850910.190   -30160309.337 9 -22906602.32649  19850909.871    19850913.8874
  22314174.174   -15636849.464 9 -11909094.33049  22314173.189    22314179.1914
  21589401.806   -20797441.563 9 -16007873.45949  21589403.157    21589406.0144
  21383269.781   -17297302.130 9 -13456841.42449  21383269.670    21383273.9904
  23778165.884    -9779457.457 9  -5644501.78049  23778165.499    23778172.5694
